KL677 / PH-AKA 7700 Squawk Report (15th of October, 2021)

Aircraft A333 Reg No. PH-AKA Age 9 years old
Model A330 Jet engines 2 First flight 02-02-12
Registered 29-02-12 Rollout 01-12 Delivered 29-02-12
Construction No. 1287 Line No. N/A Series 303
ADSHEX 484F71 Airline name KLM Royal Dutch Airlines Owner N/A
Airfield based Amsterdam-Schiphol~Noord-Holland~PH First tracked N/A

Flight history for PH-AKA

Route Flight No Date Playback
Schiphol (AMS) - Luqa (MLA) KL3399 2021-11-15 08:24:00
Schiphol (AMS) - Kigali Intl (KGL) - Entebbe Intl (EBB) - Schiphol (AMS) KL537 2021-11-14 04:47:00
Washington Dulles International (IAD) - Schiphol (AMS) N/A 2021-11-13 09:13:00
Schiphol (AMS) - Washington Dulles International (IAD) KL651 2021-11-12 20:58:00
Schiphol (AMS) - King Khaled Intl (RUH) - Dubai International (DXB) - Schiphol (AMS) KL419 2021-11-11 07:50:00
Logan International Airport (BOS) - Schiphol (AMS) KL618 2021-11-10 08:23:00
Schiphol (AMS) - Logan International Airport (BOS) KL617 2021-11-10 00:02:00
Washington Dulles International (IAD) - Schiphol (AMS) N/A 2021-11-09 15:56:00
Schiphol (AMS) - Washington Dulles International (IAD) KL651 2021-11-08 20:32:00
Schiphol (AMS) - Kigali Intl (KGL) - Entebbe Intl (EBB) - Schiphol (AMS) KL537 2021-11-07 05:02:00
Washington Dulles International (IAD) - Schiphol (AMS) N/A 2021-11-06 05:47:00
Schiphol (AMS) - Washington Dulles International (IAD) KL651 2021-11-05 22:50:00
Schiphol (AMS) - Calgary International (YYC) - Edmonton International (YEG) - Schiphol (AMS) KL679 2021-11-05 12:08:00
Schiphol (AMS) - Calgary International (YYC) - Edmonton International (YEG) - Schiphol (AMS) KL679 2021-11-05 09:28:00
Schiphol (AMS) - King Khaled Intl (RUH) - Dubai International (DXB) - Schiphol (AMS) KL419 2021-11-04 07:16:00
Logan International Airport (BOS) - Schiphol (AMS) KL618 2021-11-03 13:44:00
Schiphol (AMS) - Logan International Airport (BOS) KL617 2021-11-02 23:33:00
Piarco (POS) - Schiphol (AMS) KL781 2021-11-02 15:56:00
Piarco (POS) - Schiphol (AMS) KL781 2021-11-02 09:37:00
Vancouver International (YVR) - Schiphol (AMS) N/A 2021-11-01 11:35:00
Time Lat Lon Altitude Heading Speed Vertical Rate
2021-10-16 00:44:37 GMT 51.127270 -114.001511 0 298 11 0
2021-10-16 00:43:16 GMT 51.126148 -113.994453 0 0 19 0
2021-10-16 00:41:22 GMT 51.133209 -113.990402 3,550 180 106 -192
2021-10-16 00:41:10 GMT 51.139023 -113.990356 3,550 181 142 -320
2021-10-16 00:40:57 GMT 51.148544 -113.990433 3,700 181 151 -832
2021-10-16 00:40:49 GMT 51.153694 -113.990402 3,800 181 147 -640
2021-10-16 00:40:40 GMT 51.160767 -113.990356 3,925 181 146 -1024
2021-10-16 00:40:32 GMT 51.166077 -113.990402 4,025 179 147 -768
2021-10-16 00:40:29 GMT 51.167496 -113.990433 4,050 179 146 -832
2021-10-16 00:40:18 GMT 51.175461 -113.990433 4,200 181 148 -896
2021-10-16 00:40:11 GMT 51.180134 -113.990250 4,300 182 150 -896
2021-10-16 00:40:08 GMT 51.181915 -113.990204 4,350 181 152 -768
2021-10-16 00:39:58 GMT 51.189400 -113.990250 4,450 178 162 -704
2021-10-16 00:39:49 GMT 51.195267 -113.990402 4,550 181 171 -960
2021-10-16 00:39:46 GMT 51.198029 -113.990356 4,625 181 173 -1344
2021-10-16 00:39:40 GMT 51.203690 -113.990173 4,775 181 176 -1088
2021-10-16 00:39:31 GMT 51.211044 -113.990021 4,925 181 183 -768
2021-10-16 00:39:28 GMT 51.213234 -113.990021 4,975 180 185 -768
2021-10-16 00:39:23 GMT 51.217052 -113.990097 5,025 179 192 -512
2021-10-16 00:39:16 GMT 51.223614 -113.990097 5,100 180 196 -1152
2021-10-16 00:39:08 GMT 51.230366 -113.990097 5,225 180 205 -1152
2021-10-16 00:39:03 GMT 51.235439 -113.990097 5,350 180 207 -1344
2021-10-16 00:38:55 GMT 51.244080 -113.990135 5,550 181 215 -896
2021-10-16 00:38:48 GMT 51.250755 -113.990021 5,650 181 218 -1344
2021-10-16 00:38:44 GMT 51.253922 -113.989944 5,725 181 218 -1344
2021-10-16 00:38:37 GMT 51.260998 -113.989868 5,875 180 222 -1088
2021-10-16 00:38:34 GMT 51.264816 -113.989838 5,925 179 223 -1088
2021-10-16 00:38:26 GMT 51.271610 -113.989868 6,075 180 222 -1216
2021-10-16 00:38:22 GMT 51.275803 -113.989906 6,150 181 222 -960
2021-10-16 00:38:16 GMT 51.282394 -113.989685 6,250 183 223 -640
2021-10-16 00:38:13 GMT 51.286598 -113.989334 6,275 185 223 -320
2021-10-16 00:38:05 GMT 51.293564 -113.988052 6,300 190 226 -256
2021-10-16 00:38:01 GMT 51.297680 -113.986816 6,325 195 226 -128
2021-10-16 00:37:55 GMT 51.303543 -113.984192 6,325 199 230 -128
2021-10-16 00:37:52 GMT 51.307968 -113.981781 6,350 199 233 -384
2021-10-16 00:37:45 GMT 51.313980 -113.978477 6,375 200 236 -320
2021-10-16 00:37:40 GMT 51.319885 -113.975067 6,400 201 239 -384
2021-10-16 00:37:34 GMT 51.325237 -113.971786 6,450 203 241 -256
2021-10-16 00:37:30 GMT 51.330139 -113.968307 6,450 209 240 -128
2021-10-16 00:37:23 GMT 51.335854 -113.962860 6,475 219 238 -192
2021-10-16 00:37:19 GMT 51.339485 -113.957672 6,500 229 239 -448
2021-10-16 00:37:14 GMT 51.343441 -113.950043 6,525 235 243 -448
2021-10-16 00:37:10 GMT 51.347027 -113.941879 6,575 236 248 -512
2021-10-16 00:37:03 GMT 51.350006 -113.934906 6,625 236 250 -640
2021-10-16 00:36:58 GMT 51.353542 -113.926620 6,675 236 254 -640
2021-10-16 00:36:53 GMT 51.356827 -113.918945 6,725 236 257 -384
2021-10-16 00:36:49 GMT 51.360386 -113.910446 6,775 237 260 -320
2021-10-16 00:36:43 GMT 51.363785 -113.902359 6,800 237 262 -384
2021-10-16 00:36:37 GMT 51.367508 -113.893356 6,825 237 266 -384
2021-10-16 00:36:32 GMT 51.371063 -113.884796 6,875 237 269 -384
2021-10-16 00:36:28 GMT 51.374630 -113.876114 6,900 237 272 -384
2021-10-16 00:36:22 GMT 51.378170 -113.867569 6,925 237 275 -576
2021-10-16 00:36:16 GMT 51.382172 -113.857803 7,050 238 275 -1600
2021-10-16 00:36:11 GMT 51.385254 -113.850128 7,175 238 274 -1664
2021-10-16 00:36:07 GMT 51.389099 -113.840630 7,300 238 274 -1216
2021-10-16 00:36:01 GMT 51.392303 -113.832687 7,400 238 275 -1216
2021-10-16 00:35:56 GMT 51.396378 -113.822662 7,500 238 274 -1152
2021-10-16 00:35:50 GMT 51.399677 -113.814545 7,600 238 275 -1344
2021-10-16 00:35:46 GMT 51.403656 -113.804550 7,750 238 275 -1536
2021-10-16 00:35:40 GMT 51.406521 -113.797379 7,850 238 274 -1536
2021-10-16 00:35:35 GMT 51.410568 -113.787155 8,000 238 274 -1280
2021-10-16 00:35:30 GMT 51.413681 -113.779312 8,075 238 274 -1280
2021-10-16 00:35:25 GMT 51.418030 -113.768326 8,250 238 274 -1408
2021-10-16 00:35:19 GMT 51.420868 -113.761200 8,425 238 276 -1152
2021-10-16 00:35:12 GMT 51.426304 -113.747787 8,475 238 276 -1088
2021-10-16 00:35:09 GMT 51.428024 -113.743439 8,525 237 276 -1152
2021-10-16 00:35:04 GMT 51.432404 -113.732697 8,675 237 277 -1280
2021-10-16 00:34:59 GMT 51.435383 -113.725433 8,750 238 278 -960
2021-10-16 00:34:53 GMT 51.439480 -113.715210 8,825 238 281 -896
2021-10-16 00:34:48 GMT 51.442520 -113.707680 8,900 238 281 -1216
2021-10-16 00:34:43 GMT 51.447189 -113.695953 9,100 238 278 -2240
2021-10-16 00:34:38 GMT 51.449718 -113.689575 9,225 238 276 -2432
2021-10-16 00:34:32 GMT 51.454235 -113.678207 9,475 238 272 -1728
2021-10-16 00:34:28 GMT 51.456795 -113.671799 9,575 238 272 -1280
2021-10-16 00:34:24 GMT 51.459309 -113.665466 9,675 238 272 -1344
2021-10-16 00:34:20 GMT 51.462940 -113.656387 9,800 238 272 -1280
2021-10-16 00:34:17 GMT 51.463989 -113.653786 9,825 238 272 -1216
2021-10-16 00:34:10 GMT 51.468575 -113.642349 9,975 238 272 -1408
2021-10-16 00:34:07 GMT 51.470901 -113.636475 10,050 238 272 -1024
2021-10-16 00:34:01 GMT 51.475464 -113.625183 10,175 238 272 -1408
2021-10-16 00:33:56 GMT 51.478165 -113.618393 10,275 238 272 -1280
2021-10-16 00:33:50 GMT 51.482723 -113.607025 10,425 238 272 -1216
2021-10-16 00:33:46 GMT 51.485001 -113.601303 10,500 238 273 -1344
2021-10-16 00:33:42 GMT 51.487610 -113.594627 10,600 238 273 -1408
2021-10-16 00:33:39 GMT 51.489567 -113.589706 10,650 238 274 -1408
2021-10-16 00:33:36 GMT 51.491959 -113.583641 10,750 238 273 -1472
2021-10-16 00:33:28 GMT 51.498230 -113.567978 10,950 238 273 -1344
2021-10-16 00:33:23 GMT 51.501438 -113.559799 11,050 238 272 -1408
2021-10-16 00:33:18 GMT 51.504135 -113.553055 11,150 238 272 -1344
2021-10-16 00:33:15 GMT 51.506195 -113.547859 11,200 238 272 -1344
2021-10-16 00:33:10 GMT 51.509541 -113.539581 11,325 238 272 -1280
2021-10-16 00:33:05 GMT 51.513062 -113.530640 11,450 238 271 -1280
2021-10-16 00:33:00 GMT 51.517044 -113.520615 11,575 238 271 -1280
2021-10-16 00:32:57 GMT 51.519176 -113.515244 11,625 238 271 -1344
2021-10-16 00:32:54 GMT 51.520432 -113.512077 11,675 238 271 -1280
2021-10-16 00:32:51 GMT 51.522575 -113.506775 11,750 238 271 -1280
2021-10-16 00:32:45 GMT 51.526199 -113.497604 11,900 238 272 -1280
2021-10-16 00:32:41 GMT 51.530113 -113.487778 11,975 238 273 -1216
2021-10-16 00:32:34 GMT 51.534073 -113.477783 12,100 238 274 -1536
2021-10-16 00:32:29 GMT 51.537331 -113.469543 12,225 238 273 -1408
2021-10-16 00:32:23 GMT 51.541428 -113.459167 12,350 238 273 -1280
2021-10-16 00:32:20 GMT 51.543941 -113.452759 12,425 238 273 -1280
2021-10-16 00:32:13 GMT 51.548080 -113.442223 12,550 238 271 -704
2021-10-16 00:32:08 GMT 51.551159 -113.434525 12,575 238 269 -512
2021-10-16 00:32:05 GMT 51.554214 -113.426712 12,625 238 268 -448
2021-10-16 00:32:02 GMT 51.555267 -113.424042 12,650 238 268 -448
2021-10-16 00:31:59 GMT 51.558151 -113.416687 12,675 238 267 -384
2021-10-16 00:31:55 GMT 51.560188 -113.411484 12,700 238 267 -1280
2021-10-16 00:31:52 GMT 51.561909 -113.407135 12,725 238 266 -1216
2021-10-16 00:31:48 GMT 51.564842 -113.399658 12,825 238 267 -1280
2021-10-16 00:31:44 GMT 51.567963 -113.391724 12,925 238 268 -1280
2021-10-16 00:31:41 GMT 51.568893 -113.389359 12,950 238 268 -1216
2021-10-16 00:31:38 GMT 51.571976 -113.381577 13,050 238 269 -1152
2021-10-16 00:31:31 GMT 51.575638 -113.372154 13,150 238 269 -1216
2021-10-16 00:31:27 GMT 51.578854 -113.364105 13,250 238 270 -1280
2021-10-16 00:31:21 GMT 51.582596 -113.354485 13,375 238 270 -1344
2021-10-16 00:31:17 GMT 51.585793 -113.346252 13,500 238 270 -1280
2021-10-16 00:31:13 GMT 51.588318 -113.339935 13,575 238 270 -1216
2021-10-16 00:31:10 GMT 51.589462 -113.336967 13,600 238 270 -1280
2021-10-16 00:31:06 GMT 51.592712 -113.328651 13,725 238 271 -1408
2021-10-16 00:31:03 GMT 51.595001 -113.322784 13,800 238 271 -1472
2021-10-16 00:31:00 GMT 51.596592 -113.318787 13,850 238 271 -1408
2021-10-16 00:30:56 GMT 51.599617 -113.311081 13,950 238 272 -1216
2021-10-16 00:30:50 GMT 51.603333 -113.301628 14,025 238 274 -768
2021-10-16 00:30:45 GMT 51.606789 -113.292999 14,075 238 278 -512
2021-10-16 00:30:39 GMT 51.610603 -113.283234 14,125 238 280 -448
2021-10-16 00:30:35 GMT 51.614189 -113.274155 14,175 238 284 -512
2021-10-16 00:30:32 GMT 51.616241 -113.268967 14,200 238 286 -512
2021-10-16 00:30:29 GMT 51.617706 -113.265259 14,225 238 287 -512
2021-10-16 00:30:24 GMT 51.621368 -113.255905 14,250 238 291 -576
2021-10-16 00:30:21 GMT 51.624149 -113.248901 14,300 238 293 -512
2021-10-16 00:30:18 GMT 51.625362 -113.245773 14,300 238 294 -512
2021-10-16 00:30:11 GMT 51.631393 -113.230515 14,375 238 300 -448
2021-10-16 00:30:08 GMT 51.632812 -113.226807 14,400 238 302 -512
2021-10-16 00:30:00 GMT 51.639221 -113.210548 14,475 238 307 -512
2021-10-16 00:29:57 GMT 51.640778 -113.206543 14,500 238 311 -512
2021-10-16 00:29:50 GMT 51.648514 -113.186867 14,600 238 315 -704
2021-10-16 00:29:47 GMT 51.648514 -113.186867 14,600 238 317 -704
2021-10-16 00:29:40 GMT 51.654179 -113.172531 14,675 238 322 -512
2021-10-16 00:29:37 GMT 51.656738 -113.165894 14,675 238 324 -512
2021-10-16 00:29:31 GMT 51.661579 -113.153610 14,750 238 329 -576
2021-10-16 00:29:27 GMT 51.665131 -113.144485 14,775 238 333 -576
2021-10-16 00:29:22 GMT 51.670074 -113.131859 14,850 238 337 -896
2021-10-16 00:29:18 GMT 51.672089 -113.126816 14,900 238 339 -1088
2021-10-16 00:29:15 GMT 51.674568 -113.120422 14,950 238 340 -1216
2021-10-16 00:29:09 GMT 51.681316 -113.103180 15,150 238 343 -1856
2021-10-16 00:29:06 GMT 51.682571 -113.100014 15,200 238 343 -1984
2021-10-16 00:28:58 GMT 51.689835 -113.081436 15,500 238 345 -2048
2021-10-16 00:28:55 GMT 51.691559 -113.077011 15,575 238 345 -2112
2021-10-16 00:28:49 GMT 51.696541 -113.064194 15,775 238 347 -2112
2021-10-16 00:28:45 GMT 51.700333 -113.054512 15,925 238 347 -2176
2021-10-16 00:28:40 GMT 51.705711 -113.040695 16,150 238 348 -2112
2021-10-16 00:28:35 GMT 51.708969 -113.032379 16,300 238 348 -2112
2021-10-16 00:28:27 GMT 51.716034 -113.014282 16,750 238 349 -2112
2021-10-16 00:28:24 GMT 51.717773 -113.009674 16,750 238 349 -2112
2021-10-16 00:28:19 GMT 51.723587 -112.994827 16,900 238 350 -2112
2021-10-16 00:28:14 GMT 51.726974 -112.986069 17,025 238 350 -2176
2021-10-16 00:28:06 GMT 51.734024 -112.967880 17,325 238 351 -2112
2021-10-16 00:28:03 GMT 51.735874 -112.963181 17,400 238 351 -2112
2021-10-16 00:27:58 GMT 51.741837 -112.947845 17,650 238 352 -2112
2021-10-16 00:27:53 GMT 51.744873 -112.940048 17,775 238 352 -2176
2021-10-16 00:27:46 GMT 51.752060 -112.921486 18,075 238 354 -2112
2021-10-16 00:27:43 GMT 51.753571 -112.917625 18,125 239 354 -2112
2021-10-16 00:27:35 GMT 51.760803 -112.898926 18,425 238 355 -2176
2021-10-16 00:27:32 GMT 51.762924 -112.893524 18,525 238 356 -2176
2021-10-16 00:27:25 GMT 51.770508 -112.873978 18,825 239 357 -2176
2021-10-16 00:27:22 GMT 51.771767 -112.870636 18,875 239 357 -2176
2021-10-16 00:27:16 GMT 51.777878 -112.854904 19,125 239 359 -2176
2021-10-16 00:27:12 GMT 51.780846 -112.847214 19,250 239 360 -2176
2021-10-16 00:27:04 GMT 51.788315 -112.827805 19,575 239 361 -2176
2021-10-16 00:27:01 GMT 51.789970 -112.823486 19,625 239 362 -2176
2021-10-16 00:26:54 GMT 51.797424 -112.804131 19,950 239 363 -2240
2021-10-16 00:26:51 GMT 51.799328 -112.799225 20,250 239 364 -2240
2021-10-16 00:26:42 GMT 51.807816 -112.777252 20,400 239 365 -2176
2021-10-16 00:26:39 GMT 51.809555 -112.772652 20,500 239 366 -2240
2021-10-16 00:26:34 GMT 51.815620 -112.756882 20,700 239 367 -2240
2021-10-16 00:26:30 GMT 51.817574 -112.751923 20,800 239 367 -2240
2021-10-16 00:26:20 GMT 51.828094 -112.724533 21,225 239 370 -2304
2021-10-16 00:26:12 GMT 51.834457 -112.707924 21,500 239 371 -2240
2021-10-16 00:26:09 GMT 51.837219 -112.700653 21,600 239 372 -2240
2021-10-16 00:26:02 GMT 51.844158 -112.682571 21,950 239 374 -2304
2021-10-16 00:25:59 GMT 51.845993 -112.677711 22,050 239 374 -2304
2021-10-16 00:25:51 GMT 51.853409 -112.658340 22,300 239 376 -2304
2021-10-16 00:25:48 GMT 51.855194 -112.653664 22,375 239 377 -2368
2021-10-16 00:25:43 GMT 51.860733 -112.639114 22,600 239 377 -2368
2021-10-16 00:25:38 GMT 51.866043 -112.625305 22,825 239 379 -2304
2021-10-16 00:25:30 GMT 51.872692 -112.607880 23,100 239 380 -2304
2021-10-16 00:25:27 GMT 51.874832 -112.602310 23,200 239 381 -2304
2021-10-16 00:25:17 GMT 51.883896 -112.578613 23,575 239 383 -2304
2021-10-16 00:25:09 GMT 51.892914 -112.555077 23,950 239 386 -2368
2021-10-16 00:25:06 GMT 51.895039 -112.549599 24,050 239 386 -2432
2021-10-16 00:24:59 GMT 51.901649 -112.532486 24,325 239 387 -2432
2021-10-16 00:24:56 GMT 51.904770 -112.524330 24,450 239 388 -2432
2021-10-16 00:24:48 GMT 51.912727 -112.503609 24,800 239 389 -2432
2021-10-16 00:24:44 GMT 51.915150 -112.497330 24,900 239 391 -2304
2021-10-16 00:24:37 GMT 51.922623 -112.477875 25,175 239 392 -2240
2021-10-16 00:24:34 GMT 51.925995 -112.469078 25,300 239 393 -2240
2021-10-16 00:24:26 GMT 51.939262 -112.434082 25,800 239 397 -2176
2021-10-16 00:24:16 GMT 51.942707 -112.425133 25,975 239 398 -2112
2021-10-16 00:24:12 GMT 51.946472 -112.415161 26,075 239 400 -2112
2021-10-16 00:24:06 GMT 51.953201 -112.397156 26,300 239 400 -2112
2021-10-16 00:24:03 GMT 51.963135 -112.370453 26,450 240 400 -2112
2021-10-16 00:23:54 GMT 51.963135 -112.370453 26,700 239 400 -2240
2021-10-16 00:23:45 GMT 51.972748 -112.345505 27,100 236 398 -1920
2021-10-16 00:23:34 GMT 51.984932 -112.318489 27,325 231 399 -1344
2021-10-16 00:23:31 GMT 51.987213 -112.313995 27,350 230 400 -2112
2021-10-16 00:23:23 GMT 51.996475 -112.296440 27,625 230 401 -2112
2021-10-16 00:23:14 GMT 52.008720 -112.273209 27,975 230 404 -2112
2021-10-16 00:23:10 GMT 52.012436 -112.266159 28,075 230 405 -2176
2021-10-16 00:23:02 GMT 52.021984 -112.248177 28,350 230 406 -2176
2021-10-16 00:22:55 GMT 52.032272 -112.228638 28,675 230 408 -2176
2021-10-16 00:22:51 GMT 52.035507 -112.222443 28,750 230 408 -2176
2021-10-16 00:22:48 GMT 52.047134 -112.200394 28,925 230 414 -2176
2021-10-16 00:22:42 GMT 52.047134 -112.200394 29,100 230 410 -2176
2021-10-16 00:22:31 GMT 52.060684 -112.174606 29,500 230 412 -2176
2021-10-16 00:22:23 GMT 52.070911 -112.155106 29,925 230 414 -2240
2021-10-16 00:22:20 GMT 52.074280 -112.148819 29,925 230 414 -2240
2021-10-16 00:22:13 GMT 52.083710 -112.130966 30,200 230 416 -2240
2021-10-16 00:22:10 GMT 52.086647 -112.125366 30,275 230 417 -2240
2021-10-16 00:22:00 GMT 52.099915 -112.100098 30,675 230 418 -2240
2021-10-16 00:21:52 GMT 52.109409 -112.081970 30,950 230 419 -2176
2021-10-16 00:21:49 GMT 52.112686 -112.075729 31,050 230 420 -2176
2021-10-16 00:21:40 GMT 52.124866 -112.052467 31,400 230 423 -2048
2021-10-16 00:21:32 GMT 52.135433 -112.032219 31,700 230 424 -2752
2021-10-16 00:21:29 GMT 52.138412 -112.026566 31,825 230 424 -2816
2021-10-16 00:21:21 GMT 52.148575 -112.006989 32,200 230 424 -2880
2021-10-16 00:21:18 GMT 52.152100 -112.000359 32,350 230 424 -2880
2021-10-16 00:21:12 GMT 52.160568 -111.984024 32,675 230 423 -2944
2021-10-16 00:21:08 GMT 52.165192 -111.975098 32,850 230 423 -2752
2021-10-16 00:21:02 GMT 52.171829 -111.962433 33,175 230 424 -2496
2021-10-16 00:20:58 GMT 52.178123 -111.950447 33,275 230 424 -2624
2021-10-16 00:20:52 GMT 52.185989 -111.935379 33,550 230 424 -2880
2021-10-16 00:20:48 GMT 52.191574 -111.924629 33,775 230 424 -2880
2021-10-16 00:20:40 GMT 52.201492 -111.905670 34,125 230 424 -2752
2021-10-16 00:20:34 GMT 52.208588 -111.892014 34,400 230 424 -3328
2021-10-16 00:20:28 GMT 52.215923 -111.877937 34,725 230 424 -3520
2021-10-16 00:20:25 GMT 52.219833 -111.870407 34,925 230 424 -3840
2021-10-16 00:20:22 GMT 52.222580 -111.865067 35,050 230 423 -3904
2021-10-16 00:20:19 GMT 52.227512 -111.855576 35,325 230 425 -3072
2021-10-16 00:20:15 GMT 52.231476 -111.847992 35,425 230 427 -2816
2021-10-16 00:20:06 GMT 52.244431 -111.822968 35,800 230 434 -2560
2021-10-16 00:19:58 GMT 52.254234 -111.804253 36,125 230 434 -2688
2021-10-16 00:19:54 GMT 52.258987 -111.795044 37,150 230 433 -960
2021-10-16 00:19:47 GMT 52.267548 -111.778488 36,525 230 437 -2048
2021-10-16 00:19:44 GMT 52.272949 -111.768074 36,650 230 437 -1856
2021-10-16 00:19:38 GMT 52.279839 -111.754738 36,825 231 436 -1536
2021-10-16 00:19:34 GMT 52.284897 -111.744919 36,950 231 436 -1344
2021-10-16 00:19:30 GMT 52.292084 -111.730957 37,050 230 433 -960
2021-10-16 00:19:24 GMT 52.298645 -111.718086 37,125 231 434 -960
2021-10-16 00:19:13 GMT 52.312611 -111.691017 37,325 230 431 -960
2021-10-16 00:19:08 GMT 52.320248 -111.676186 37,400 230 430 -1024
2021-10-16 00:19:05 GMT 52.323040 -111.670769 37,450 230 430 -1024
2021-10-16 00:19:02 GMT 52.326859 -111.663315 37,500 230 430 -1024
2021-10-16 00:18:56 GMT 52.333603 -111.650238 37,650 230 431 -960
2021-10-16 00:18:51 GMT 52.339783 -111.638184 37,650 230 431 -960
2021-10-16 00:18:46 GMT 52.347977 -111.622314 37,750 230 432 -960
2021-10-16 00:18:42 GMT 52.360420 -111.598259 37,875 230 434 -1024
2021-10-16 00:18:36 GMT 52.360420 -111.598259 37,925 230 435 0
2021-10-16 00:18:32 GMT 52.365509 -111.588440 37,975 230 435 -512
2021-10-16 00:18:29 GMT 52.370178 -111.579285 38,000 231 434 0
2021-10-16 00:18:24 GMT 52.375214 -111.569595 38,000 231 435 64
2021-10-16 00:18:21 GMT 52.379974 -111.560280 38,000 231 435 0
2021-10-16 00:18:18 GMT 52.381973 -111.556351 38,000 231 435 0
2021-10-16 00:18:15 GMT 52.388027 -111.544502 38,000 231 435 -64
2021-10-16 00:18:12 GMT 52.390724 -111.539246 38,000 231 435 -64
2021-10-16 00:18:09 GMT 52.394989 -111.530914 38,000 231 435 -64
2021-10-16 00:18:04 GMT 52.406693 -111.508095 38,000 230 436 64
2021-10-16 00:18:00 GMT 52.406693 -111.508095 38,000 230 436 64
2021-10-16 00:17:57 GMT 52.410645 -111.500397 38,000 231 436 0
2021-10-16 00:17:53 GMT 52.415771 -111.490402 38,000 231 436 0
2021-10-16 00:17:48 GMT 52.422867 -111.476517 38,000 231 438 -128
2021-10-16 00:17:43 GMT 52.428478 -111.465561 38,000 231 438 -64
2021-10-16 00:17:39 GMT 52.434578 -111.453629 38,000 231 438 64
2021-10-16 00:17:36 GMT 52.436508 -111.449814 38,000 231 438 64
2021-10-16 00:17:33 GMT 52.442047 -111.438980 38,000 231 438 64
2021-10-16 00:17:25 GMT 52.451290 -111.420830 38,000 231 439 0
2021-10-16 00:17:20 GMT 52.457764 -111.408195 38,000 231 439 0
2021-10-16 00:17:17 GMT 52.463058 -111.397781 38,000 231 439 0
2021-10-16 00:17:13 GMT 52.468094 -111.387939 38,000 231 439 0
2021-10-16 00:17:08 GMT 52.473679 -111.376953 38,000 231 439 0
2021-10-16 00:17:05 GMT 52.477173 -111.370056 38,000 231 439 0
2021-10-16 00:17:02 GMT 52.481918 -111.360779 38,000 231 438 -64
2021-10-16 00:16:57 GMT 52.488300 -111.348244 38,000 231 439 -64
2021-10-16 00:16:54 GMT 52.491577 -111.341705 38,000 231 439 -64
2021-10-16 00:16:51 GMT 52.496819 -111.331367 38,000 231 438 -64
2021-10-16 00:16:47 GMT 52.501472 -111.322266 38,000 231 438 -64
2021-10-16 00:16:44 GMT 52.504669 -111.315918 38,000 231 438 0
2021-10-16 00:16:39 GMT 52.510895 -111.303711 38,000 231 438 64
2021-10-16 00:16:36 GMT 52.519043 -111.287613 38,000 231 438 0
2021-10-16 00:16:33 GMT 52.519043 -111.287613 38,000 231 438 0
2021-10-16 00:16:30 GMT 52.528061 -111.269913 38,000 231 438 -64
2021-10-16 00:16:27 GMT 52.528061 -111.269913 38,000 231 438 0
2021-10-16 00:16:23 GMT 52.533188 -111.259766 38,000 231 438 64
2021-10-16 00:16:18 GMT 52.537766 -111.250763 38,000 231 438 0
2021-10-16 00:16:13 GMT 52.545280 -111.235863 38,000 231 438 -64
2021-10-16 00:16:09 GMT 52.551819 -111.222992 38,000 231 438 0
2021-10-16 00:16:06 GMT 52.555710 -111.215309 38,000 231 438 64
2021-10-16 00:16:02 GMT 52.558548 -111.209656 38,000 231 438 0
2021-10-16 00:15:55 GMT 52.568665 -111.189651 38,000 231 437 64
2021-10-16 00:15:52 GMT 52.572701 -111.181641 38,000 231 437 64
2021-10-16 00:15:48 GMT 52.578369 -111.170425 38,000 231 437 0
2021-10-16 00:15:43 GMT 52.584011 -111.159279 38,000 231 437 0
2021-10-16 00:15:39 GMT 52.587799 -111.151733 38,000 231 436 0
2021-10-16 00:15:35 GMT 52.592995 -111.141380 38,000 231 436 0
2021-10-16 00:15:31 GMT 52.599792 -111.127884 38,000 231 436 0
2021-10-16 00:15:27 GMT 52.605515 -111.116562 38,000 231 436 64
2021-10-16 00:15:21 GMT 52.611801 -111.104027 38,000 231 435 0
2021-10-16 00:15:14 GMT 52.620758 -111.086273 38,000 231 434 -64
2021-10-16 00:15:11 GMT 52.625336 -111.077118 38,000 231 434 0
2021-10-16 00:15:05 GMT 52.633495 -111.060951 38,000 231 434 0
2021-10-16 00:15:02 GMT 52.635452 -111.057053 38,000 231 434 0
2021-10-16 00:14:59 GMT 52.639732 -111.048546 38,000 231 434 -64
2021-10-16 00:14:53 GMT 52.648441 -111.031204 38,000 231 434 -64
2021-10-16 00:14:50 GMT 52.650467 -111.027145 38,000 231 434 0
2021-10-16 00:14:46 GMT 52.657703 -111.012764 38,000 231 434 0
2021-10-16 00:14:42 GMT 52.662312 -111.003586 38,000 231 434 0
2021-10-16 00:14:39 GMT 52.666084 -110.996048 38,000 231 434 -64
2021-10-16 00:14:34 GMT 52.672165 -110.983963 38,000 231 434 0
2021-10-16 00:14:31 GMT 52.676044 -110.976273 38,000 231 434 0
2021-10-16 00:14:28 GMT 52.680038 -110.968246 38,000 231 435 -64
2021-10-16 00:14:21 GMT 52.688324 -110.951767 38,000 231 435 64
2021-10-16 00:14:17 GMT 52.692665 -110.943161 38,000 231 435 0
2021-10-16 00:14:11 GMT 52.701694 -110.925034 38,000 231 435 0
2021-10-16 00:14:08 GMT 52.705032 -110.918503 38,000 231 435 64
2021-10-16 00:14:03 GMT 52.712860 -110.902863 38,000 231 436 0
2021-10-16 00:13:59 GMT 52.718124 -110.892258 38,000 231 436 0
2021-10-16 00:13:55 GMT 52.721649 -110.885162 38,000 231 436 0
2021-10-16 00:13:52 GMT 52.725857 -110.876770 38,000 231 436 64
2021-10-16 00:13:47 GMT 52.732372 -110.863663 38,000 231 436 64
2021-10-16 00:13:42 GMT 52.739357 -110.849617 37,975 231 436 0
2021-10-16 00:13:37 GMT 52.746014 -110.836357 38,000 231 435 0
2021-10-16 00:13:31 GMT 52.752136 -110.823975 38,000 231 435 0
2021-10-16 00:13:28 GMT 52.755386 -110.817490 38,000 231 434 64
2021-10-16 00:13:25 GMT 52.760864 -110.806458 38,000 231 434 64
2021-10-16 00:13:21 GMT 52.766449 -110.795158 38,000 231 434 -128
2021-10-16 00:13:17 GMT 52.771011 -110.785973 38,000 231 433 0
2021-10-16 00:13:14 GMT 52.772919 -110.782127 38,000 231 433 0
2021-10-16 00:13:10 GMT 52.779251 -110.769341 38,000 231 432 64
2021-10-16 00:13:05 GMT 52.785538 -110.756706 38,000 231 432 -64
2021-10-16 00:12:58 GMT 52.794754 -110.738029 38,000 231 432 0
2021-10-16 00:12:54 GMT 52.799084 -110.729317 38,000 231 433 -64
2021-10-16 00:12:48 GMT 52.806564 -110.714188 38,000 231 433 0
2021-10-16 00:12:44 GMT 52.812954 -110.701378 38,000 231 434 128
2021-10-16 00:12:39 GMT 52.819473 -110.688324 38,000 231 434 0
2021-10-16 00:12:36 GMT 52.822723 -110.681763 38,000 231 435 0
2021-10-16 00:12:28 GMT 52.832645 -110.661751 38,000 231 436 0
2021-10-16 00:12:25 GMT 52.835766 -110.655472 38,000 231 437 0
2021-10-16 00:12:18 GMT 52.846054 -110.634598 38,000 231 437 0
2021-10-16 00:12:15 GMT 52.848755 -110.629105 38,000 231 438 -64
2021-10-16 00:12:12 GMT 52.852665 -110.621178 38,000 231 440 0
2021-10-16 00:12:04 GMT 52.861954 -110.602493 38,000 231 439 0
2021-10-16 00:11:59 GMT 52.870121 -110.586021 38,000 231 440 0
2021-10-16 00:11:55 GMT 52.874451 -110.577316 38,000 231 439 0
2021-10-16 00:11:50 GMT 52.880035 -110.566025 38,000 231 440 64
2021-10-16 00:11:45 GMT 52.888733 -110.548401 38,000 231 441 0
2021-10-16 00:11:40 GMT 52.893353 -110.539017 38,000 231 442 0
2021-10-16 00:11:36 GMT 52.900192 -110.525131 38,000 231 442 -64
2021-10-16 00:11:33 GMT 52.901688 -110.522079 38,000 231 442 0
2021-10-16 00:11:30 GMT 52.906219 -110.512848 38,000 231 442 64
2021-10-16 00:11:24 GMT 52.915604 -110.493660 38,000 231 442 0
2021-10-16 00:11:19 GMT 52.919888 -110.485031 38,000 231 442 0
2021-10-16 00:11:13 GMT 52.928638 -110.467140 38,000 231 442 0
2021-10-16 00:11:09 GMT 52.933151 -110.458031 38,000 231 442 0
2021-10-16 00:11:03 GMT 52.942612 -110.438690 38,000 231 441 0
2021-10-16 00:10:58 GMT 52.946747 -110.430252 38,000 231 440 0
2021-10-16 00:10:52 GMT 52.955246 -110.412979 38,000 231 440 -64
2021-10-16 00:10:49 GMT 52.960007 -110.403214 38,000 231 440 0
2021-10-16 00:10:41 GMT 52.969162 -110.384521 38,000 231 440 0
2021-10-16 00:10:38 GMT 52.973419 -110.375793 38,000 231 440 0
2021-10-16 00:10:31 GMT 52.981567 -110.359039 38,000 232 440 64
2021-10-16 00:10:28 GMT 52.986649 -110.348511 38,000 232 440 0
2021-10-16 00:10:21 GMT 52.995300 -110.330750 38,000 232 440 0
2021-10-16 00:10:16 GMT 53.000381 -110.320282 38,000 232 439 0
2021-10-16 00:10:10 GMT 53.009628 -110.301285 38,000 232 439 0
2021-10-16 00:10:07 GMT 53.013641 -110.293007 38,000 232 439 0
2021-10-16 00:10:03 GMT 53.017597 -110.284843 38,000 232 439 64
2021-10-16 00:09:59 GMT 53.022537 -110.274734 38,000 232 439 0
2021-10-16 00:09:56 GMT 53.026657 -110.266266 38,000 231 440 0
2021-10-16 00:09:50 GMT 53.034916 -110.249451 38,000 231 439 -64
2021-10-16 00:09:46 GMT 53.040550 -110.237915 38,000 231 439 0
2021-10-16 00:09:42 GMT 53.043823 -110.231171 38,000 231 439 0
2021-10-16 00:09:37 GMT 53.050373 -110.217827 38,000 231 440 0
2021-10-16 00:09:34 GMT 53.053940 -110.210495 38,000 231 440 -64
2021-10-16 00:09:28 GMT 53.063267 -110.191383 38,000 231 440 0
2021-10-16 00:09:25 GMT 53.067410 -110.182907 38,000 232 440 -64
2021-10-16 00:09:18 GMT 53.075500 -110.166245 38,000 232 440 0
2021-10-16 00:09:14 GMT 53.080444 -110.156097 38,000 232 440 0
2021-10-16 00:09:08 GMT 53.088089 -110.140305 38,000 232 441 64
2021-10-16 00:09:04 GMT 53.094177 -110.127792 38,000 232 442 0
2021-10-16 00:08:56 GMT 53.103722 -110.108047 38,000 232 443 0
2021-10-16 00:08:52 GMT 53.107681 -110.099876 38,000 232 443 0
2021-10-16 00:08:46 GMT 53.115452 -110.083817 38,000 232 443 0
2021-10-16 00:08:43 GMT 53.120773 -110.072807 38,000 232 443 -64
2021-10-16 00:08:37 GMT 53.129139 -110.055542 38,000 232 443 0
2021-10-16 00:08:29 GMT 53.137051 -110.039223 38,000 232 441 0
2021-10-16 00:08:26 GMT 53.142361 -110.028236 38,000 232 442 0
2021-10-16 00:08:22 GMT 53.147945 -110.016769 38,000 232 442 64
2021-10-16 00:08:19 GMT 53.150040 -110.012321 38,000 232 442 0
2021-10-16 00:08:15 GMT 53.156708 -109.998489 38,000 232 442 0
2021-10-16 00:08:09 GMT 53.163208 -109.984917 38,000 232 442 0
2021-10-16 00:08:05 GMT 53.174515 -109.961449 38,000 232 441 -64
2021-10-16 00:08:01 GMT 53.174515 -109.961449 38,000 232 441 0
2021-10-16 00:07:55 GMT 53.182800 -109.944191 38,000 232 441 0
2021-10-16 00:07:50 GMT 53.187790 -109.933907 38,000 232 441 0
2021-10-16 00:07:44 GMT 53.195568 -109.917648 38,000 232 441 0
2021-10-16 00:07:40 GMT 53.200874 -109.906738 38,000 232 441 0
2021-10-16 00:07:34 GMT 53.209213 -109.889336 38,000 232 441 0
2021-10-16 00:07:28 GMT 53.215073 -109.877098 38,000 232 442 0
2021-10-16 00:07:22 GMT 53.222946 -109.860695 38,000 232 442 0
2021-10-16 00:07:19 GMT 53.227478 -109.851196 38,000 232 442 64
2021-10-16 00:07:13 GMT 53.236038 -109.833305 38,000 232 442 0
2021-10-16 00:07:08 GMT 53.241142 -109.822571 38,000 232 442 -64
2021-10-16 00:07:05 GMT 53.244278 -109.816116 38,000 232 442 -64
2021-10-16 00:07:01 GMT 53.250046 -109.804115 38,000 232 441 -64
2021-10-16 00:06:58 GMT 53.254410 -109.794937 38,000 232 441 0
2021-10-16 00:06:52 GMT 53.262836 -109.777412 38,000 232 440 0
2021-10-16 00:06:45 GMT 53.270191 -109.762062 38,000 232 440 0
2021-10-16 00:06:41 GMT 53.275955 -109.749962 38,000 232 440 64
2021-10-16 00:06:35 GMT 53.283234 -109.734818 38,000 232 440 0
2021-10-16 00:06:31 GMT 53.289688 -109.721245 38,000 232 441 0
2021-10-16 00:06:26 GMT 53.294445 -109.711411 38,000 232 441 0
2021-10-16 00:06:23 GMT 53.297836 -109.704216 38,000 232 441 0
2021-10-16 00:06:20 GMT 53.302544 -109.694366 38,000 232 441 0
2021-10-16 00:06:14 GMT 53.309807 -109.679100 38,000 232 441 0
2021-10-16 00:06:10 GMT 53.316284 -109.665527 38,000 232 441 0
2021-10-16 00:06:03 GMT 53.322655 -109.652115 38,000 232 441 0
2021-10-16 00:05:59 GMT 53.329239 -109.638222 38,000 232 442 -64
2021-10-16 00:05:54 GMT 53.334900 -109.626266 38,000 232 442 -64
2021-10-16 00:05:49 GMT 53.342766 -109.609627 38,000 232 442 0
2021-10-16 00:05:44 GMT 53.347561 -109.599449 38,000 232 443 64
2021-10-16 00:05:38 GMT 53.355789 -109.582191 38,000 232 444 0
2021-10-16 00:05:33 GMT 53.361008 -109.571121 38,000 232 444 0
2021-10-16 00:05:28 GMT 53.368977 -109.554291 38,000 232 444 0
2021-10-16 00:05:24 GMT 53.374516 -109.542580 38,000 232 444 0
2021-10-16 00:05:16 GMT 53.382889 -109.524742 38,000 232 444 0
2021-10-16 00:05:13 GMT 53.387238 -109.515564 38,000 232 444 0
2021-10-16 00:05:07 GMT 53.396069 -109.496773 38,000 232 444 0
2021-10-16 00:05:03 GMT 53.400631 -109.487083 38,000 232 444 0
2021-10-16 00:04:55 GMT 53.409523 -109.468262 38,000 232 444 0
2021-10-16 00:04:51 GMT 53.414474 -109.457726 38,000 232 444 0
2021-10-16 00:04:46 GMT 53.422165 -109.441406 38,000 232 445 0
2021-10-16 00:04:42 GMT 53.427292 -109.430580 38,000 232 444 0
2021-10-16 00:04:34 GMT 53.436584 -109.410805 38,000 232 444 0
2021-10-16 00:04:30 GMT 53.440887 -109.401695 38,000 232 445 64
2021-10-16 00:04:25 GMT 53.449265 -109.383888 38,000 232 445 -64
2021-10-16 00:04:21 GMT 53.454071 -109.373680 38,000 232 445 64
2021-10-16 00:04:13 GMT 53.462593 -109.355484 38,000 232 444 0
2021-10-16 00:04:10 GMT 53.467155 -109.345795 38,000 232 444 0
2021-10-16 00:04:04 GMT 53.476418 -109.326080 38,000 232 444 0
2021-10-16 00:04:00 GMT 53.480839 -109.316551 38,000 232 444 0
2021-10-16 00:03:52 GMT 53.489319 -109.298424 38,000 232 445 0
2021-10-16 00:03:49 GMT 53.493919 -109.288757 38,000 232 445 0
2021-10-16 00:03:43 GMT 53.502766 -109.269859 38,000 232 445 0
2021-10-16 00:03:39 GMT 53.507126 -109.260521 38,000 232 445 0
2021-10-16 00:03:34 GMT 53.514217 -109.245384 38,000 232 445 0
2021-10-16 00:03:31 GMT 53.516464 -109.240593 38,000 232 445 0
2021-10-16 00:03:28 GMT 53.520309 -109.232353 38,000 232 446 0
2021-10-16 00:03:21 GMT 53.530373 -109.210884 38,000 232 446 0
2021-10-16 00:03:18 GMT 53.533630 -109.203941 38,000 232 447 0
2021-10-16 00:03:10 GMT 53.543655 -109.182518 38,000 232 447 0
2021-10-16 00:03:07 GMT 53.547085 -109.175102 38,000 232 447 0
2021-10-16 00:03:01 GMT 53.556473 -109.155052 38,000 232 447 0
2021-10-16 00:02:57 GMT 53.560547 -109.146347 38,000 233 447 0
2021-10-16 00:02:49 GMT 53.569477 -109.127113 38,000 233 447 -64
2021-10-16 00:02:46 GMT 53.573853 -109.117668 38,000 232 448 -64
2021-10-16 00:02:40 GMT 53.583023 -109.097923 38,000 232 447 0
2021-10-16 00:02:36 GMT 53.586979 -109.089394 38,000 232 447 -64
2021-10-16 00:02:28 GMT 53.596756 -109.068466 38,000 233 446 0
2021-10-16 00:02:24 GMT 53.600967 -109.059395 38,000 233 446 0
2021-10-16 00:02:19 GMT 53.609802 -109.040405 38,000 233 446 0
2021-10-16 00:02:15 GMT 53.613739 -109.031929 38,000 233 446 0
2021-10-16 00:02:07 GMT 53.622849 -109.012230 38,000 233 446 0
2021-10-16 00:02:04 GMT 53.627289 -109.002739 38,000 233 446 0
2021-10-16 00:01:54 GMT 53.640518 -108.974251 38,000 233 446 0
2021-10-16 00:01:46 GMT 53.649685 -108.954483 38,000 233 446 0
2021-10-16 00:01:43 GMT 53.653839 -108.945450 38,000 233 446 0
2021-10-16 00:01:36 GMT 53.662628 -108.926460 38,000 233 446 0
2021-10-16 00:01:33 GMT 53.667374 -108.916115 38,000 233 446 0
2021-10-16 00:01:26 GMT 53.675987 -108.897453 38,000 233 446 0
2021-10-16 00:01:22 GMT 53.680271 -108.888084 38,000 233 446 64
2021-10-16 00:01:15 GMT 53.689396 -108.868294 38,000 233 446 0
2021-10-16 00:01:12 GMT 53.693161 -108.860069 38,000 233 446 0
2021-10-16 00:01:05 GMT 53.702614 -108.839531 38,000 233 446 0
2021-10-16 00:01:01 GMT 53.706390 -108.831276 38,000 233 446 0
2021-10-16 00:00:54 GMT 53.716301 -108.809723 38,000 233 446 0
2021-10-16 00:00:50 GMT 53.720032 -108.801529 38,000 233 445 0
2021-10-16 00:00:44 GMT 53.728775 -108.782616 38,000 233 445 0
2021-10-16 00:00:40 GMT 53.733154 -108.773048 38,000 233 445 0
2021-10-16 00:00:30 GMT 53.746002 -108.745018 38,000 233 445 0
2021-10-16 00:00:23 GMT 53.755463 -108.724472 38,000 233 445 0
2021-10-16 00:00:20 GMT 53.759594 -108.715454 38,000 233 444 -64
2021-10-16 00:00:11 GMT 53.769608 -108.693550 38,000 233 444 0
2021-10-16 00:00:08 GMT 53.772957 -108.686287 38,000 233 444 0
2021-10-16 00:00:02 GMT 53.781845 -108.666740 38,000 233 445 0
2021-10-15 23:59:59 GMT 53.785851 -108.658012 38,000 233 445 0
2021-10-15 23:59:51 GMT 53.794693 -108.638618 38,000 233 445 0
2021-10-15 23:59:47 GMT 53.799042 -108.629128 38,000 233 445 64
2021-10-15 23:59:41 GMT 53.808334 -108.608719 38,000 233 447 -64
2021-10-15 23:59:38 GMT 53.812042 -108.600639 38,000 233 447 0
2021-10-15 23:59:30 GMT 53.821472 -108.579918 38,000 233 447 0
2021-10-15 23:59:26 GMT 53.825279 -108.571579 38,000 233 447 0
2021-10-15 23:59:20 GMT 53.834728 -108.550903 38,000 233 448 -64
2021-10-15 23:59:17 GMT 53.838593 -108.542419 38,000 233 448 0
2021-10-15 23:59:08 GMT 53.848892 -108.519814 38,000 233 449 -64
2021-10-15 23:59:05 GMT 53.852047 -108.512848 38,000 233 449 -64
2021-10-15 23:58:59 GMT 53.861450 -108.492088 38,000 233 449 0
2021-10-15 23:58:56 GMT 53.864895 -108.484581 38,000 233 450 64
2021-10-15 23:58:45 GMT 53.878189 -108.455223 38,000 233 450 -64
2021-10-15 23:58:38 GMT 53.888779 -108.431908 38,000 233 451 0
2021-10-15 23:58:35 GMT 53.891464 -108.425880 38,000 233 451 0
2021-10-15 23:58:24 GMT 53.904743 -108.396690 38,000 233 451 -64
2021-10-15 23:58:17 GMT 53.914707 -108.374634 38,000 233 450 0
2021-10-15 23:58:14 GMT 53.917969 -108.367493 38,000 233 450 0
2021-10-15 23:58:03 GMT 53.931290 -108.337990 38,000 233 449 0
2021-10-15 23:57:56 GMT 53.940948 -108.316483 38,000 233 448 0
2021-10-15 23:57:53 GMT 53.944641 -108.308395 38,000 233 448 0
2021-10-15 23:57:42 GMT 53.957443 -108.279877 38,000 233 447 0
2021-10-15 23:57:35 GMT 53.967777 -108.256775 38,000 233 446 0
2021-10-15 23:57:32 GMT 53.970757 -108.250153 38,000 233 447 0
2021-10-15 23:57:24 GMT 53.980438 -108.228577 38,000 233 447 0
2021-10-15 23:57:21 GMT 53.983566 -108.221611 38,000 233 447 -64
2021-10-15 23:57:14 GMT 53.993706 -108.198936 38,000 233 446 0
2021-10-15 23:57:11 GMT 53.996750 -108.192184 38,000 233 446 64
2021-10-15 23:57:02 GMT 54.007530 -108.167992 38,000 233 446 -64
2021-10-15 23:56:59 GMT 54.010281 -108.161934 38,000 233 446 -64
2021-10-15 23:56:53 GMT 54.019638 -108.140938 38,000 233 446 64
2021-10-15 23:56:50 GMT 54.023300 -108.132698 38,000 233 446 0
2021-10-15 23:56:41 GMT 54.033089 -108.110878 38,000 233 445 0
2021-10-15 23:56:38 GMT 54.036301 -108.103615 38,000 233 445 64
2021-10-15 23:56:32 GMT 54.045868 -108.082085 38,000 233 445 0
2021-10-15 23:56:28 GMT 54.049530 -108.073921 38,000 233 445 0
2021-10-15 23:56:21 GMT 54.058739 -108.053284 38,000 233 445 0
2021-10-15 23:56:17 GMT 54.062603 -108.044640 38,000 233 445 0
2021-10-15 23:56:11 GMT 54.072144 -108.023308 38,000 233 444 0
2021-10-15 23:56:08 GMT 54.075268 -108.016205 38,000 233 444 64
2021-10-15 23:56:00 GMT 54.084808 -107.994637 38,000 233 444 0
2021-10-15 23:55:56 GMT 54.088394 -107.986557 38,000 233 444 -64
2021-10-15 23:55:50 GMT 54.098190 -107.964455 38,000 233 445 64
2021-10-15 23:55:47 GMT 54.101521 -107.956993 38,000 233 445 -64
2021-10-15 23:55:38 GMT 54.111252 -107.935097 38,000 234 445 64
2021-10-15 23:55:35 GMT 54.114742 -107.927185 38,000 234 445 128
2021-10-15 23:55:29 GMT 54.123962 -107.906380 38,000 234 445 -64
2021-10-15 23:55:26 GMT 54.127079 -107.899391 38,000 233 446 0
2021-10-15 23:55:15 GMT 54.140114 -107.869987 38,000 234 447 0
2021-10-15 23:55:05 GMT 54.153397 -107.839989 38,000 234 447 0
2021-10-15 23:54:54 GMT 54.166306 -107.810722 38,000 233 448 0
2021-10-15 23:54:47 GMT 54.176189 -107.788399 37,975 234 449 64
2021-10-15 23:54:44 GMT 54.179352 -107.781212 37,975 234 449 0
2021-10-15 23:54:35 GMT 54.189598 -107.757942 38,000 234 450 0
2021-10-15 23:54:32 GMT 54.192577 -107.751160 38,000 234 450 0
2021-10-15 23:54:23 GMT 54.205658 -107.721436 38,000 234 450 0
2021-10-15 23:54:14 GMT 54.215622 -107.698814 38,000 234 449 -64
2021-10-15 23:54:11 GMT 54.218948 -107.691284 38,000 234 449 -64
2021-10-15 23:54:02 GMT 54.232285 -107.660927 38,000 234 448 -64
2021-10-15 23:53:51 GMT 54.244720 -107.632668 38,000 234 448 64
2021-10-15 23:53:41 GMT 54.257519 -107.603333 37,975 234 448 128
2021-10-15 23:53:30 GMT 54.270355 -107.573807 38,000 234 449 0
2021-10-15 23:53:20 GMT 54.283630 -107.543472 38,000 234 449 0
2021-10-15 23:53:12 GMT 54.294250 -107.519157 38,025 234 448 0
2021-10-15 23:53:09 GMT 54.296528 -107.513870 38,000 234 448 0
2021-10-15 23:52:59 GMT 54.309723 -107.483688 38,000 234 450 0
2021-10-15 23:52:51 GMT 54.320068 -107.459862 38,000 234 451 0
2021-10-15 23:52:48 GMT 54.322769 -107.453644 38,000 234 451 0
2021-10-15 23:52:38 GMT 54.335865 -107.423569 38,000 234 453 0
2021-10-15 23:52:30 GMT 54.346107 -107.400101 38,000 234 455 64
2021-10-15 23:52:27 GMT 54.348480 -107.394684 38,000 234 455 128
2021-10-15 23:52:19 GMT 54.359280 -107.369881 37,975 234 457 64
2021-10-15 23:52:16 GMT 54.361839 -107.363976 37,975 234 458 128
2021-10-15 23:52:06 GMT 54.374969 -107.333679 38,000 234 458 -64
2021-10-15 23:51:56 GMT 54.388283 -107.302963 38,000 234 458 -128
2021-10-15 23:51:48 GMT 54.399734 -107.276497 38,025 234 459 0
2021-10-15 23:51:45 GMT 54.401688 -107.271965 38,025 234 459 0
2021-10-15 23:51:37 GMT 54.412582 -107.246872 38,000 234 460 -64
2021-10-15 23:51:34 GMT 54.415192 -107.240959 38,000 234 461 -128
2021-10-15 23:51:24 GMT 54.428101 -107.210976 38,000 234 461 -64
2021-10-15 23:51:14 GMT 54.441376 -107.180191 38,000 234 461 0
2021-10-15 23:51:06 GMT 54.451675 -107.156281 38,000 234 461 -64
2021-10-15 23:51:03 GMT 54.454697 -107.149254 38,000 234 462 0
2021-10-15 23:50:55 GMT 54.465637 -107.123886 38,000 234 462 128
2021-10-15 23:50:52 GMT 54.468075 -107.118195 37,975 234 462 128
2021-10-15 23:50:42 GMT 54.481018 -107.088104 38,000 234 462 64
2021-10-15 23:50:31 GMT 54.494793 -107.055855 37,975 234 461 0
2021-10-15 23:50:22 GMT 54.507690 -107.025566 38,000 234 460 64
2021-10-15 23:50:13 GMT 54.518417 -107.000458 38,000 234 458 -64
2021-10-15 23:50:10 GMT 54.520863 -106.994766 38,000 234 457 -64
2021-10-15 23:50:01 GMT 54.533981 -106.964020 38,000 234 456 0
2021-10-15 23:49:49 GMT 54.547073 -106.933243 38,000 234 456 0
2021-10-15 23:49:40 GMT 54.560108 -106.902718 38,000 234 457 0
2021-10-15 23:49:28 GMT 54.573349 -106.871605 38,000 234 459 64
2021-10-15 23:49:19 GMT 54.586121 -106.841637 38,000 234 459 0
2021-10-15 23:49:10 GMT 54.596924 -106.816109 38,000 234 460 -64
2021-10-15 23:49:07 GMT 54.599815 -106.809334 38,000 234 460 0
2021-10-15 23:48:58 GMT 54.612579 -106.779274 38,000 234 460 -64
2021-10-15 23:48:46 GMT 54.625809 -106.748009 38,000 234 461 -64
2021-10-15 23:48:37 GMT 54.638672 -106.717560 38,000 234 463 64
2021-10-15 23:48:25 GMT 54.652233 -106.685486 38,000 234 463 64
2021-10-15 23:48:16 GMT 54.665451 -106.654221 38,000 235 464 0
2021-10-15 23:48:05 GMT 54.678223 -106.623848 38,000 235 464 64
2021-10-15 23:47:55 GMT 54.691498 -106.592346 38,000 235 464 64
2021-10-15 23:47:44 GMT 54.704773 -106.560760 38,000 235 464 0
2021-10-15 23:47:34 GMT 54.717781 -106.529678 38,000 235 464 -64
2021-10-15 23:47:23 GMT 54.731369 -106.497261 38,000 235 464 0
2021-10-15 23:47:13 GMT 54.744362 -106.466171 38,000 235 464 128
2021-10-15 23:47:02 GMT 54.757584 -106.434547 38,000 234 465 64
2021-10-15 23:46:52 GMT 54.770756 -106.403084 38,000 235 464 0
2021-10-15 23:46:43 GMT 54.782181 -106.375771 38,000 235 464 0
2021-10-15 23:46:39 GMT 54.785515 -106.367714 38,000 235 464 0
2021-10-15 23:46:31 GMT 54.796825 -106.340584 38,000 235 463 0
2021-10-15 23:46:20 GMT 54.810104 -106.308640 38,000 235 464 0
2021-10-15 23:46:10 GMT 54.823269 -106.276993 38,000 235 463 0
2021-10-15 23:46:00 GMT 54.834953 -106.248863 38,000 235 462 -64
2021-10-15 23:45:51 GMT 54.845566 -106.223312 38,000 235 463 0
2021-10-15 23:45:49 GMT 54.849197 -106.214607 38,000 235 463 64
2021-10-15 23:45:38 GMT 54.862244 -106.183105 38,000 235 464 -64
2021-10-15 23:45:30 GMT 54.873871 -106.154976 38,000 235 465 0
2021-10-15 23:45:26 GMT 54.878677 -106.143280 38,000 235 465 0
2021-10-15 23:45:17 GMT 54.888718 -106.118942 38,000 235 465 -64
2021-10-15 23:45:06 GMT 54.901707 -106.087479 38,000 235 465 0
2021-10-15 23:44:56 GMT 54.914932 -106.055305 38,000 235 466 0
2021-10-15 23:44:45 GMT 54.927917 -106.023727 38,000 235 466 0
2021-10-15 23:44:35 GMT 54.941025 -105.991890 38,000 235 466 64
2021-10-15 23:44:24 GMT 54.954407 -105.959137 38,000 235 466 0
2021-10-15 23:44:15 GMT 54.967529 -105.927109 38,000 235 464 0
2021-10-15 23:44:04 GMT 54.980026 -105.896492 38,000 235 464 0
2021-10-15 23:43:54 GMT 54.993229 -105.864006 38,000 235 463 0
2021-10-15 23:43:45 GMT 55.004745 -105.835823 38,000 235 463 0
2021-10-15 23:43:42 GMT 55.006119 -105.832428 38,000 235 462 0
2021-10-15 23:43:33 GMT 55.018890 -105.801003 38,000 235 461 0
2021-10-15 23:43:21 GMT 55.032799 -105.766876 38,000 235 461 0
2021-10-15 23:43:12 GMT 55.044903 -105.737167 38,000 235 461 0
2021-10-15 23:43:01 GMT 55.057800 -105.705444 38,000 235 461 -64
2021-10-15 23:42:51 GMT 55.070526 -105.674019 38,000 235 461 64
2021-10-15 23:42:39 GMT 55.083755 -105.641380 38,000 235 461 0
2021-10-15 23:42:30 GMT 55.096340 -105.610245 38,000 235 461 0
2021-10-15 23:42:19 GMT 55.109161 -105.578529 38,000 235 461 0
2021-10-15 23:42:09 GMT 55.122299 -105.545975 38,000 235 461 -64
2021-10-15 23:41:58 GMT 55.134705 -105.515198 38,000 235 461 0
2021-10-15 23:41:48 GMT 55.148529 -105.480820 38,000 235 461 0
2021-10-15 23:41:36 GMT 55.160934 -105.450012 38,000 235 461 0
2021-10-15 23:41:27 GMT 55.173248 -105.419312 38,000 236 462 0
2021-10-15 23:41:16 GMT 55.186466 -105.386353 38,000 236 462 0
2021-10-15 23:41:06 GMT 55.199158 -105.354607 38,000 236 463 0
2021-10-15 23:40:55 GMT 55.212070 -105.322266 38,000 236 463 0
2021-10-15 23:40:45 GMT 55.224976 -105.289978 38,000 236 463 0
2021-10-15 23:40:34 GMT 55.237747 -105.257912 38,000 236 463 0
2021-10-15 23:40:24 GMT 55.250851 -105.225052 38,000 236 463 -64
2021-10-15 23:40:13 GMT 55.263290 -105.193687 38,000 236 462 -64
2021-10-15 23:40:03 GMT 55.276154 -105.161453 38,000 236 461 128
2021-10-15 23:39:52 GMT 55.288929 -105.129425 38,000 236 461 -64
2021-10-15 23:39:42 GMT 55.301498 -105.097710 37,975 236 461 64
2021-10-15 23:39:30 GMT 55.314720 -105.064339 38,000 236 461 128
2021-10-15 23:38:48 GMT 55.366669 -104.949997 38,000 235 460
2021-10-15 23:37:48 GMT 55.433334 -104.766670 38,000 236 460
2021-10-15 23:36:48 GMT 55.500000 -104.566666 38,000 235 460
2021-10-15 23:35:48 GMT 55.583332 -104.400002 38,000 236 460
2021-10-15 23:34:48 GMT 55.650002 -104.199997 38,000 243 460
2021-10-15 23:33:48 GMT 55.716667 -104.016670 38,000 235 470
2021-10-15 23:32:48 GMT 55.799999 -103.816666 38,000 238 470
2021-10-15 23:32:17 GMT 55.816666 -103.599998 38,000 238 470
2021-10-15 23:30:48 GMT 55.933334 -103.449997 38,000 237 470
2021-10-15 23:29:48 GMT 56.000000 -103.250000 38,000 237 470
2021-10-15 23:29:17 GMT 56.016666 -103.016670 38,000 228 470
2021-10-15 23:27:48 GMT 56.150002 -102.849998 38,000 237 470
2021-10-15 23:26:48 GMT 56.216667 -102.650002 38,000 237 480
2021-10-15 23:25:48 GMT 56.283333 -102.483330 38,000 238 470
2021-10-15 23:24:47 GMT 56.366669 -102.250000 38,000 238 470
2021-10-15 23:23:48 GMT 56.416668 -102.083336 38,000 237 470
2021-10-15 23:22:48 GMT 56.500000 -101.849998 38,000 238 470
2021-10-15 23:21:48 GMT 56.566666 -101.666664 38,000 237 470
2021-10-15 23:20:48 GMT 56.633331 -101.466667 38,000 237 470
2021-10-15 23:19:48 GMT 56.700001 -101.266670 38,000 240 470
2021-10-15 23:18:47 GMT 56.783333 -101.050003 38,000 239 470
2021-10-15 23:17:48 GMT 56.849998 -100.849998 38,000 240 470
2021-10-15 23:16:48 GMT 56.900002 -100.633331 38,000 244 470
2021-10-15 23:15:48 GMT 56.983334 -100.433334 38,000 245 470
2021-10-15 23:14:48 GMT 57.049999 -100.216667 38,000 247 470
2021-10-15 23:13:16 GMT 57.133331 -99.766670 38,000 240 480
2021-10-15 23:12:16 GMT 57.200001 -99.566666 38,000 242 480
2021-10-15 23:11:17 GMT 57.250000 -99.349998 38,000 242 480
2021-10-15 23:10:17 GMT 57.316666 -99.166664 38,000 241 480
2021-10-15 23:09:17 GMT 57.383331 -98.933334 38,000 240 480
2021-10-15 23:08:17 GMT 57.433334 -98.716667 38,000 239 480
2021-10-15 23:07:16 GMT 57.516666 -98.483330 38,000 240 480
2021-10-15 23:06:16 GMT 57.583332 -98.283333 38,000 242 480
2021-10-15 23:05:17 GMT 57.650002 -98.050003 38,000 233 480
2021-10-15 23:04:17 GMT 57.716667 -97.833336 38,000 232 480
2021-10-15 23:03:17 GMT 57.766666 -97.633331 38,000 232 480
2021-10-15 23:01:47 GMT 57.900002 -97.433334 38,000 250 480
2021-10-15 23:00:48 GMT 57.966667 -97.216667 38,000 251 480
2021-10-15 22:59:48 GMT 58.016666 -97.016670 38,000 250 480
2021-10-15 22:58:17 GMT 58.083332 -96.500000 38,000 240 480
2021-10-15 22:57:17 GMT 58.133331 -96.316666 38,000 241 480
2021-10-15 22:56:16 GMT 58.200001 -96.066666 38,000 242 480
2021-10-15 22:55:16 GMT 58.283333 -95.849998 38,000 244 480
2021-10-15 22:54:17 GMT 58.333332 -95.616669 38,000 243 480
2021-10-15 22:53:17 GMT 58.383331 -95.400002 38,000 243 480
2021-10-15 22:52:17 GMT 58.450001 -95.183334 38,000 243 480
2021-10-15 22:51:16 GMT 58.516666 -94.933334 38,000 245 480
2021-10-15 22:50:16 GMT 58.566666 -94.699997 38,000 245 480
2021-10-15 22:49:16 GMT 58.633331 -94.483330 38,000 247 480
2021-10-15 22:48:17 GMT 58.683334 -94.250000 38,000 245 480
2021-10-15 22:47:17 GMT 58.733334 -94.016670 38,000 246 480
2021-10-15 22:46:16 GMT 58.783333 -93.800003 38,000 242 480
We lost coverage of the aircraft here for a total of 75 minutes
2021-10-15 21:31:16 GMT 62.116669 -74.516670 36,000 260 480
2021-10-15 21:30:15 GMT 62.133331 -74.250000 36,000 258 480
2021-10-15 21:29:15 GMT 62.166668 -73.949997 36,000 260 470
2021-10-15 21:28:15 GMT 62.183334 -73.666664 36,000 260 470
2021-10-15 21:27:15 GMT 62.216667 -73.416664 36,000 263 480
2021-10-15 21:26:16 GMT 62.233334 -73.116669 36,000 263 480
2021-10-15 21:25:16 GMT 62.250000 -72.833336 36,000 260 480
2021-10-15 21:24:15 GMT 62.266666 -72.533333 36,000 240 480
2021-10-15 21:23:15 GMT 62.283333 -72.283333 36,000 241 480
2021-10-15 21:22:15 GMT 62.316666 -72.000000 36,000 244 480
2021-10-15 21:20:54 GMT 62.433334 -71.900002 36,000 261 480
2021-10-15 21:19:53 GMT 62.450001 -71.616669 36,000 263 480
2021-10-15 21:18:53 GMT 62.466667 -71.316666 36,000 260 480
2021-10-15 21:17:53 GMT 62.500000 -71.016670 36,000 265 480
2021-10-15 21:16:53 GMT 62.500000 -70.733330 36,000 263 480
2021-10-15 21:15:54 GMT 62.533333 -70.466667 36,000 265 480
2021-10-15 21:14:53 GMT 62.533333 -70.183334 36,000 261 490
2021-10-15 21:13:53 GMT 62.549999 -69.883331 36,000 263 490
2021-10-15 21:12:53 GMT 62.566666 -69.583336 36,000 263 490
2021-10-15 21:11:53 GMT 62.599998 -69.300003 36,000 265 490
2021-10-15 21:10:53 GMT 62.599998 -69.000000 36,000 265 490
2021-10-15 21:09:54 GMT 62.616669 -68.733330 36,000 265 490
2021-10-15 21:08:53 GMT 62.633331 -68.416664 36,000 265 490
2021-10-15 21:07:53 GMT 62.633331 -68.150002 36,000 265 490
2021-10-15 21:06:53 GMT 62.650002 -67.849998 36,000 265 490
2021-10-15 21:05:53 GMT 62.666668 -67.550003 36,000 265 490
2021-10-15 21:04:53 GMT 62.666668 -67.266670 36,000 265 490
2021-10-15 21:03:53 GMT 62.683334 -66.966667 36,000 265 490
2021-10-15 21:02:53 GMT 62.700001 -66.666664 36,000 268 490
2021-10-15 21:01:53 GMT 62.700001 -66.366669 36,000 267 480
2021-10-15 21:00:53 GMT 62.716667 -66.066666 36,000 269 480
2021-10-15 20:58:52 GMT 62.716667 -65.483330 36,000 266 480
2021-10-15 20:57:53 GMT 62.733334 -65.183334 36,000 268 480
2021-10-15 20:55:53 GMT 62.733334 -64.633331 36,000 268 480
2021-10-15 20:54:53 GMT 62.750000 -64.333336 36,000 268 480
2021-10-15 20:53:53 GMT 62.750000 -63.983334 36,000 267 480
2021-10-15 20:52:52 GMT 62.750000 -63.733334 36,000 267 480
2021-10-15 20:51:53 GMT 62.766666 -63.433334 36,000 270 480
2021-10-15 20:50:40 GMT 62.766666 -63.266666 36,000 270 480
2021-10-15 20:49:40 GMT 62.766666 -62.966667 36,000 270 480
2021-10-15 20:48:40 GMT 62.766666 -62.666668 36,000 270 480
2021-10-15 20:47:40 GMT 62.766666 -62.400002 36,000 272 480
2021-10-15 20:46:39 GMT 62.766666 -62.099998 36,000 272 480
2021-10-15 20:45:39 GMT 62.766666 -61.799999 36,000 272 480
2021-10-15 20:44:53 GMT 62.750000 -61.383331 36,000 270 480
2021-10-15 20:43:40 GMT 62.750000 -61.200001 36,000 270 480
2021-10-15 20:42:40 GMT 62.750000 -60.900002 36,000 272 490
2021-10-15 20:41:39 GMT 62.750000 -60.633331 36,000 272 490
2021-10-15 20:40:39 GMT 62.750000 -60.333332 36,000 272 490
2021-10-15 20:39:53 GMT 62.733334 -59.916668 36,000 270 490
2021-10-15 20:38:53 GMT 62.733334 -59.616669 36,000 273 490
2021-10-15 20:37:40 GMT 62.733334 -59.433334 36,000 272 490
2021-10-15 20:36:40 GMT 62.733334 -59.183334 36,000 272 490
2021-10-15 20:35:39 GMT 62.716667 -58.849998 36,000 272 490
2021-10-15 20:34:39 GMT 62.716667 -58.549999 36,000 272 490
2021-10-15 20:33:39 GMT 62.716667 -58.283333 36,000 273 500
2021-10-15 20:32:53 GMT 62.700001 -57.833332 36,000 274 500
2021-10-15 20:31:40 GMT 62.700001 -57.683334 36,000 270 500
2021-10-15 20:29:39 GMT 62.683334 -57.083332 36,000 274 500
2021-10-15 20:28:53 GMT 62.666668 -56.650002 36,000 263 510
We lost coverage of the aircraft here for a total of 42 minutes
2021-10-15 19:46:38 GMT 62.616669 -44.816666 36,000 281 440
2021-10-15 19:45:39 GMT 62.583332 -44.516666 36,000 282 440
2021-10-15 19:43:39 GMT 62.533333 -43.983334 36,000 283 440
2021-10-15 19:42:39 GMT 62.516666 -43.716667 36,000 286 440
2021-10-15 19:41:38 GMT 62.483334 -43.466667 36,000 284 440
2021-10-15 19:39:39 GMT 62.416668 -42.933334 36,000 284 440
2021-10-15 19:38:39 GMT 62.383331 -42.683334 36,000 284 440
2021-10-15 19:36:38 GMT 62.333332 -42.183334 36,000 283 440
2021-10-15 19:35:38 GMT 62.299999 -41.933334 36,000 285 440
2021-10-15 19:34:38 GMT 62.266666 -41.650002 36,000 285 440
2021-10-15 19:33:39 GMT 62.250000 -41.400002 36,000 288 440
2021-10-15 19:32:39 GMT 62.200001 -41.150002 36,000 285 440
2021-10-15 19:31:39 GMT 62.166668 -40.866669 36,000 286 440
2021-10-15 19:30:38 GMT 62.133331 -40.633331 36,000 286 440
2021-10-15 19:29:38 GMT 62.099998 -40.383331 36,000 280 440
2021-10-15 19:28:38 GMT 62.066666 -40.133331 36,000 280 440
2021-10-15 19:27:39 GMT 62.033333 -39.883331 36,000 278 450
2021-10-15 19:25:38 GMT 62.016666 -39.366669 36,000 280 450
2021-10-15 19:24:38 GMT 61.983334 -39.083332 36,000 278 450
2021-10-15 19:23:38 GMT 61.966667 -38.833332 36,000 278 450
2021-10-15 19:22:38 GMT 61.950001 -38.583332 36,000 278 450
2021-10-15 19:21:39 GMT 61.933334 -38.299999 36,000 278 450
2021-10-15 19:20:38 GMT 61.916668 -38.049999 36,000 280 450
2021-10-15 19:19:38 GMT 61.900002 -37.816666 36,000 280 450
2021-10-15 19:18:38 GMT 61.883331 -37.533333 36,000 285 450
2021-10-15 19:17:38 GMT 61.849998 -37.283333 36,000 277 450
We lost coverage of the aircraft here for a total of 102 minutes
2021-10-15 17:35:36 GMT 58.156593 -13.304077 33,000 302 445 0
2021-10-15 17:35:31 GMT 58.150913 -13.286407 33,000 302 446 0
2021-10-15 17:35:19 GMT 58.138577 -13.248047 33,000 302 446 0
2021-10-15 17:34:47 GMT 58.103851 -13.140198 33,000 302 446 0
2021-10-15 17:34:24 GMT 58.078766 -13.062656 33,000 302 446 0
2021-10-15 17:34:17 GMT 58.071350 -13.039708 33,000 302 446 0
2021-10-15 17:34:06 GMT 58.059811 -13.004150 33,000 302 445 0
2021-10-15 17:33:57 GMT 58.049698 -12.973170 33,000 302 445 64
2021-10-15 17:33:47 GMT 58.039032 -12.940300 33,000 302 445 64
2021-10-15 17:33:29 GMT 58.019588 -12.880463 33,000 302 444 0
2021-10-15 17:33:27 GMT 58.017563 -12.874205 33,000 302 444 0
2021-10-15 17:33:16 GMT 58.005951 -12.838531 33,000 302 444 0
2021-10-15 17:33:07 GMT 57.995682 -12.807312 33,000 302 445 0
2021-10-15 17:32:56 GMT 57.985382 -12.775859 33,000 302 445 0
2021-10-15 17:32:46 GMT 57.974167 -12.741748 33,000 302 445 0
2021-10-15 17:32:36 GMT 57.963402 -12.709167 33,000 302 445 -64
2021-10-15 17:32:25 GMT 57.952057 -12.674767 33,000 302 447 0
2021-10-15 17:32:16 GMT 57.941616 -12.643158 33,000 302 448 0
2021-10-15 17:32:06 GMT 57.930771 -12.610178 33,000 302 447 0
2021-10-15 17:31:55 GMT 57.919189 -12.574916 33,000 302 447 64
2021-10-15 17:31:46 GMT 57.909073 -12.544172 33,000 302 448 0
2021-10-15 17:31:36 GMT 57.898087 -12.510858 33,000 302 447 0
2021-10-15 17:31:26 GMT 57.887009 -12.477356 33,000 302 447 -64
2021-10-15 17:31:16 GMT 57.876022 -12.444305 33,000 303 447 0
2021-10-15 17:31:06 GMT 57.865410 -12.412354 33,000 302 447 0
2021-10-15 17:30:56 GMT 57.854145 -12.378479 33,000 302 447 0
2021-10-15 17:30:46 GMT 57.843567 -12.346684 33,000 302 447 0
2021-10-15 17:30:36 GMT 57.832405 -12.313202 33,000 303 448 0
2021-10-15 17:30:26 GMT 57.821365 -12.280234 33,000 303 448 0
2021-10-15 17:30:16 GMT 57.810383 -12.247467 33,000 303 448 -64
2021-10-15 17:30:06 GMT 57.799351 -12.214600 33,000 303 448 0
2021-10-15 17:29:56 GMT 57.788498 -12.182332 33,000 303 448 0
2021-10-15 17:29:46 GMT 57.777603 -12.150082 33,000 303 448 0
2021-10-15 17:29:36 GMT 57.766479 -12.117211 33,000 303 448 0
2021-10-15 17:29:26 GMT 57.755219 -12.083898 33,000 303 448 0
2021-10-15 17:29:15 GMT 57.743675 -12.049805 33,000 303 448 0
2021-10-15 17:29:06 GMT 57.732971 -12.018157 33,000 303 449 0
2021-10-15 17:28:55 GMT 57.721657 -11.984666 33,000 303 449 0
2021-10-15 17:28:46 GMT 57.710632 -11.952267 33,000 303 449 0
2021-10-15 17:28:36 GMT 57.699463 -11.919394 33,000 303 450 0
2021-10-15 17:28:26 GMT 57.688370 -11.886764 33,000 303 451 0
2021-10-15 17:28:16 GMT 57.677261 -11.854162 33,000 303 451 0
2021-10-15 17:28:05 GMT 57.665451 -11.819572 33,000 303 451 0
2021-10-15 17:27:56 GMT 57.655041 -11.788950 33,000 303 450 0
2021-10-15 17:27:46 GMT 57.643681 -11.755725 33,000 303 450 0
2021-10-15 17:27:36 GMT 57.632812 -11.723957 33,000 303 450 0
2021-10-15 17:27:26 GMT 57.621197 -11.690073 33,000 303 450 0
2021-10-15 17:27:16 GMT 57.610107 -11.657867 33,000 303 450 64
2021-10-15 17:27:06 GMT 57.598850 -11.625041 33,000 303 448 0
2021-10-15 17:26:56 GMT 57.587631 -11.592525 33,000 303 448 0
2021-10-15 17:26:46 GMT 57.576279 -11.559591 33,000 303 447 0
2021-10-15 17:26:36 GMT 57.565239 -11.527493 33,000 303 447 0
2021-10-15 17:26:25 GMT 57.553802 -11.494360 33,000 303 447 -64
2021-10-15 17:26:16 GMT 57.542664 -11.462018 33,000 303 448 0
2021-10-15 17:26:06 GMT 57.531956 -11.431186 33,000 303 448 0
2021-10-15 17:25:56 GMT 57.520523 -11.398315 33,000 303 449 0
2021-10-15 17:25:46 GMT 57.509354 -11.366301 33,000 303 449 64
2021-10-15 17:25:34 GMT 57.495831 -11.327347 33,000 303 449 0
2021-10-15 17:25:26 GMT 57.486649 -11.301069 33,000 303 450 0
2021-10-15 17:25:16 GMT 57.475117 -11.267986 33,000 304 449 0
2021-10-15 17:25:05 GMT 57.463848 -11.235735 33,000 304 449 0
2021-10-15 17:24:55 GMT 57.452492 -11.203308 33,000 303 449 0
2021-10-15 17:24:45 GMT 57.441319 -11.171235 33,000 304 449 0
2021-10-15 17:24:35 GMT 57.430206 -11.139622 33,000 304 449 0
2021-10-15 17:24:25 GMT 57.418533 -11.106319 33,000 304 449 0
2021-10-15 17:24:14 GMT 57.407043 -11.073618 33,000 304 449 0
2021-10-15 17:24:05 GMT 57.396210 -11.043032 33,000 304 449 0
2021-10-15 17:23:55 GMT 57.384430 -11.009718 33,000 304 450 0
2021-10-15 17:23:45 GMT 57.373306 -10.978174 33,000 304 450 0
2021-10-15 17:23:34 GMT 57.361572 -10.944864 33,000 304 450 0
2021-10-15 17:23:25 GMT 57.350555 -10.913801 33,000 304 450 0
2021-10-15 17:23:15 GMT 57.339249 -10.882044 33,000 304 450 0
2021-10-15 17:23:05 GMT 57.327824 -10.849885 33,000 304 452 0
2021-10-15 17:22:55 GMT 57.315952 -10.816483 33,000 304 452 0
2021-10-15 17:22:45 GMT 57.304455 -10.784144 33,000 304 452 0
2021-10-15 17:22:35 GMT 57.293335 -10.752954 33,000 304 453 0
2021-10-15 17:22:25 GMT 57.281479 -10.719652 33,000 304 454 0
2021-10-15 17:22:15 GMT 57.270081 -10.687895 33,000 304 454 0
2021-10-15 17:22:05 GMT 57.258739 -10.656207 33,000 304 454 0
2021-10-15 17:21:55 GMT 57.247101 -10.623608 33,000 304 454 0
2021-10-15 17:21:45 GMT 57.235512 -10.591352 33,000 304 454 0
2021-10-15 17:21:35 GMT 57.223919 -10.559190 33,000 304 455 0
2021-10-15 17:21:25 GMT 57.212082 -10.526276 33,000 304 455 0
2021-10-15 17:21:15 GMT 57.200226 -10.493231 33,000 304 455 0
2021-10-15 17:21:05 GMT 57.188911 -10.461997 33,000 304 455 0
2021-10-15 17:20:55 GMT 57.177292 -10.429802 33,000 304 456 0
2021-10-15 17:20:45 GMT 57.165218 -10.396433 33,000 304 457 0
2021-10-15 17:20:35 GMT 57.153671 -10.364656 33,000 304 456 0
2021-10-15 17:20:25 GMT 57.142181 -10.333157 33,000 304 456 0
2021-10-15 17:20:15 GMT 57.130142 -10.300112 33,000 304 456 0
2021-10-15 17:20:05 GMT 57.118526 -10.268318 33,000 304 456 0
2021-10-15 17:19:55 GMT 57.106613 -10.235825 33,000 304 456 0
2021-10-15 17:19:51 GMT 57.101990 -10.223207 33,000 304 456 0
2021-10-15 17:19:45 GMT 57.094894 -10.203724 33,000 304 456 0
2021-10-15 17:19:40 GMT 57.089710 -10.189554 33,000 304 456 0
2021-10-15 17:19:35 GMT 57.083038 -10.171108 33,000 304 456 64
2021-10-15 17:19:28 GMT 57.075462 -10.149950 33,000 304 456 0
2021-10-15 17:19:25 GMT 57.071320 -10.138343 33,000 304 455 -128
2021-10-15 17:19:20 GMT 57.065689 -10.122528 33,000 304 455 64
2021-10-15 17:19:15 GMT 57.059868 -10.106890 33,000 307 456 64
2021-10-15 17:19:11 GMT 57.055893 -10.097122 33,000 310 457 128
2021-10-15 17:19:05 GMT 57.046371 -10.076351 33,000 315 460 -64
2021-10-15 17:19:01 GMT 57.041794 -10.067682 33,000 317 461 -192
2021-10-15 17:18:55 GMT 57.030945 -10.048971 33,000 318 463 64
2021-10-15 17:18:51 GMT 57.025841 -10.040529 33,000 317 463 64
2021-10-15 17:18:45 GMT 57.015701 -10.022535 33,000 313 461 0
2021-10-15 17:18:40 GMT 57.009933 -10.011034 33,000 311 460 0
2021-10-15 17:18:35 GMT 57.001556 -9.992323 33,000 307 459 64
2021-10-15 17:18:31 GMT 56.997490 -9.982142 33,000 304 458 64
2021-10-15 17:18:25 GMT 56.989716 -9.960170 33,000 300 456 -64
2021-10-15 17:18:21 GMT 56.986130 -9.948475 33,000 299 455 0
2021-10-15 17:18:18 GMT 56.983200 -9.938421 33,000 298 455 0
2021-10-15 17:18:15 GMT 56.979797 -9.926413 33,000 298 454 0
2021-10-15 17:18:08 GMT 56.973606 -9.903998 33,000 298 454 0
2021-10-15 17:18:05 GMT 56.970535 -9.893100 33,000 298 454 0
2021-10-15 17:17:59 GMT 56.965603 -9.875469 33,000 298 454 0
2021-10-15 17:17:55 GMT 56.960621 -9.857660 33,000 298 454 0
2021-10-15 17:17:48 GMT 56.954521 -9.835865 33,000 298 453 0
2021-10-15 17:17:45 GMT 56.951172 -9.823815 33,000 298 453 0
2021-10-15 17:17:37 GMT 56.944290 -9.799376 33,000 298 453 0
2021-10-15 17:17:34 GMT 56.941406 -9.788990 33,000 298 454 0
2021-10-15 17:17:28 GMT 56.935043 -9.766502 33,000 298 454 0
2021-10-15 17:17:23 GMT 56.931656 -9.754400 33,000 298 454 0
2021-10-15 17:17:20 GMT 56.928082 -9.741683 33,000 298 454 0
2021-10-15 17:17:17 GMT 56.925102 -9.731052 33,000 298 454 0
2021-10-15 17:17:13 GMT 56.921677 -9.718952 33,000 298 453 0
2021-10-15 17:17:10 GMT 56.918335 -9.707108 33,000 298 453 0
2021-10-15 17:17:07 GMT 56.915695 -9.697738 33,000 298 453 0
2021-10-15 17:17:04 GMT 56.912567 -9.686680 33,000 298 453 0
2021-10-15 17:17:00 GMT 56.908623 -9.672753 33,000 298 453 0
2021-10-15 17:16:57 GMT 56.905609 -9.662046 33,000 298 453 0
2021-10-15 17:16:54 GMT 56.903130 -9.653350 33,000 298 453 0
2021-10-15 17:16:50 GMT 56.898834 -9.638100 33,000 298 453 0
2021-10-15 17:16:44 GMT 56.893295 -9.618444 33,000 298 453 0
2021-10-15 17:16:37 GMT 56.886566 -9.594669 33,000 298 453 0
2021-10-15 17:16:34 GMT 56.883808 -9.584951 33,000 298 453 0
2021-10-15 17:16:28 GMT 56.877274 -9.561882 33,000 298 453 0
2021-10-15 17:16:24 GMT 56.873932 -9.550123 33,000 298 453 0
2021-10-15 17:16:20 GMT 56.869843 -9.535690 33,000 298 453 0
2021-10-15 17:16:17 GMT 56.867516 -9.527539 33,000 298 453 0
2021-10-15 17:16:14 GMT 56.864685 -9.517593 33,000 298 453 0
2021-10-15 17:16:07 GMT 56.857319 -9.491656 33,000 298 453 0
2021-10-15 17:16:04 GMT 56.854980 -9.483347 33,000 298 453 0
2021-10-15 17:15:57 GMT 56.847733 -9.457988 33,000 298 453 0
2021-10-15 17:15:54 GMT 56.845047 -9.448586 33,000 298 453 0
2021-10-15 17:15:47 GMT 56.838421 -9.425384 33,000 298 453 0
2021-10-15 17:15:44 GMT 56.835487 -9.415106 33,000 298 453 0
2021-10-15 17:15:41 GMT 56.832550 -9.404812 33,000 298 453 0
2021-10-15 17:15:37 GMT 56.828690 -9.391273 33,000 298 453 0
2021-10-15 17:15:34 GMT 56.825806 -9.381261 33,000 298 453 0
2021-10-15 17:15:31 GMT 56.822937 -9.371166 33,000 298 453 0
2021-10-15 17:15:27 GMT 56.818729 -9.356453 33,000 298 453 0
2021-10-15 17:15:24 GMT 56.815979 -9.346876 33,000 298 453 0
2021-10-15 17:15:17 GMT 56.808952 -9.322342 33,000 298 454 0
2021-10-15 17:15:14 GMT 56.806438 -9.313660 33,000 298 454 0
2021-10-15 17:15:08 GMT 56.800186 -9.291859 33,000 298 453 0
2021-10-15 17:15:04 GMT 56.796524 -9.279070 33,000 298 453 0
2021-10-15 17:14:58 GMT 56.790298 -9.257355 33,000 298 454 0
2021-10-15 17:14:54 GMT 56.786819 -9.245424 33,000 298 454 0
2021-10-15 17:14:48 GMT 56.781097 -9.225426 33,000 298 454 0
2021-10-15 17:14:44 GMT 56.777206 -9.211864 33,000 298 454 0
2021-10-15 17:14:41 GMT 56.774086 -9.201138 33,000 298 454 0
2021-10-15 17:14:36 GMT 56.769382 -9.184836 33,000 298 454 0
2021-10-15 17:14:34 GMT 56.764526 -9.168005 33,000 298 453 0
2021-10-15 17:14:31 GMT 56.764526 -9.168005 33,000 298 453 0
2021-10-15 17:14:26 GMT 56.759537 -9.150667 33,000 298 453 0
2021-10-15 17:14:23 GMT 56.757324 -9.143017 33,000 298 453 0
2021-10-15 17:14:21 GMT 56.754593 -9.133587 33,000 298 453 0
2021-10-15 17:14:18 GMT 56.751801 -9.123888 33,000 298 453 0
2021-10-15 17:14:14 GMT 56.747925 -9.110501 33,000 298 453 0
2021-10-15 17:14:10 GMT 56.744522 -9.098717 33,000 298 452 0
2021-10-15 17:14:07 GMT 56.738205 -9.076853 33,000 298 452 0
2021-10-15 17:14:04 GMT 56.738205 -9.076853 33,000 298 452 0
2021-10-15 17:14:01 GMT 56.734863 -9.065351 33,000 298 452 0
2021-10-15 17:13:57 GMT 56.728649 -9.043786 33,000 298 452 0
2021-10-15 17:13:54 GMT 56.728649 -9.043786 33,000 298 451 0
2021-10-15 17:13:50 GMT 56.725525 -9.033079 33,000 298 451 0
2021-10-15 17:13:48 GMT 56.722549 -9.022865 33,000 298 451 0
2021-10-15 17:13:44 GMT 56.718781 -9.009852 33,000 298 451 0
2021-10-15 17:13:40 GMT 56.715012 -8.996828 33,000 298 451 0
2021-10-15 17:13:37 GMT 56.708817 -8.975573 33,000 298 450 0
2021-10-15 17:13:34 GMT 56.708817 -8.975573 33,000 298 450 0
2021-10-15 17:13:31 GMT 56.706306 -8.966970 33,000 298 450 0
2021-10-15 17:13:28 GMT 56.702911 -8.955402 33,000 298 450 0
2021-10-15 17:13:24 GMT 56.699158 -8.942356 33,000 298 450 0
2021-10-15 17:13:17 GMT 56.692886 -8.920727 33,000 298 450 0
2021-10-15 17:13:14 GMT 56.689499 -8.909140 33,000 298 450 0
2021-10-15 17:13:07 GMT 56.679909 -8.876333 33,000 298 450 0
2021-10-15 17:13:04 GMT 56.679909 -8.876333 33,000 298 450 0
2021-10-15 17:13:00 GMT 56.675766 -8.862104 33,000 299 450 0
2021-10-15 17:12:57 GMT 56.672882 -8.852234 33,000 299 450 0
2021-10-15 17:12:53 GMT 56.669529 -8.840716 33,000 298 451 0
2021-10-15 17:12:50 GMT 56.666039 -8.828844 33,000 298 451 0
2021-10-15 17:12:48 GMT 56.659985 -8.808289 33,000 298 451 0
2021-10-15 17:12:44 GMT 56.659985 -8.808289 33,000 298 451 0
2021-10-15 17:12:41 GMT 56.657192 -8.798720 33,000 299 452 0
2021-10-15 17:12:37 GMT 56.653328 -8.785607 33,000 299 452 0
2021-10-15 17:12:34 GMT 56.650440 -8.775684 33,000 299 452 0
2021-10-15 17:12:30 GMT 56.647110 -8.764343 33,000 299 452 0
2021-10-15 17:12:27 GMT 56.644344 -8.754952 33,000 299 452 -64
2021-10-15 17:12:24 GMT 56.640572 -8.742105 33,000 299 452 -64
2021-10-15 17:12:20 GMT 56.636765 -8.729153 33,000 299 451 0
2021-10-15 17:12:17 GMT 56.634338 -8.720999 33,000 299 451 0
2021-10-15 17:12:14 GMT 56.630844 -8.709146 33,000 299 451 0
2021-10-15 17:12:11 GMT 56.624233 -8.686730 32,975 299 452 0
2021-10-15 17:12:07 GMT 56.624233 -8.686730 33,000 299 452 0
2021-10-15 17:12:04 GMT 56.620743 -8.674994 33,000 299 452 0
2021-10-15 17:12:01 GMT 56.618042 -8.665821 33,000 299 452 0
2021-10-15 17:11:56 GMT 56.613480 -8.650316 33,000 299 452 0
2021-10-15 17:11:53 GMT 56.610641 -8.640747 33,000 299 452 0
2021-10-15 17:11:51 GMT 56.608200 -8.632507 33,000 299 452 64
2021-10-15 17:11:49 GMT 56.605518 -8.623470 33,000 299 452 128
2021-10-15 17:11:46 GMT 56.600491 -8.606459 32,975 299 452 128
2021-10-15 17:11:43 GMT 56.600491 -8.606459 32,975 299 452 192
2021-10-15 17:11:41 GMT 56.597946 -8.597832 32,975 299 452 192
2021-10-15 17:11:39 GMT 56.595928 -8.590954 32,975 299 452 256
2021-10-15 17:11:36 GMT 56.593506 -8.582811 32,950 299 452 384
2021-10-15 17:11:33 GMT 56.590485 -8.572582 32,925 299 452 576
2021-10-15 17:11:29 GMT 56.583591 -8.549337 32,525 299 455 832
2021-10-15 17:11:26 GMT 56.583591 -8.549337 32,850 299 453 768
2021-10-15 17:11:23 GMT 56.580917 -8.540289 32,825 299 453 768
2021-10-15 17:11:19 GMT 56.577713 -8.529469 32,775 299 454 832
2021-10-15 17:11:16 GMT 56.573730 -8.515986 32,725 299 454 832
2021-10-15 17:11:13 GMT 56.571026 -8.506937 32,675 299 454 832
2021-10-15 17:11:10 GMT 56.568146 -8.497176 32,650 299 454 832
2021-10-15 17:11:06 GMT 56.563522 -8.481695 32,600 299 454 832
2021-10-15 17:11:03 GMT 56.561005 -8.473206 32,550 299 455 832
2021-10-15 17:11:00 GMT 56.558075 -8.463551 32,500 299 455 832
2021-10-15 17:10:56 GMT 56.553543 -8.448237 32,350 299 455 832
2021-10-15 17:10:53 GMT 56.551575 -8.441578 32,425 299 455 832
2021-10-15 17:10:49 GMT 56.543976 -8.416193 32,325 299 455 832
2021-10-15 17:10:46 GMT 56.543976 -8.416193 32,300 299 455 832
2021-10-15 17:10:43 GMT 56.541275 -8.407121 32,275 299 455 832
2021-10-15 17:10:39 GMT 56.536926 -8.392556 32,200 299 455 832
2021-10-15 17:10:36 GMT 56.533859 -8.382319 32,175 299 456 832
2021-10-15 17:10:33 GMT 56.531361 -8.374071 32,125 299 456 832
2021-10-15 17:10:29 GMT 56.526764 -8.358598 32,075 299 456 832
2021-10-15 17:10:26 GMT 56.523743 -8.348527 32,025 299 456 832
2021-10-15 17:10:23 GMT 56.521225 -8.340038 32,000 299 456 832
2021-10-15 17:10:19 GMT 56.516605 -8.324633 31,925 299 457 896
2021-10-15 17:10:16 GMT 56.511066 -8.306179 31,875 299 457 896
2021-10-15 17:10:13 GMT 56.511066 -8.306179 31,850 299 457 896
2021-10-15 17:10:09 GMT 56.507294 -8.293562 31,800 299 457 960
2021-10-15 17:10:06 GMT 56.503941 -8.282318 31,725 299 458 960
2021-10-15 17:10:03 GMT 56.501083 -8.272788 31,700 299 458 960
2021-10-15 17:10:00 GMT 56.497845 -8.262062 31,650 299 458 960
2021-10-15 17:09:56 GMT 56.493622 -8.247903 31,575 299 458 960
2021-10-15 17:09:53 GMT 56.491047 -8.239317 31,525 299 459 960
2021-10-15 17:09:51 GMT 56.483368 -8.213862 31,475 299 459 896
2021-10-15 17:09:47 GMT 56.483368 -8.213862 31,425 299 459 896
2021-10-15 17:09:43 GMT 56.480942 -8.205622 31,375 299 459 896
2021-10-15 17:09:40 GMT 56.477325 -8.193720 31,325 299 460 896
2021-10-15 17:09:36 GMT 56.473824 -8.182068 31,275 299 460 896
2021-10-15 17:09:33 GMT 56.470982 -8.172541 31,225 299 460 896
2021-10-15 17:09:30 GMT 56.467258 -8.160267 31,175 299 460 960
2021-10-15 17:09:26 GMT 56.460663 -8.138455 31,100 299 460 960
2021-10-15 17:09:23 GMT 56.460663 -8.138455 31,075 299 460 960
2021-10-15 17:09:20 GMT 56.456322 -8.124132 31,000 299 461 960
2021-10-15 17:09:16 GMT 56.453384 -8.114402 30,925 299 461 1024
2021-10-15 17:09:13 GMT 56.450409 -8.104498 30,900 299 461 1024
2021-10-15 17:09:10 GMT 56.446472 -8.091431 30,850 299 461 1024
2021-10-15 17:09:06 GMT 56.442215 -8.077448 30,775 299 461 1024
2021-10-15 17:09:03 GMT 56.440063 -8.070457 30,725 299 462 1024
2021-10-15 17:09:00 GMT 56.433243 -8.047902 30,650 299 462 1088
2021-10-15 17:08:57 GMT 56.430038 -8.037248 30,550 299 462 1088
2021-10-15 17:08:54 GMT 56.430038 -8.037248 30,550 299 462 1088
2021-10-15 17:08:50 GMT 56.425083 -8.020964 30,475 299 464 1088
2021-10-15 17:08:47 GMT 56.422894 -8.013840 30,425 299 464 1088
2021-10-15 17:08:43 GMT 56.418472 -7.999163 30,350 299 464 1088
2021-10-15 17:08:39 GMT 56.414749 -7.986977 30,275 299 464 1024
2021-10-15 17:08:35 GMT 56.410744 -7.973671 30,200 299 464 896
2021-10-15 17:08:32 GMT 56.408066 -7.964921 30,175 299 464 896
2021-10-15 17:08:29 GMT 56.404587 -7.953519 30,150 299 464 896
2021-10-15 17:08:25 GMT 56.400467 -7.939953 30,075 299 465 896
2021-10-15 17:08:22 GMT 56.397526 -7.930241 30,025 299 464 832
2021-10-15 17:08:18 GMT 56.393738 -7.917813 29,975 299 465 896
2021-10-15 17:08:15 GMT 56.390076 -7.905745 29,925 299 464 832
2021-10-15 17:08:12 GMT 56.386539 -7.894106 29,350 299 463 640
2021-10-15 17:08:09 GMT 56.384491 -7.887518 29,850 299 465 896
2021-10-15 17:08:06 GMT 56.381012 -7.876115 29,775 299 465 896
2021-10-15 17:08:03 GMT 56.377853 -7.865795 29,750 299 465 896
2021-10-15 17:07:58 GMT 56.372864 -7.849399 29,675 299 465 896
2021-10-15 17:07:55 GMT 56.369408 -7.838058 29,625 299 465 896
2021-10-15 17:07:52 GMT 56.367096 -7.830505 29,550 299 465 896
2021-10-15 17:07:49 GMT 56.363354 -7.818317 29,525 299 465 832
2021-10-15 17:07:46 GMT 56.358215 -7.801541 29,500 299 465 768
2021-10-15 17:07:44 GMT 56.358215 -7.801541 29,475 299 464 640
2021-10-15 17:07:41 GMT 56.354782 -7.790222 29,450 299 464 576
2021-10-15 17:07:38 GMT 56.352180 -7.781754 29,400 299 464 640
2021-10-15 17:07:35 GMT 56.347992 -7.768021 29,375 299 464 640
2021-10-15 17:07:32 GMT 56.345989 -7.761497 29,375 299 464 640
2021-10-15 17:07:28 GMT 56.341827 -7.747941 29,325 299 463 640
2021-10-15 17:07:26 GMT 56.339706 -7.740898 29,275 299 463 704
2021-10-15 17:07:22 GMT 56.335564 -7.727423 29,250 299 463 704
2021-10-15 17:07:19 GMT 56.329510 -7.707682 29,200 299 462 704
2021-10-15 17:07:16 GMT 56.329510 -7.707682 29,175 299 462 704
2021-10-15 17:07:13 GMT 56.325134 -7.693520 29,125 299 462 704
2021-10-15 17:07:09 GMT 56.321686 -7.682190 29,100 299 462 640
2021-10-15 17:07:05 GMT 56.318069 -7.670538 29,050 300 461 640
2021-10-15 17:07:02 GMT 56.311890 -7.650313 29,025 300 461 576
2021-10-15 17:06:59 GMT 56.311890 -7.650313 29,000 300 461 576
2021-10-15 17:06:56 GMT 56.308731 -7.640076 28,975 300 461 576
2021-10-15 17:06:53 GMT 56.305481 -7.629589 28,950 300 461 576
2021-10-15 17:06:51 GMT 56.300766 -7.614274 28,900 300 459 576
2021-10-15 17:06:48 GMT 56.300766 -7.614274 28,900 300 459 576
2021-10-15 17:06:45 GMT 56.297470 -7.603538 28,875 300 459 576
2021-10-15 17:06:42 GMT 56.293758 -7.591639 28,825 300 458 640
2021-10-15 17:06:39 GMT 56.291382 -7.583979 28,800 300 458 640
2021-10-15 17:06:36 GMT 56.284973 -7.563255 28,750 300 457 704
2021-10-15 17:06:33 GMT 56.284973 -7.563255 28,725 300 457 640
2021-10-15 17:06:31 GMT 56.283417 -7.558178 28,725 300 457 640
2021-10-15 17:06:28 GMT 56.279800 -7.546525 28,700 300 457 704
2021-10-15 17:06:25 GMT 56.276814 -7.536879 28,650 300 457 704
2021-10-15 17:06:22 GMT 56.273117 -7.524969 28,625 300 457 704
2021-10-15 17:06:18 GMT 56.267967 -7.508383 28,550 300 456 768
2021-10-15 17:06:16 GMT 56.267967 -7.508383 28,550 300 456 768
2021-10-15 17:06:13 GMT 56.264511 -7.497170 28,475 300 455 768
2021-10-15 17:06:11 GMT 56.262405 -7.490429 28,475 300 455 768
2021-10-15 17:06:08 GMT 56.257168 -7.473450 28,425 300 455 768
2021-10-15 17:06:06 GMT 56.257168 -7.473450 28,400 300 455 768
2021-10-15 17:06:03 GMT 56.253956 -7.463236 28,350 300 455 768
2021-10-15 17:06:01 GMT 56.251877 -7.456471 28,325 300 455 768
2021-10-15 17:05:58 GMT 56.249359 -7.448481 28,300 300 454 768
2021-10-15 17:05:55 GMT 56.246647 -7.439632 28,275 300 454 768
2021-10-15 17:05:52 GMT 56.238968 -7.414913 28,125 300 452 704
2021-10-15 17:05:48 GMT 56.238968 -7.414913 28,175 300 453 704
2021-10-15 17:05:46 GMT 56.237503 -7.410278 28,125 300 453 704
2021-10-15 17:05:43 GMT 56.233887 -7.398709 28,125 300 453 704
2021-10-15 17:05:41 GMT 56.231003 -7.389304 28,100 300 452 704
2021-10-15 17:05:37 GMT 56.226723 -7.375689 28,050 300 452 704
2021-10-15 17:05:33 GMT 56.223724 -7.366000 28,000 300 451 704
2021-10-15 17:05:31 GMT 56.221462 -7.358780 27,975 300 451 704
2021-10-15 17:05:28 GMT 56.217773 -7.346857 27,925 300 451 768
2021-10-15 17:05:25 GMT 56.215622 -7.340032 27,875 300 450 768
2021-10-15 17:05:22 GMT 56.212479 -7.329941 27,875 300 450 768
2021-10-15 17:05:17 GMT 56.208290 -7.316551 27,825 300 449 768
2021-10-15 17:05:15 GMT 56.205185 -7.306657 27,775 300 449 768
2021-10-15 17:05:12 GMT 56.202190 -7.296982 27,675 300 448 768
2021-10-15 17:05:09 GMT 56.199631 -7.288828 27,675 300 448 768
2021-10-15 17:05:06 GMT 56.195255 -7.274837 27,625 300 447 768
2021-10-15 17:05:02 GMT 56.191856 -7.263937 27,600 300 447 768
2021-10-15 17:04:59 GMT 56.189667 -7.256985 27,575 300 447 768
2021-10-15 17:04:56 GMT 56.185944 -7.244968 27,525 300 446 832
2021-10-15 17:04:53 GMT 56.182846 -7.235163 27,500 300 446 832
2021-10-15 17:04:51 GMT 56.181839 -7.232000 27,400 300 445 832
2021-10-15 17:04:48 GMT 56.178448 -7.221193 27,425 300 445 832
2021-10-15 17:04:43 GMT 56.172043 -7.200706 27,350 300 445 768
2021-10-15 17:04:39 GMT 56.169510 -7.192698 27,325 300 444 768
2021-10-15 17:04:36 GMT 56.164993 -7.178151 27,250 300 443 768
2021-10-15 17:04:33 GMT 56.162949 -7.171755 27,225 300 442 768
2021-10-15 17:04:30 GMT 56.158951 -7.159008 27,175 300 442 832
2021-10-15 17:04:26 GMT 56.155380 -7.147605 27,125 300 441 832
2021-10-15 17:04:23 GMT 56.152939 -7.139912 27,100 300 441 832
2021-10-15 17:04:21 GMT 56.147957 -7.123947 27,025 300 441 832
2021-10-15 17:04:18 GMT 56.147957 -7.123947 27,025 300 441 832
2021-10-15 17:04:15 GMT 56.144989 -7.114646 26,975 300 441 832
2021-10-15 17:04:13 GMT 56.142605 -7.106953 26,950 300 440 832
2021-10-15 17:04:11 GMT 56.141006 -7.101912 26,875 300 439 896
2021-10-15 17:04:08 GMT 56.137951 -7.092190 26,875 300 439 896
2021-10-15 17:04:05 GMT 56.135387 -7.084122 26,850 300 438 896
2021-10-15 17:04:03 GMT 56.132858 -7.076111 26,800 300 438 896
2021-10-15 17:04:01 GMT 56.130844 -7.069785 26,775 300 438 896
2021-10-15 17:03:58 GMT 56.125610 -7.053137 26,725 300 437 896
2021-10-15 17:03:56 GMT 56.125610 -7.053137 26,700 300 437 896
2021-10-15 17:03:53 GMT 56.122772 -7.044296 26,650 300 437 896
2021-10-15 17:03:51 GMT 56.120865 -7.038116 26,625 300 437 896
2021-10-15 17:03:48 GMT 56.117752 -7.028337 26,575 300 437 896
2021-10-15 17:03:45 GMT 56.114914 -7.019348 26,525 300 437 960
2021-10-15 17:03:43 GMT 56.112904 -7.013054 26,500 300 435 960
2021-10-15 17:03:40 GMT 56.110245 -7.004783 26,450 300 435 1024
2021-10-15 17:03:36 GMT 56.105736 -6.990566 26,375 300 435 1024
2021-10-15 17:03:33 GMT 56.102757 -6.981125 26,325 300 434 1024
2021-10-15 17:03:31 GMT 56.097977 -6.965998 26,300 300 434 1088
2021-10-15 17:03:28 GMT 56.097977 -6.965998 26,225 300 434 1088
2021-10-15 17:03:25 GMT 56.095448 -6.958122 26,200 300 434 1088
2021-10-15 17:03:23 GMT 56.092934 -6.950140 26,150 300 434 1088
2021-10-15 17:03:20 GMT 56.090881 -6.943692 26,125 300 434 1152
2021-10-15 17:03:17 GMT 56.087540 -6.933122 26,025 300 433 1152
2021-10-15 17:03:14 GMT 56.084152 -6.922469 26,025 300 433 1152
2021-10-15 17:03:11 GMT 56.081902 -6.915464 25,950 300 433 1152
2021-10-15 17:03:08 GMT 56.078922 -6.906023 25,825 300 433 1152
2021-10-15 17:03:05 GMT 56.075455 -6.895169 25,825 300 433 1152
2021-10-15 17:03:02 GMT 56.071884 -6.883850 25,725 300 432 1152
2021-10-15 17:02:59 GMT 56.065605 -6.864138 25,625 300 432 1088
2021-10-15 17:02:55 GMT 56.065605 -6.864138 25,550 300 432 1152
2021-10-15 17:02:52 GMT 56.062592 -6.854720 25,575 300 432 1152
2021-10-15 17:02:49 GMT 56.059433 -6.844649 25,500 300 431 1152
2021-10-15 17:02:46 GMT 56.056576 -6.835728 25,400 300 431 1152
2021-10-15 17:02:43 GMT 56.053299 -6.825506 25,400 300 431 1152
2021-10-15 17:02:40 GMT 56.050827 -6.817766 25,325 300 431 1152
2021-10-15 17:02:37 GMT 56.046940 -6.805515 25,225 300 429 1216
2021-10-15 17:02:34 GMT 56.044331 -6.797276 25,200 300 430 1216
2021-10-15 17:02:31 GMT 56.041260 -6.787720 25,150 300 430 1216
2021-10-15 17:02:27 GMT 56.038185 -6.778049 25,100 300 429 1216
2021-10-15 17:02:25 GMT 56.036278 -6.771955 25,050 300 429 1216
2021-10-15 17:02:22 GMT 56.030960 -6.755427 24,975 300 429 1216
2021-10-15 17:02:20 GMT 56.030960 -6.755427 24,900 300 429 1216
2021-10-15 17:02:17 GMT 56.025650 -6.738781 24,875 300 428 1216
2021-10-15 17:02:15 GMT 56.025650 -6.738781 24,800 300 428 1216
2021-10-15 17:02:12 GMT 56.023499 -6.732122 24,775 300 428 1216
2021-10-15 17:02:09 GMT 56.019379 -6.719170 24,700 300 428 1216
2021-10-15 17:02:06 GMT 56.017658 -6.713762 24,675 300 428 1216
2021-10-15 17:02:03 GMT 56.014538 -6.704063 24,600 300 427 1152
2021-10-15 17:02:00 GMT 56.010452 -6.691256 24,450 300 427 1088
2021-10-15 17:01:57 GMT 56.008621 -6.685514 24,500 300 427 1024
2021-10-15 17:01:54 GMT 56.005600 -6.676168 24,425 300 425 960
2021-10-15 17:01:51 GMT 56.001846 -6.664456 24,375 300 425 960
2021-10-15 17:01:46 GMT 55.997864 -6.652055 24,275 300 424 0
2021-10-15 17:01:43 GMT 55.992004 -6.633745 24,250 300 424 960
2021-10-15 17:01:40 GMT 55.992004 -6.633745 24,225 300 423 960
2021-10-15 17:01:36 GMT 55.988022 -6.621427 24,125 300 422 1024
2021-10-15 17:01:33 GMT 55.982437 -6.604115 24,050 300 421 1024
2021-10-15 17:01:30 GMT 55.982437 -6.604115 24,025 300 421 1088
2021-10-15 17:01:27 GMT 55.979206 -6.594028 24,000 300 421 1088
2021-10-15 17:01:25 GMT 55.974689 -6.580124 23,925 300 419 1152
2021-10-15 17:01:22 GMT 55.974689 -6.580124 23,875 300 418 1280
2021-10-15 17:01:19 GMT 55.971405 -6.569907 23,725 300 418 1280
2021-10-15 17:01:16 GMT 55.968704 -6.561501 23,750 300 418 1280
2021-10-15 17:01:13 GMT 55.964859 -6.549599 23,675 300 418 1280
2021-10-15 17:01:10 GMT 55.963005 -6.543818 23,675 300 418 1280
2021-10-15 17:01:07 GMT 55.960052 -6.534701 23,600 300 418 1280
2021-10-15 17:01:05 GMT 55.957581 -6.527044 23,525 300 417 1280
2021-10-15 17:01:02 GMT 55.955612 -6.520968 23,500 300 417 1280
2021-10-15 17:01:00 GMT 55.950302 -6.504489 23,425 300 417 1216
2021-10-15 17:00:57 GMT 55.950302 -6.504489 23,375 300 416 1216
2021-10-15 17:00:55 GMT 55.948341 -6.498327 23,300 301 415 1152
2021-10-15 17:00:52 GMT 55.945408 -6.489315 23,250 300 414 1344
2021-10-15 17:00:48 GMT 55.941742 -6.478022 23,150 300 414 1216
2021-10-15 17:00:45 GMT 55.939133 -6.469865 23,150 300 414 1280
2021-10-15 17:00:42 GMT 55.936146 -6.460733 23,100 300 414 1344
2021-10-15 17:00:38 GMT 55.932312 -6.448891 22,975 301 413 1408
2021-10-15 17:00:35 GMT 55.928329 -6.436490 22,875 301 413 1536
2021-10-15 17:00:32 GMT 55.926834 -6.431894 22,850 301 413 1536
2021-10-15 17:00:30 GMT 55.923996 -6.423140 22,775 301 413 1472
2021-10-15 17:00:26 GMT 55.921249 -6.414728 22,250 301 412 1472
2021-10-15 17:00:24 GMT 55.918827 -6.407261 22,650 301 413 1472
2021-10-15 17:00:19 GMT 55.914551 -6.394126 22,425 301 412 1472
2021-10-15 17:00:16 GMT 55.911667 -6.385137 22,450 301 412 1472
2021-10-15 17:00:14 GMT 55.909100 -6.377220 22,375 301 412 1472
2021-10-15 17:00:12 GMT 55.907639 -6.372819 22,350 301 412 1536
2021-10-15 17:00:09 GMT 55.904434 -6.362915 22,250 301 411 1472
2021-10-15 17:00:06 GMT 55.901871 -6.355008 22,200 301 411 1472
2021-10-15 17:00:04 GMT 55.899399 -6.347434 22,125 301 411 1472
2021-10-15 16:59:58 GMT 55.893410 -6.329155 21,975 301 411 1408
2021-10-15 16:59:55 GMT 55.891159 -6.322132 21,875 301 410 1408
2021-10-15 16:59:52 GMT 55.888596 -6.314309 21,850 301 410 1408
2021-10-15 16:59:48 GMT 55.884846 -6.302891 21,750 301 409 1344
2021-10-15 16:59:45 GMT 55.881725 -6.293278 21,675 301 409 1344
2021-10-15 16:59:42 GMT 55.879074 -6.285095 21,625 301 409 1344
2021-10-15 16:59:38 GMT 55.875210 -6.273193 21,525 301 408 1280
2021-10-15 16:59:35 GMT 55.872135 -6.263924 21,450 301 406 1280
2021-10-15 16:59:32 GMT 55.869370 -6.255382 21,300 301 405 1344
2021-10-15 16:59:28 GMT 55.862591 -6.234570 21,300 301 405 1344
2021-10-15 16:59:25 GMT 55.862591 -6.234570 21,250 301 405 1344
2021-10-15 16:59:22 GMT 55.860306 -6.227667 21,175 301 404 1344
2021-10-15 16:59:19 GMT 55.854263 -6.209190 21,000 301 403 1344
2021-10-15 16:59:16 GMT 55.854263 -6.209190 21,050 301 403 1344
2021-10-15 16:59:14 GMT 55.852249 -6.203031 21,000 301 402 1344
2021-10-15 16:59:11 GMT 55.850372 -6.197288 20,950 301 402 1344
2021-10-15 16:59:08 GMT 55.846905 -6.186762 20,875 301 402 1408
2021-10-15 16:59:05 GMT 55.843830 -6.177406 20,825 301 402 1408
2021-10-15 16:59:02 GMT 55.840576 -6.167408 20,725 301 401 1408
2021-10-15 16:58:59 GMT 55.834305 -6.148432 20,625 301 400 1408
2021-10-15 16:58:55 GMT 55.834305 -6.148432 20,550 301 400 1408
2021-10-15 16:58:52 GMT 55.832008 -6.141357 20,425 301 399 1472
2021-10-15 16:58:49 GMT 55.828423 -6.130457 20,400 301 399 1472
2021-10-15 16:58:46 GMT 55.826283 -6.123934 20,350 301 398 1472
2021-10-15 16:58:44 GMT 55.824978 -6.119986 20,325 301 398 1472
2021-10-15 16:58:41 GMT 55.821762 -6.110229 20,250 301 397 1408
2021-10-15 16:58:37 GMT 55.817917 -6.098411 20,100 301 396 1408
2021-10-15 16:58:34 GMT 55.812782 -6.082993 20,000 301 396 1408
2021-10-15 16:58:31 GMT 55.812782 -6.082993 20,000 301 396 1408
2021-10-15 16:58:29 GMT 55.810406 -6.075783 19,925 301 393 1472
2021-10-15 16:58:26 GMT 55.807800 -6.067866 19,875 301 394 1472
2021-10-15 16:58:24 GMT 55.805878 -6.061956 19,850 301 394 1472
2021-10-15 16:58:21 GMT 55.803516 -6.054754 19,750 301 393 1472
2021-10-15 16:58:18 GMT 55.800980 -6.047058 19,650 301 392 1472
2021-10-15 16:58:15 GMT 55.797653 -6.036901 19,625 301 392 1472
2021-10-15 16:58:13 GMT 55.795837 -6.031494 19,550 301 391 1472
2021-10-15 16:58:10 GMT 55.792557 -6.021507 19,475 301 391 1536
2021-10-15 16:58:06 GMT 55.787830 -6.007290 19,350 301 390 1600
2021-10-15 16:58:01 GMT 55.785049 -5.998785 19,225 301 389 1664
2021-10-15 16:57:58 GMT 55.779327 -5.981473 19,150 301 389 1664
2021-10-15 16:57:55 GMT 55.779327 -5.981473 19,075 301 389 1728
2021-10-15 16:57:53 GMT 55.776901 -5.974149 19,000 301 389 1792
2021-10-15 16:57:50 GMT 55.775024 -5.968489 18,925 301 389 1856
2021-10-15 16:57:46 GMT 55.770996 -5.956254 18,800 301 389 1856
2021-10-15 16:57:41 GMT 55.766830 -5.943770 18,650 301 388 1856
2021-10-15 16:57:38 GMT 55.760834 -5.925626 18,525 301 388 1792
2021-10-15 16:57:35 GMT 55.760834 -5.925626 18,450 301 388 1792
2021-10-15 16:57:33 GMT 55.759480 -5.921459 18,400 301 388 1792
2021-10-15 16:57:30 GMT 55.756851 -5.913641 18,275 301 387 1792
2021-10-15 16:57:27 GMT 55.750534 -5.894581 18,150 301 387 1792
2021-10-15 16:57:24 GMT 55.750534 -5.894581 18,125 301 387 1728
2021-10-15 16:57:21 GMT 55.748749 -5.889254 18,000 301 386 1728
2021-10-15 16:57:18 GMT 55.746185 -5.881514 17,875 301 384 1792
2021-10-15 16:57:15 GMT 55.743622 -5.873774 17,900 301 385 1728
2021-10-15 16:57:13 GMT 55.740765 -5.865240 17,800 301 384 1792
2021-10-15 16:57:10 GMT 55.739227 -5.860605 17,550 301 385 1792
2021-10-15 16:57:07 GMT 55.735970 -5.850735 17,675 301 384 1792
2021-10-15 16:57:04 GMT 55.733322 -5.842812 17,550 301 384 1792
2021-10-15 16:57:01 GMT 55.727638 -5.825758 17,425 301 383 1792
2021-10-15 16:56:58 GMT 55.727638 -5.825758 17,350 301 383 1792
2021-10-15 16:56:55 GMT 55.725357 -5.819009 17,275 301 382 1856
2021-10-15 16:56:53 GMT 55.720230 -5.803694 17,175 301 383 1792
2021-10-15 16:56:50 GMT 55.720230 -5.803694 17,125 301 383 1792
2021-10-15 16:56:48 GMT 55.718887 -5.799494 17,025 301 382 1856
2021-10-15 16:56:45 GMT 55.716339 -5.792042 16,975 301 382 1856
2021-10-15 16:56:43 GMT 55.714092 -5.785246 16,875 301 382 1856
2021-10-15 16:56:40 GMT 55.708511 -5.768488 16,725 301 381 1920
2021-10-15 16:56:37 GMT 55.708511 -5.768488 16,725 301 381 1920
2021-10-15 16:56:34 GMT 55.706406 -5.762246 16,675 301 381 1920
2021-10-15 16:56:30 GMT 55.703152 -5.752459 16,450 301 381 2048
2021-10-15 16:56:27 GMT 55.700317 -5.743935 16,375 301 381 2048
2021-10-15 16:56:24 GMT 55.696541 -5.732718 16,275 301 381 2048
2021-10-15 16:56:20 GMT 55.693817 -5.724543 16,175 301 380 2112
2021-10-15 16:56:17 GMT 55.690659 -5.715055 16,050 301 380 2176
2021-10-15 16:56:14 GMT 55.688393 -5.708170 15,950 301 381 2176
2021-10-15 16:56:12 GMT 55.686531 -5.702677 15,600 301 381 2176
2021-10-15 16:56:09 GMT 55.682373 -5.690169 15,750 301 381 2176
2021-10-15 16:56:07 GMT 55.682373 -5.690169 15,700 301 381 2240
2021-10-15 16:56:04 GMT 55.679443 -5.681430 15,600 301 381 2304
2021-10-15 16:56:00 GMT 55.675453 -5.669546 15,400 301 381 2624
2021-10-15 16:55:57 GMT 55.673676 -5.664201 15,250 301 382 2880
2021-10-15 16:55:54 GMT 55.670425 -5.654463 15,125 301 383 2880
2021-10-15 16:55:51 GMT 55.667538 -5.645771 14,975 301 383 2880
2021-10-15 16:55:48 GMT 55.664745 -5.637531 14,800 301 384 2880
2021-10-15 16:55:45 GMT 55.662460 -5.630576 14,700 301 385 2752
2021-10-15 16:55:43 GMT 55.660217 -5.623918 14,425 301 385 2496
2021-10-15 16:55:40 GMT 55.657532 -5.615902 14,450 301 385 2304
2021-10-15 16:55:37 GMT 55.654968 -5.608263 14,300 301 385 2112
2021-10-15 16:55:34 GMT 55.652069 -5.599448 14,275 301 385 2048
2021-10-15 16:55:32 GMT 55.650787 -5.595703 14,100 301 384 1984
2021-10-15 16:55:29 GMT 55.648132 -5.587713 14,125 301 384 1984
2021-10-15 16:55:26 GMT 55.645287 -5.579166 13,950 301 383 1984
2021-10-15 16:55:23 GMT 55.641563 -5.568094 13,900 301 383 1920
2021-10-15 16:55:20 GMT 55.639893 -5.563160 13,725 301 382 1920
2021-10-15 16:55:15 GMT 55.634811 -5.547929 13,625 301 381 1920
2021-10-15 16:55:12 GMT 55.632523 -5.541188 13,525 301 380 1920
2021-10-15 16:55:09 GMT 55.629829 -5.533161 13,475 301 380 1920
2021-10-15 16:55:07 GMT 55.628128 -5.528037 13,400 301 380 1920
2021-10-15 16:55:04 GMT 55.624336 -5.516768 13,250 301 379 1984
2021-10-15 16:55:00 GMT 55.618881 -5.500655 12,825 301 377 1984
2021-10-15 16:54:57 GMT 55.618881 -5.500655 13,050 301 378 1984
2021-10-15 16:54:54 GMT 55.616329 -5.493078 12,975 301 378 1984
2021-10-15 16:54:51 GMT 55.613617 -5.485008 12,850 301 377 1984
2021-10-15 16:54:48 GMT 55.611008 -5.477267 12,800 301 376 1920
2021-10-15 16:54:45 GMT 55.608170 -5.468944 12,675 301 376 1856
2021-10-15 16:54:43 GMT 55.603714 -5.455828 12,575 301 376 1792
2021-10-15 16:54:40 GMT 55.603714 -5.455828 12,425 301 374 1728
2021-10-15 16:54:37 GMT 55.601013 -5.447845 12,425 301 374 1728
2021-10-15 16:54:34 GMT 55.598282 -5.439731 12,350 301 373 1728
2021-10-15 16:54:31 GMT 55.593754 -5.426388 12,100 301 369 1984
2021-10-15 16:54:28 GMT 55.590179 -5.415760 12,100 301 369 1984
2021-10-15 16:54:25 GMT 55.590179 -5.415760 12,050 301 370 1920
2021-10-15 16:54:23 GMT 55.585419 -5.401840 11,950 301 369 1984
2021-10-15 16:54:20 GMT 55.585419 -5.401840 11,775 301 367 1856
2021-10-15 16:54:17 GMT 55.582993 -5.394703 11,775 301 367 1856
2021-10-15 16:54:15 GMT 55.579926 -5.385714 11,675 301 368 1920
2021-10-15 16:54:10 GMT 55.577362 -5.378057 11,550 301 367 1728
2021-10-15 16:54:07 GMT 55.571083 -5.359612 11,450 301 365 1408
2021-10-15 16:54:03 GMT 55.571083 -5.359612 11,375 302 362 1088
2021-10-15 16:54:00 GMT 55.568848 -5.353174 11,350 301 361 960
2021-10-15 16:53:57 GMT 55.563171 -5.336442 11,275 302 354 704
2021-10-15 16:53:54 GMT 55.563171 -5.336442 11,250 302 353 704
2021-10-15 16:53:51 GMT 55.561447 -5.331459 11,250 301 353 768
2021-10-15 16:53:48 GMT 55.558838 -5.323820 11,200 302 350 832
2021-10-15 16:53:46 GMT 55.556789 -5.317726 11,175 301 347 896
2021-10-15 16:53:43 GMT 55.551315 -5.301652 11,100 302 344 768
2021-10-15 16:53:40 GMT 55.551315 -5.301652 11,050 301 341 768
2021-10-15 16:53:37 GMT 55.548843 -5.294328 11,025 302 338 768
2021-10-15 16:53:34 GMT 55.545639 -5.285090 10,975 301 335 704
2021-10-15 16:53:29 GMT 55.542984 -5.277266 10,950 302 331 640
2021-10-15 16:53:27 GMT 55.541473 -5.272855 10,925 301 330 704
2021-10-15 16:53:24 GMT 55.538681 -5.264597 10,900 302 327 704
2021-10-15 16:53:20 GMT 55.535934 -5.256615 10,825 302 322 704
2021-10-15 16:53:17 GMT 55.533783 -5.250300 10,775 302 319 704
2021-10-15 16:53:14 GMT 55.531372 -5.243139 10,775 302 317 768
2021-10-15 16:53:12 GMT 55.530167 -5.239646 10,750 302 316 768
2021-10-15 16:53:09 GMT 55.527191 -5.230990 10,700 302 311 768
2021-10-15 16:53:06 GMT 55.525459 -5.225801 10,675 301 309 832
2021-10-15 16:53:03 GMT 55.523643 -5.220480 10,650 302 284 1024
2021-10-15 16:53:01 GMT 55.521503 -5.214214 10,600 301 304 832
2021-10-15 16:52:58 GMT 55.519363 -5.207949 10,575 301 301 832
2021-10-15 16:52:55 GMT 55.517395 -5.202110 10,525 301 297 768
2021-10-15 16:52:52 GMT 55.515408 -5.196362 10,475 301 293 640
2021-10-15 16:52:49 GMT 55.513000 -5.189209 10,450 301 291 640
2021-10-15 16:52:46 GMT 55.510895 -5.183050 10,450 302 288 704
2021-10-15 16:52:42 GMT 55.508514 -5.176020 10,350 302 284 1152
2021-10-15 16:52:39 GMT 55.504093 -5.163145 10,250 302 282 1728
2021-10-15 16:52:36 GMT 55.504093 -5.163145 10,225 302 281 1856
2021-10-15 16:52:33 GMT 55.502373 -5.158081 10,125 302 281 2048
2021-10-15 16:52:31 GMT 55.500694 -5.153189 10,000 302 280 1984
2021-10-15 16:52:28 GMT 55.498901 -5.148010 9,825 302 279 2048
2021-10-15 16:52:25 GMT 55.497116 -5.142850 9,800 302 279 2048
2021-10-15 16:52:22 GMT 55.494919 -5.136358 9,800 302 279 2048
2021-10-15 16:52:19 GMT 55.492500 -5.129328 9,625 302 278 2176
2021-10-15 16:52:16 GMT 55.490799 -5.124456 9,550 302 278 2240
2021-10-15 16:52:13 GMT 55.488403 -5.117311 9,375 302 278 2432
2021-10-15 16:52:10 GMT 55.487007 -5.113363 9,325 302 278 2432
2021-10-15 16:52:07 GMT 55.485332 -5.108471 9,225 301 277 2432
2021-10-15 16:52:03 GMT 55.482239 -5.099321 9,000 301 277 2304
2021-10-15 16:52:01 GMT 55.478622 -5.088667 8,875 301 277 2176
2021-10-15 16:51:57 GMT 55.478622 -5.088667 8,825 301 277 2176
2021-10-15 16:51:53 GMT 55.473816 -5.074602 8,625 301 275 1920
2021-10-15 16:51:50 GMT 55.473816 -5.074602 8,525 301 273 1856
2021-10-15 16:51:47 GMT 55.471893 -5.068859 8,475 301 273 1856
2021-10-15 16:51:43 GMT 55.469009 -5.060369 8,300 301 272 2176
2021-10-15 16:51:40 GMT 55.467453 -5.055708 8,175 301 271 2368
2021-10-15 16:51:37 GMT 55.465454 -5.049763 8,125 301 271 2560
2021-10-15 16:51:33 GMT 55.460659 -5.035686 7,875 301 271 2624
2021-10-15 16:51:30 GMT 55.460659 -5.035686 7,800 301 271 2624
2021-10-15 16:51:27 GMT 55.458797 -5.030193 7,675 301 271 2624
2021-10-15 16:51:23 GMT 55.454842 -5.018692 7,375 302 272 2368
2021-10-15 16:51:21 GMT 55.454842 -5.018692 7,425 302 272 2304
2021-10-15 16:51:17 GMT 55.452393 -5.011513 7,300 302 271 1856
2021-10-15 16:51:12 GMT 55.448837 -5.001354 7,125 303 267 1664
2021-10-15 16:51:09 GMT 55.446880 -4.995861 7,050 303 266 1728
2021-10-15 16:51:06 GMT 55.445530 -4.992085 6,975 303 265 1856
2021-10-15 16:51:03 GMT 55.443016 -4.985213 6,875 304 264 2176
2021-10-15 16:50:59 GMT 55.440308 -4.978099 6,700 304 263 2432
2021-10-15 16:50:56 GMT 55.438751 -4.974060 6,600 304 263 2496
2021-10-15 16:50:52 GMT 55.435272 -4.964770 6,400 301 262 2560
2021-10-15 16:50:47 GMT 55.432262 -4.955500 6,200 294 260 2304
2021-10-15 16:50:43 GMT 55.429794 -4.944014 5,975 282 258 2112
2021-10-15 16:50:36 GMT 55.428818 -4.934526 5,825 275 256 1856
2021-10-15 16:50:31 GMT 55.428635 -4.924298 5,700 263 253 2112
2021-10-15 16:50:26 GMT 55.429333 -4.914301 5,500 254 252 2432
2021-10-15 16:50:23 GMT 55.431610 -4.901599 5,250 246 252 2560
2021-10-15 16:50:20 GMT 55.431610 -4.901599 5,250 245 253 2560
2021-10-15 16:50:16 GMT 55.433659 -4.894576 5,150 241 252 2688
2021-10-15 16:50:11 GMT 55.436966 -4.885846 4,850 232 255 2816
2021-10-15 16:50:07 GMT 55.439667 -4.879844 4,675 231 256 2688
2021-10-15 16:50:03 GMT 55.442917 -4.873002 4,450 230 257 2368
2021-10-15 16:50:00 GMT 55.445065 -4.868488 4,375 230 256 2112
2021-10-15 16:49:56 GMT 55.447861 -4.862782 4,225 230 255 2048
2021-10-15 16:49:50 GMT 55.452667 -4.852961 4,050 229 252 1728
2021-10-15 16:49:47 GMT 55.454983 -4.848318 3,950 229 250 1536
2021-10-15 16:49:40 GMT 55.460861 -4.836481 3,800 229 242 896
2021-10-15 16:49:37 GMT 55.462601 -4.832902 3,775 229 239 768
2021-10-15 16:49:30 GMT 55.467957 -4.822249 3,675 229 229 768
2021-10-15 16:49:27 GMT 55.469788 -4.818587 3,625 229 227 768
2021-10-15 16:49:21 GMT 55.473862 -4.810514 3,500 229 216 832
2021-10-15 16:49:17 GMT 55.476608 -4.805020 3,500 229 214 704
2021-10-15 16:49:10 GMT 55.481468 -4.795446 3,425 229 206 320
2021-10-15 16:49:07 GMT 55.483292 -4.791870 3,400 229 202 576
2021-10-15 16:49:01 GMT 55.486961 -4.784632 3,325 229 196 512
2021-10-15 16:48:56 GMT 55.489609 -4.779469 3,325 229 193 512
2021-10-15 16:48:50 GMT 55.493591 -4.771562 3,275 229 186 448
2021-10-15 16:48:46 GMT 55.495434 -4.767981 3,250 229 184 448
2021-10-15 16:48:40 GMT 55.498833 -4.761200 3,200 229 180 448
2021-10-15 16:48:37 GMT 55.501114 -4.756737 3,175 229 174 384
2021-10-15 16:48:30 GMT 55.504303 -4.750505 3,150 229 169 512
2021-10-15 16:48:25 GMT 55.506683 -4.745761 3,100 229 165 512
2021-10-15 16:48:20 GMT 55.509476 -4.740184 3,050 230 161 640
2021-10-15 16:48:16 GMT 55.511448 -4.736223 3,000 230 159 960
2021-10-15 16:48:10 GMT 55.514336 -4.730301 2,900 229 158 1088
2021-10-15 16:48:05 GMT 55.516567 -4.725838 2,800 228 159 1088
2021-10-15 16:47:59 GMT 55.519547 -4.720043 2,700 229 159 1216
2021-10-15 16:47:55 GMT 55.521362 -4.716311 2,625 232 159 1280
2021-10-15 16:47:49 GMT 55.524124 -4.710138 2,475 236 159 1280
2021-10-15 16:47:45 GMT 55.525833 -4.705753 2,400 239 159 1216
2021-10-15 16:47:39 GMT 55.528210 -4.698715 2,275 244 159 1088
2021-10-15 16:47:35 GMT 55.529556 -4.693823 2,200 249 159 960
2021-10-15 16:47:29 GMT 55.530991 -4.687001 2,125 256 157 1024
2021-10-15 16:47:25 GMT 55.531723 -4.681507 2,050 261 156 1024
2021-10-15 16:47:19 GMT 55.532272 -4.673934 1,950 270 156 960
2021-10-15 16:47:15 GMT 55.532352 -4.668760 1,875 277 154 1088
2021-10-15 16:47:09 GMT 55.531792 -4.661636 1,750 286 157 1664
2021-10-15 16:47:05 GMT 55.530853 -4.656539 1,650 296 157 1920
2021-10-15 16:46:59 GMT 55.528858 -4.649534 1,425 302 157 2496
2021-10-15 16:46:54 GMT 55.527279 -4.645071 1,250 302 156 2432
2021-10-15 16:46:48 GMT 55.524857 -4.638205 1,000 303 158 2496
2021-10-15 16:46:44 GMT 55.523319 -4.633827 825 303 157 2368
2021-10-15 16:46:38 GMT 55.520851 -4.627132 550 303 158 2496
2021-10-15 16:46:35 GMT 55.519783 -4.624128 425 303 159 2560
2021-10-15 16:46:25 GMT 55.515686 -4.612627 -25 302 164 2176
2021-10-15 16:46:15 GMT 55.511856 -4.601690 -225 302 147 256
2021-10-15 16:46:05 GMT 55.508469 -4.591856 -175 302 111 0
2021-10-15 16:45:55 GMT 55.506165 -4.585226 0 300 72
2021-10-15 16:45:44 GMT 55.504807 -4.581299 0 300 23
2021-10-15 16:45:34 GMT 55.504383 -4.580076 0 300 11
2021-10-15 16:45:24 GMT 55.504177 -4.579322 0 323 11
2021-10-15 16:45:14 GMT 55.503765 -4.578906 0 22 12
2021-10-15 16:45:04 GMT 55.503242 -4.579325 0 25 13
2021-10-15 16:44:54 GMT 55.502754 -4.579690 0 25 10
2021-10-15 16:44:44 GMT 55.502346 -4.580009 0 25 9
2021-10-15 16:44:34 GMT 55.501987 -4.580290 0 22 8
2021-10-15 16:44:24 GMT 55.501682 -4.580529 0 22 6
2021-10-15 16:44:06 GMT 55.501465 -4.580698 0 22 0
2021-10-15 16:43:51 GMT 55.501465 -4.580695 0 22 0
2021-10-15 16:43:41 GMT 55.501465 -4.580698 0 22 0
2021-10-15 16:43:06 GMT 55.501465 -4.580695 0 22 0
2021-10-15 16:43:01 GMT 55.501465 -4.580698 0 22 0
2021-10-15 16:42:33 GMT 55.501465 -4.580695 0 22 2
2021-10-15 16:42:22 GMT 55.501278 -4.580848 0 25 8
2021-10-15 16:42:13 GMT 55.500984 -4.581063 0 25 9
2021-10-15 16:42:03 GMT 55.500526 -4.581424 0 25 12
2021-10-15 16:41:52 GMT 55.499996 -4.581835 0 22 13
2021-10-15 16:41:39 GMT 55.499298 -4.582372 0 25 13
2021-10-15 16:41:31 GMT 55.498878 -4.582714 0 22 13
2021-10-15 16:41:20 GMT 55.498276 -4.583166 0 25 14
2021-10-15 16:41:05 GMT 55.497402 -4.583852 0 22 15
2021-10-15 16:41:02 GMT 55.497196 -4.584004 0 22 15
2021-10-15 16:40:52 GMT 55.496578 -4.584482 0 22 14
2021-10-15 16:40:41 GMT 55.495972 -4.584947 0 25 13
2021-10-15 16:40:32 GMT 55.495480 -4.585335 0 25 11
2021-10-15 16:40:21 GMT 55.495014 -4.585698 0 25 10
2021-10-15 16:40:12 GMT 55.494656 -4.586001 0 14 9
2021-10-15 16:40:02 GMT 55.494289 -4.586293 0 331 9
2021-10-15 16:39:48 GMT 55.493923 -4.585655 0 292 11
2021-10-15 16:39:41 GMT 55.493786 -4.585127 0 292 11
2021-10-15 16:39:31 GMT 55.493584 -4.584367 0 281 10
2021-10-15 16:39:21 GMT 55.493465 -4.583567 0 213 12
2021-10-15 16:39:11 GMT 55.493958 -4.583080 0 202 14
2021-10-15 16:39:01 GMT 55.494656 -4.582543 0 202 20
2021-10-15 16:38:51 GMT 55.495495 -4.581878 0 202 20
2021-10-15 16:38:40 GMT 55.496452 -4.581153 0 202 19
2021-10-15 16:38:30 GMT 55.497227 -4.580548 0 202 18
2021-10-15 16:38:19 GMT 55.497971 -4.579968 0 202 16
2021-10-15 16:38:10 GMT 55.498543 -4.579539 0 202 14
2021-10-15 16:38:01 GMT 55.499088 -4.579110 0 202 13
2021-10-15 16:37:51 GMT 55.499577 -4.578724 0 202 10
2021-10-15 16:37:40 GMT 55.499943 -4.578427 0 202 6
2021-10-15 16:37:03 GMT 55.500160 -4.578273 0 202 0
2021-10-15 16:36:58 GMT 55.500160 -4.578261 0 202 0
2021-10-15 16:36:37 GMT 55.500160 -4.578273 0 202 0
2021-10-15 16:36:27 GMT 55.500160 -4.578261 0 202 0
2021-10-15 16:35:47 GMT 55.500160 -4.578273 0 202 0
2021-10-15 16:34:56 GMT 55.500160 -4.578261 0 202 0
2021-10-15 16:34:46 GMT 55.500160 -4.578273 0 202 0
2021-10-15 16:34:31 GMT 55.500160 -4.578261 0 202 0
2021-10-15 16:34:16 GMT 55.500160 -4.578273 0 202 0
We lost coverage of the aircraft here for a total of 234 minutes
2021-10-15 12:40:23 GMT 55.500160 -4.578252 0 202 0 0
2021-10-15 12:40:13 GMT 55.500160 -4.578261 0 202 0 0
2021-10-15 12:40:03 GMT 55.500160 -4.578252 0 202 0 0
2021-10-15 12:39:44 GMT 55.500160 -4.578261 0 202 0 0
2021-10-15 12:39:33 GMT 55.500252 -4.578178 0 202 9 0
2021-10-15 12:39:24 GMT 55.500618 -4.577907 0 202 11 0
2021-10-15 12:39:13 GMT 55.501053 -4.577553 0 202 11 0
2021-10-15 12:39:04 GMT 55.501438 -4.577265 0 202 8 0
2021-10-15 12:38:49 GMT 55.501743 -4.577029 0 205 0 0
2021-10-15 12:38:39 GMT 55.501766 -4.577007 0 205 0 0
2021-10-15 12:38:13 GMT 55.501762 -4.577012 0 205 0 0
2021-10-15 12:37:53 GMT 55.501766 -4.577007 0 205 0 0
2021-10-15 12:37:43 GMT 55.501911 -4.576888 0 205 7 0
2021-10-15 12:37:33 GMT 55.502335 -4.576534 0 202 14 0
2021-10-15 12:37:23 GMT 55.502907 -4.576139 0 140 15 0
2021-10-15 12:37:07 GMT 55.503914 -4.578698 0 120 43 0
2021-10-15 12:37:03 GMT 55.504360 -4.580009 0 120 55 0
2021-10-15 12:36:52 GMT 55.505814 -4.584253 0 120 67 0
2021-10-15 12:36:42 GMT 55.507526 -4.589174 -325 120 80 0
2021-10-15 12:36:32 GMT 55.509796 -4.595781 -325 121 131 -256
2021-10-15 12:36:22 GMT 55.513275 -4.605685 -275 121 158 -192
2021-10-15 12:36:14 GMT 55.516567 -4.615202 -175 120 157 -832
2021-10-15 12:36:10 GMT 55.518013 -4.619408 -100 121 156 -832
2021-10-15 12:36:04 GMT 55.520340 -4.626188 -25 121 154 -896
2021-10-15 12:36:01 GMT 55.521225 -4.628849 25 121 153 -832
2021-10-15 12:35:51 GMT 55.525089 -4.639921 150 121 154 -832
2021-10-15 12:35:43 GMT 55.527969 -4.648299 275 120 153 -832
2021-10-15 12:35:40 GMT 55.528885 -4.650962 300 121 154 -768
2021-10-15 12:35:31 GMT 55.532581 -4.661551 450 121 153 -832
2021-10-15 12:35:21 GMT 55.536163 -4.672102 575 121 155 -832
2021-10-15 12:35:10 GMT 55.540031 -4.683437 750 120 156 -832
2021-10-15 12:35:00 GMT 55.543663 -4.694166 850 121 154 -768
2021-10-15 12:34:50 GMT 55.547424 -4.704978 1,025 121 157 -832
2021-10-15 12:34:40 GMT 55.551361 -4.716297 1,150 121 164 -832
2021-10-15 12:34:30 GMT 55.555534 -4.728241 1,325 120 171 -1024
2021-10-15 12:34:20 GMT 55.559586 -4.740257 1,500 120 178 -1216
2021-10-15 12:34:10 GMT 55.564407 -4.754417 1,675 121 184 -1024
2021-10-15 12:34:01 GMT 55.567825 -4.764376 1,800 121 189 -1024
2021-10-15 12:33:58 GMT 55.569305 -4.768732 1,800 121 189 -1024
2021-10-15 12:33:50 GMT 55.573059 -4.779635 2,000 121 192 -1088
2021-10-15 12:33:39 GMT 55.577682 -4.793035 2,175 121 193 -1088
2021-10-15 12:33:29 GMT 55.582535 -4.807018 2,375 121 193 -1152
2021-10-15 12:33:19 GMT 55.587234 -4.820938 2,575 120 194 -1216
2021-10-15 12:33:09 GMT 55.591751 -4.834414 2,750 120 194 -960
2021-10-15 12:33:00 GMT 55.597778 -4.852212 2,900 121 195 -704
2021-10-15 12:32:57 GMT 55.597778 -4.852212 2,925 121 196 -704
2021-10-15 12:32:50 GMT 55.600708 -4.860618 3,000 121 197 -640
2021-10-15 12:32:47 GMT 55.602272 -4.865227 3,025 121 197 -640
2021-10-15 12:32:41 GMT 55.604965 -4.873019 3,125 121 197 -704
2021-10-15 12:32:38 GMT 55.606461 -4.877329 3,150 121 197 -704
2021-10-15 12:32:31 GMT 55.609634 -4.886419 3,225 121 196 -704
2021-10-15 12:32:28 GMT 55.611145 -4.890997 3,250 121 196 -704
2021-10-15 12:32:20 GMT 55.614807 -4.901484 3,350 121 197 -640
2021-10-15 12:32:17 GMT 55.616470 -4.906340 3,375 121 197 -640
2021-10-15 12:32:11 GMT 55.619308 -4.914665 3,450 121 198 -768
2021-10-15 12:32:08 GMT 55.620335 -4.917583 3,475 121 198 -768
2021-10-15 12:32:01 GMT 55.623917 -4.928200 3,575 120 200 -640
2021-10-15 12:31:58 GMT 55.625175 -4.931831 3,675 121 199 -640
2021-10-15 12:31:54 GMT 55.627316 -4.938097 3,650 121 199 -704
2021-10-15 12:31:51 GMT 55.628815 -4.942516 3,700 120 198 -768
2021-10-15 12:31:47 GMT 55.630577 -4.947796 3,725 120 198 -640
2021-10-15 12:31:44 GMT 55.632111 -4.952259 3,750 120 199 -256
2021-10-15 12:31:41 GMT 55.633759 -4.957081 3,750 120 198 64
2021-10-15 12:31:37 GMT 55.635361 -4.961909 3,750 120 197 0
2021-10-15 12:31:34 GMT 55.636414 -4.965071 3,750 120 197 0
2021-10-15 12:31:28 GMT 55.639343 -4.973810 3,750 120 197 -64
2021-10-15 12:31:24 GMT 55.641403 -4.979969 3,750 120 197 -64
2021-10-15 12:31:20 GMT 55.643051 -4.984875 3,775 120 199 -256
2021-10-15 12:31:17 GMT 55.644608 -4.989541 3,775 120 198 -320
2021-10-15 12:31:14 GMT 55.645889 -4.993286 3,800 120 197 -256
2021-10-15 12:31:10 GMT 55.647903 -4.999362 3,800 120 196 64
2021-10-15 12:31:07 GMT 55.648918 -5.002384 3,800 120 196 384
2021-10-15 12:31:04 GMT 55.650639 -5.007534 3,775 120 196 320
2021-10-15 12:31:00 GMT 55.652454 -5.012856 3,775 120 199 64
2021-10-15 12:30:57 GMT 55.653572 -5.016289 3,775 120 200 -192
2021-10-15 12:30:54 GMT 55.655273 -5.021335 3,775 120 204 -128
2021-10-15 12:30:49 GMT 55.657471 -5.027826 3,800 120 209 -448
2021-10-15 12:30:46 GMT 55.658924 -5.032167 3,800 120 209 -448
2021-10-15 12:30:43 GMT 55.660461 -5.036716 3,825 121 212 -512
2021-10-15 12:30:40 GMT 55.662231 -5.041892 3,875 121 214 -1152
2021-10-15 12:30:37 GMT 55.663513 -5.045721 3,900 121 214 -1216
2021-10-15 12:30:34 GMT 55.665390 -5.051214 3,975 121 215 -768
2021-10-15 12:30:30 GMT 55.667583 -5.057573 4,025 121 217 -896
2021-10-15 12:30:27 GMT 55.668640 -5.060702 4,050 121 217 -896
2021-10-15 12:30:24 GMT 55.670929 -5.067277 4,125 120 217 -896
2021-10-15 12:30:20 GMT 55.672440 -5.071772 4,175 120 217 -1024
2021-10-15 12:30:17 GMT 55.673996 -5.076349 4,200 120 217 -1024
2021-10-15 12:30:13 GMT 55.676151 -5.082722 4,275 121 218 -1088
2021-10-15 12:30:10 GMT 55.679272 -5.092077 4,350 119 218 -1280
2021-10-15 12:30:07 GMT 55.679272 -5.092077 4,400 119 218 -1280
2021-10-15 12:30:02 GMT 55.681595 -5.099654 4,525 116 218 -1408
2021-10-15 12:29:59 GMT 55.682995 -5.104609 4,575 113 218 -1216
2021-10-15 12:29:56 GMT 55.684204 -5.109501 4,650 111 218 -1088
2021-10-15 12:29:49 GMT 55.686485 -5.121346 4,750 103 219 -320
2021-10-15 12:29:46 GMT 55.687092 -5.125637 4,750 102 220 -64
2021-10-15 12:29:43 GMT 55.687866 -5.131614 4,750 102 220 0
2021-10-15 12:29:39 GMT 55.688625 -5.138168 4,750 101 219 -128
2021-10-15 12:29:36 GMT 55.689285 -5.143682 4,775 101 218 -128
2021-10-15 12:29:33 GMT 55.689880 -5.148843 4,775 101 217 320
2021-10-15 12:29:30 GMT 55.690769 -5.156450 4,750 100 214 -64
2021-10-15 12:29:26 GMT 55.691299 -5.161327 4,750 100 213 64
2021-10-15 12:29:18 GMT 55.692677 -5.174389 4,775 100 216 0
2021-10-15 12:29:15 GMT 55.693233 -5.179281 4,775 100 217 64
2021-10-15 12:29:09 GMT 55.694458 -5.190624 4,775 100 219 64
2021-10-15 12:29:06 GMT 55.695049 -5.196190 4,775 100 221 64
2021-10-15 12:28:59 GMT 55.696381 -5.208685 4,775 100 236 -64
2021-10-15 12:28:55 GMT 55.697067 -5.215177 4,775 100 227 -128
2021-10-15 12:28:48 GMT 55.698486 -5.228577 4,775 100 231 -128
2021-10-15 12:28:45 GMT 55.699055 -5.234127 4,775 100 234 -64
2021-10-15 12:28:38 GMT 55.700500 -5.247470 4,800 101 240 -640
2021-10-15 12:28:35 GMT 55.701149 -5.253353 4,850 101 241 -640
2021-10-15 12:28:25 GMT 55.703384 -5.272855 4,925 102 249 -512
2021-10-15 12:28:15 GMT 55.705853 -5.293264 5,050 102 255 -768
2021-10-15 12:28:08 GMT 55.707947 -5.310345 5,150 102 264 -960
2021-10-15 12:28:05 GMT 55.708458 -5.314121 5,200 102 263 -1088
2021-10-15 12:28:02 GMT 55.709297 -5.321074 5,250 102 264 -960
2021-10-15 12:27:57 GMT 55.710388 -5.329368 5,300 102 267 -640
2021-10-15 12:27:52 GMT 55.711899 -5.341436 5,350 102 269 -448
2021-10-15 12:27:45 GMT 55.713776 -5.356168 5,400 102 274 -448
2021-10-15 12:27:42 GMT 55.714554 -5.362410 5,400 102 276 -576
2021-10-15 12:27:37 GMT 55.715973 -5.373480 5,475 102 277 -960
2021-10-15 12:27:34 GMT 55.716797 -5.380055 5,525 102 277 -1024
2021-10-15 12:27:27 GMT 55.718746 -5.395317 5,625 102 279 -832
2021-10-15 12:27:24 GMT 55.719681 -5.402860 5,675 102 280 -960
2021-10-15 12:27:21 GMT 55.720329 -5.408192 5,700 102 280 -1024
2021-10-15 12:27:17 GMT 55.721512 -5.417675 5,800 102 280 -1344
2021-10-15 12:27:12 GMT 55.723030 -5.429993 5,925 102 280 -1408
2021-10-15 12:27:06 GMT 55.724518 -5.442266 6,050 102 280 -1216
2021-10-15 12:27:03 GMT 55.725262 -5.448618 6,100 102 281 -1152
2021-10-15 12:26:56 GMT 55.727173 -5.464325 6,250 102 282 -896
2021-10-15 12:26:53 GMT 55.728058 -5.471358 6,325 102 284 -832
2021-10-15 12:26:50 GMT 55.728928 -5.478765 6,325 102 284 -832
2021-10-15 12:26:46 GMT 55.730072 -5.487921 6,375 102 285 -960
2021-10-15 12:26:43 GMT 55.731037 -5.495911 6,600 102 286 -1216
2021-10-15 12:26:37 GMT 55.732635 -5.509227 6,575 102 286 -1344
2021-10-15 12:26:33 GMT 55.733780 -5.518632 6,650 102 286 -1280
2021-10-15 12:26:30 GMT 55.734558 -5.524958 6,725 102 286 -1216
2021-10-15 12:26:26 GMT 55.735737 -5.534449 6,800 102 287 -1024
2021-10-15 12:26:23 GMT 55.736618 -5.541188 6,850 102 287 -1024
2021-10-15 12:26:18 GMT 55.739044 -5.560497 6,975 102 289 -896
2021-10-15 12:26:14 GMT 55.739044 -5.560497 6,975 102 290 -960
2021-10-15 12:26:11 GMT 55.740051 -5.568404 7,025 102 290 -1024
2021-10-15 12:26:07 GMT 55.741371 -5.578737 7,100 102 290 -1152
2021-10-15 12:26:02 GMT 55.742615 -5.588629 7,225 102 291 -1216
2021-10-15 12:25:58 GMT 55.743839 -5.597963 7,275 102 291 -1216
2021-10-15 12:25:54 GMT 55.745270 -5.609353 7,375 102 291 -1216
2021-10-15 12:25:51 GMT 55.746048 -5.615761 7,425 102 290 -1280
2021-10-15 12:25:47 GMT 55.747147 -5.624334 7,550 102 290 -1408
2021-10-15 12:25:44 GMT 55.748028 -5.631523 7,600 102 290 -1408
2021-10-15 12:25:41 GMT 55.748932 -5.638650 7,650 102 290 -1344
2021-10-15 12:25:38 GMT 55.749710 -5.644975 7,750 102 291 -1152
2021-10-15 12:25:35 GMT 55.750587 -5.651779 8,300 102 291 -1152
2021-10-15 12:25:31 GMT 55.752640 -5.668612 7,875 102 291 -1152
2021-10-15 12:25:28 GMT 55.752640 -5.668612 7,925 102 291 -1088
2021-10-15 12:25:24 GMT 55.753799 -5.677958 8,150 102 292 -1152
2021-10-15 12:25:21 GMT 55.754730 -5.685511 8,050 102 292 -1152
2021-10-15 12:25:16 GMT 55.756081 -5.696411 8,325 102 293 -1152
2021-10-15 12:25:13 GMT 55.757034 -5.704401 8,200 102 293 -1152
2021-10-15 12:25:10 GMT 55.757710 -5.709715 8,250 102 294 -1152
2021-10-15 12:25:05 GMT 55.760605 -5.733115 8,425 102 295 -1024
2021-10-15 12:25:00 GMT 55.760605 -5.733115 8,425 102 296 -1024
2021-10-15 12:24:55 GMT 55.762039 -5.745077 8,525 102 297 -1216
2021-10-15 12:24:51 GMT 55.763351 -5.755837 8,650 101 297 -1280
2021-10-15 12:24:47 GMT 55.765686 -5.775396 9,525 102 332 -896
2021-10-15 12:24:43 GMT 55.765686 -5.775396 8,800 101 298 -1088
2021-10-15 12:24:40 GMT 55.766602 -5.783186 8,850 101 298 -960
2021-10-15 12:24:37 GMT 55.767197 -5.788463 8,925 101 298 -1280
2021-10-15 12:24:34 GMT 55.768185 -5.796747 8,975 101 298 -1344
2021-10-15 12:24:30 GMT 55.769302 -5.806532 9,050 101 298 -1408
2021-10-15 12:24:27 GMT 55.770172 -5.813932 9,125 101 298 -1280
2021-10-15 12:24:25 GMT 55.770790 -5.818977 9,175 101 298 -1152
2021-10-15 12:24:23 GMT 55.771317 -5.823503 9,200 101 298 -1088
2021-10-15 12:24:22 GMT 55.771629 -5.826187 9,225 101 299 -960
2021-10-15 12:24:21 GMT 55.771957 -5.828663 9,250 101 299 -960
2021-10-15 12:24:20 GMT 55.773212 -5.839062 9,350 102 299 -832
2021-10-15 12:24:16 GMT 55.773212 -5.839062 9,350 102 300 -768
2021-10-15 12:24:12 GMT 55.774384 -5.848805 9,350 102 301 -832
2021-10-15 12:24:11 GMT 55.775162 -5.855380 9,375 102 301 -832
2021-10-15 12:24:10 GMT 55.775162 -5.855380 9,375 102 302 -896
2021-10-15 12:24:09 GMT 55.775436 -5.857627 9,400 102 302 -896
2021-10-15 12:24:07 GMT 55.776077 -5.862871 9,425 102 302 -896
2021-10-15 12:24:05 GMT 55.776611 -5.867128 9,450 102 304 -960
2021-10-15 12:24:04 GMT 55.776855 -5.869363 9,475 102 304 -1024
2021-10-15 12:24:03 GMT 55.777267 -5.872692 9,500 102 304 -1088
2021-10-15 12:24:02 GMT 55.777954 -5.878102 9,550 102 304 -1152
2021-10-15 12:23:58 GMT 55.778660 -5.884123 9,600 102 304 -1280
2021-10-15 12:23:55 GMT 55.779682 -5.892277 9,650 102 304 -1280
2021-10-15 12:23:54 GMT 55.780941 -5.902061 9,750 102 304 -1280
2021-10-15 12:23:51 GMT 55.781113 -5.903487 9,750 102 305 -1216
2021-10-15 12:23:47 GMT 55.781872 -5.909443 9,800 102 305 -1216
2021-10-15 12:23:45 GMT 55.782440 -5.914223 9,850 102 305 -1216
2021-10-15 12:23:44 GMT 55.782761 -5.916887 9,875 102 305 -1216
2021-10-15 12:23:42 GMT 55.783585 -5.923379 9,950 102 306 -1088
2021-10-15 12:23:39 GMT 55.784775 -5.932784 10,000 102 306 -1088
2021-10-15 12:23:37 GMT 55.784775 -5.932784 10,000 102 307 -1024
2021-10-15 12:23:36 GMT 55.785175 -5.936222 10,025 102 308 -896
2021-10-15 12:23:34 GMT 55.785782 -5.941114 10,025 102 308 -896
2021-10-15 12:23:32 GMT 55.786247 -5.945063 10,050 102 308 -768
2021-10-15 12:23:31 GMT 55.786880 -5.950179 10,075 102 311 -576
2021-10-15 12:23:28 GMT 55.787659 -5.956254 10,100 102 311 -448
2021-10-15 12:23:26 GMT 55.788017 -5.959139 10,125 102 312 -384
2021-10-15 12:23:25 GMT 55.788483 -5.962830 10,125 102 314 -320
2021-10-15 12:23:24 GMT 55.788948 -5.966606 10,125 102 314 -320
2021-10-15 12:23:20 GMT 55.790039 -5.975481 10,150 102 316 -384
2021-10-15 12:23:18 GMT 55.791092 -5.984053 10,175 102 319 -512
2021-10-15 12:23:15 GMT 55.791553 -5.987892 10,200 102 319 -576
2021-10-15 12:23:13 GMT 55.792282 -5.993625 10,225 102 322 -832
2021-10-15 12:23:11 GMT 55.792877 -5.998618 10,250 102 323 -896
2021-10-15 12:23:09 GMT 55.793930 -6.007274 10,300 102 326 -896
2021-10-15 12:23:06 GMT 55.794434 -6.011436 10,325 102 328 -896
2021-10-15 12:23:05 GMT 55.795166 -6.017095 10,350 102 329 -896
2021-10-15 12:23:03 GMT 55.795464 -6.019650 10,350 102 330 -896
2021-10-15 12:23:02 GMT 55.795807 -6.022505 10,375 102 331 -896
2021-10-15 12:23:00 GMT 55.796490 -6.028147 10,400 102 333 -896
2021-10-15 12:22:58 GMT 55.796955 -6.031837 10,425 102 335 -896
2021-10-15 12:22:57 GMT 55.797455 -6.036072 10,450 102 336 -896
2021-10-15 12:22:55 GMT 55.798862 -6.047544 10,525 102 338 -896
2021-10-15 12:22:53 GMT 55.798862 -6.047544 10,525 102 339 -896
2021-10-15 12:22:50 GMT 55.799702 -6.054068 10,550 102 342 -960
2021-10-15 12:22:49 GMT 55.800167 -6.057758 10,575 102 344 -960
2021-10-15 12:22:47 GMT 55.801609 -6.069603 10,650 102 348 -960
2021-10-15 12:22:45 GMT 55.801609 -6.069603 10,725 102 349 -960
2021-10-15 12:22:41 GMT 55.802856 -6.079434 10,725 102 351 -1024
2021-10-15 12:22:40 GMT 55.803406 -6.083679 10,725 102 352 -1024
2021-10-15 12:22:38 GMT 55.803749 -6.086683 10,750 102 355 -1024
2021-10-15 12:22:37 GMT 55.804367 -6.091253 10,800 102 357 -1088
2021-10-15 12:22:36 GMT 55.804821 -6.095095 10,825 102 357 -1024
2021-10-15 12:22:34 GMT 55.805557 -6.100658 10,850 102 362 -1024
2021-10-15 12:22:32 GMT 55.806244 -6.105985 10,875 102 362 -1024
2021-10-15 12:22:29 GMT 55.807343 -6.114557 10,925 102 364 -1024
2021-10-15 12:22:27 GMT 55.807892 -6.118719 10,975 102 365 -1024
2021-10-15 12:22:25 GMT 55.808807 -6.126043 11,000 102 369 -1216
2021-10-15 12:22:23 GMT 55.809631 -6.132452 11,050 103 371 -1216
2021-10-15 12:22:22 GMT 55.810089 -6.135698 11,075 103 371 -1280
2021-10-15 12:22:20 GMT 55.810822 -6.141274 11,125 102 374 -1280
2021-10-15 12:22:19 GMT 55.811188 -6.144270 11,150 102 377 -1152
2021-10-15 12:22:16 GMT 55.812286 -6.152677 11,200 102 379 -896
2021-10-15 12:22:14 GMT 55.813202 -6.159918 11,225 102 380 -832
2021-10-15 12:22:12 GMT 55.814026 -6.166243 11,275 102 382 -832
2021-10-15 12:22:09 GMT 55.815994 -6.181557 11,300 102 386 -960
2021-10-15 12:22:07 GMT 55.815994 -6.181557 11,300 102 386 -960
2021-10-15 12:22:05 GMT 55.816601 -6.186419 11,350 102 387 -1152
2021-10-15 12:22:04 GMT 55.817158 -6.190624 11,375 102 387 -1280
2021-10-15 12:22:02 GMT 55.817760 -6.195602 11,400 102 388 -1664
2021-10-15 12:21:59 GMT 55.818787 -6.203447 11,475 102 388 -2112
2021-10-15 12:21:57 GMT 55.819576 -6.209850 11,525 102 388 -2176
2021-10-15 12:21:54 GMT 55.820789 -6.219120 11,675 102 388 -2624
2021-10-15 12:21:53 GMT 55.821396 -6.223838 11,750 102 388 -2688
2021-10-15 12:21:51 GMT 55.822277 -6.231050 11,850 102 388 -2688
2021-10-15 12:21:50 GMT 55.822651 -6.233797 11,875 102 388 -2688
2021-10-15 12:21:48 GMT 55.823536 -6.240578 11,975 102 388 -2432
2021-10-15 12:21:47 GMT 55.823914 -6.243564 12,025 102 388 -2432
2021-10-15 12:21:45 GMT 55.824467 -6.248045 12,075 102 388 -2432
2021-10-15 12:21:44 GMT 55.825058 -6.252636 12,125 102 388 -2112
2021-10-15 12:21:43 GMT 55.826294 -6.262373 12,225 102 388 -2112
2021-10-15 12:21:41 GMT 55.826294 -6.262373 12,250 102 389 -1984
2021-10-15 12:21:39 GMT 55.827168 -6.268816 12,300 102 390 -1856
2021-10-15 12:21:37 GMT 55.827866 -6.274481 12,350 102 391 -1792
2021-10-15 12:21:34 GMT 55.829041 -6.283680 12,450 102 392 -1792
2021-10-15 12:21:32 GMT 55.829819 -6.289839 12,500 102 393 -1728
2021-10-15 12:21:31 GMT 55.830193 -6.292763 12,525 102 395 -1600
2021-10-15 12:21:29 GMT 55.831009 -6.299161 12,575 102 395 -1600
2021-10-15 12:21:26 GMT 55.832245 -6.308816 12,675 102 396 -1600
2021-10-15 12:21:25 GMT 55.832657 -6.312228 12,700 102 396 -1664
2021-10-15 12:21:23 GMT 55.833496 -6.319113 12,750 102 397 -1984
2021-10-15 12:21:21 GMT 55.834755 -6.329412 12,875 102 398 -2496
2021-10-15 12:21:18 GMT 55.835175 -6.332786 12,925 102 398 -2496
2021-10-15 12:21:16 GMT 55.836365 -6.342274 13,075 102 399 -3008
2021-10-15 12:21:14 GMT 55.836941 -6.346922 13,150 102 399 -3008
2021-10-15 12:21:13 GMT 55.837967 -6.355258 13,275 102 399 -3264
2021-10-15 12:21:12 GMT 55.837967 -6.355258 13,275 102 399 -3264
2021-10-15 12:21:10 GMT 55.838791 -6.361500 13,375 102 400 -3264
2021-10-15 12:21:07 GMT 55.839798 -6.369407 13,525 102 401 -3072
2021-10-15 12:21:05 GMT 55.840714 -6.376814 13,600 102 402 -2944
2021-10-15 12:21:04 GMT 55.841084 -6.379967 13,675 102 405 -2624
2021-10-15 12:21:03 GMT 55.841492 -6.382973 13,725 102 405 -2624
2021-10-15 12:21:00 GMT 55.842251 -6.389408 13,800 101 405 -2496
2021-10-15 12:20:58 GMT 55.843460 -6.399536 13,925 100 407 -2560
2021-10-15 12:20:56 GMT 55.843872 -6.403198 13,975 100 408 -2688
2021-10-15 12:20:54 GMT 55.844604 -6.410106 14,075 100 408 -3072
2021-10-15 12:20:53 GMT 55.844971 -6.413685 14,150 99 409 -3200
2021-10-15 12:20:52 GMT 55.845226 -6.416445 14,175 99 408 -3456
2021-10-15 12:20:51 GMT 55.845833 -6.422453 14,300 99 408 -3648
2021-10-15 12:20:49 GMT 55.846161 -6.425920 14,350 99 409 -3776
2021-10-15 12:20:48 GMT 55.846485 -6.429491 14,425 98 408 -3904
2021-10-15 12:20:47 GMT 55.847046 -6.435843 14,550 98 409 -3904
2021-10-15 12:20:44 GMT 55.847580 -6.442150 14,650 98 409 -3776
2021-10-15 12:20:43 GMT 55.847946 -6.446811 14,775 98 410 -3584
2021-10-15 12:20:41 GMT 55.848404 -6.452221 14,875 98 411 -3456
2021-10-15 12:20:39 GMT 55.849365 -6.463790 15,050 98 413 -3072
2021-10-15 12:20:37 GMT 55.849915 -6.470365 15,150 98 415 -2752
2021-10-15 12:20:34 GMT 55.850281 -6.474609 15,200 98 416 -2624
2021-10-15 12:20:33 GMT 55.850861 -6.481504 15,275 98 418 -2240
2021-10-15 12:20:30 GMT 55.851604 -6.490602 15,375 98 423 -1792
2021-10-15 12:20:28 GMT 55.852024 -6.495752 15,425 98 423 -1728
2021-10-15 12:20:27 GMT 55.852341 -6.499495 15,450 98 425 -1728
2021-10-15 12:20:26 GMT 55.852631 -6.503305 15,475 98 427 -1920
2021-10-15 12:20:24 GMT 55.853485 -6.513561 15,575 98 430 -2496
2021-10-15 12:20:23 GMT 55.853485 -6.513561 15,575 98 430 -2496
2021-10-15 12:20:20 GMT 55.854355 -6.524381 15,725 98 433 -3392
2021-10-15 12:20:19 GMT 55.854679 -6.528111 15,800 98 433 -3392
2021-10-15 12:20:17 GMT 55.855190 -6.534805 15,900 97 434 -3904
2021-10-15 12:20:15 GMT 55.855820 -6.542608 16,050 97 434 -4096
2021-10-15 12:20:14 GMT 55.856094 -6.546104 16,125 97 434 -4160
2021-10-15 12:20:13 GMT 55.856682 -6.553688 16,275 97 435 -4224
2021-10-15 12:20:11 GMT 55.856918 -6.556924 16,350 97 435 -4224
2021-10-15 12:20:09 GMT 55.857471 -6.563902 16,475 97 434 -4288
2021-10-15 12:20:08 GMT 55.857742 -6.567411 16,550 97 434 -4288
2021-10-15 12:20:03 GMT 55.859116 -6.585388 16,925 97 434 -4416
2021-10-15 12:20:02 GMT 55.859390 -6.589217 17,150 97 435 -4480
2021-10-15 12:20:00 GMT 55.859940 -6.596208 17,150 97 435 -4480
2021-10-15 12:19:57 GMT 55.861221 -6.613104 17,475 97 435 -4416
2021-10-15 12:19:54 GMT 55.861496 -6.616766 17,575 97 435 -4160
2021-10-15 12:19:53 GMT 55.862312 -6.627331 17,750 97 436 -4096
2021-10-15 12:19:51 GMT 55.862312 -6.627331 17,800 97 436 -4032
2021-10-15 12:19:49 GMT 55.862869 -6.634327 17,975 97 436 -3904
2021-10-15 12:19:46 GMT 55.863739 -6.645230 18,125 98 438 -3584
2021-10-15 12:19:44 GMT 55.864288 -6.652222 18,275 97 439 -3456
2021-10-15 12:19:43 GMT 55.864563 -6.655801 18,350 97 439 -3456
2021-10-15 12:19:42 GMT 55.865246 -6.664410 18,425 98 440 -3392
2021-10-15 12:19:40 GMT 55.865433 -6.666470 18,450 98 442 -3392
2021-10-15 12:19:39 GMT 55.865757 -6.670761 18,525 98 442 -3392
2021-10-15 12:19:37 GMT 55.866318 -6.677628 18,625 98 443 -3392
2021-10-15 12:19:36 GMT 55.866623 -6.681519 18,700 97 443 -3392
2021-10-15 12:19:35 GMT 55.867107 -6.688099 18,800 97 445 -3392
2021-10-15 12:19:32 GMT 55.867805 -6.696596 18,925 97 446 -3520
2021-10-15 12:19:30 GMT 55.868866 -6.710566 19,125 97 447 -3776
2021-10-15 12:19:28 GMT 55.868866 -6.710566 19,200 97 447 -3840
2021-10-15 12:19:27 GMT 55.869186 -6.714311 19,275 97 447 -3904
2021-10-15 12:19:25 GMT 55.869690 -6.720803 19,375 97 448 -4032
2021-10-15 12:19:24 GMT 55.870102 -6.726130 19,450 97 448 -4096
2021-10-15 12:19:21 GMT 55.870926 -6.736937 19,675 97 448 -4288
2021-10-15 12:19:20 GMT 55.871483 -6.744061 19,800 97 449 -4288
2021-10-15 12:19:17 GMT 55.872574 -6.758589 20,075 97 450 -4224
2021-10-15 12:19:15 GMT 55.872574 -6.758589 20,075 97 450 -4224
2021-10-15 12:19:14 GMT 55.873169 -6.766330 20,225 97 451 -4224
2021-10-15 12:19:10 GMT 55.874229 -6.780453 20,500 97 452 -4160
2021-10-15 12:19:07 GMT 55.875069 -6.791782 20,700 97 453 -4096
2021-10-15 12:19:05 GMT 55.875347 -6.795559 20,775 97 453 -4096
2021-10-15 12:19:04 GMT 55.875641 -6.799122 20,850 97 455 -4032
2021-10-15 12:19:02 GMT 55.876186 -6.806288 20,975 97 456 -3840
2021-10-15 12:19:00 GMT 55.876743 -6.813669 21,100 97 457 -3712
2021-10-15 12:18:59 GMT 55.877060 -6.817682 21,175 97 457 -3712
2021-10-15 12:18:58 GMT 55.877335 -6.821511 21,225 97 458 -3712
2021-10-15 12:18:55 GMT 55.878113 -6.831998 21,400 97 460 -3712
2021-10-15 12:18:53 GMT 55.878845 -6.841486 21,575 97 460 -3776
2021-10-15 12:18:51 GMT 55.879211 -6.846199 21,700 97 461 -3840
2021-10-15 12:18:49 GMT 55.879818 -6.854353 21,775 97 461 -3904
2021-10-15 12:18:48 GMT 55.880238 -6.859589 21,875 97 462 -3904
2021-10-15 12:18:45 GMT 55.881027 -6.870403 22,050 97 464 -3840
2021-10-15 12:18:42 GMT 55.881912 -6.882162 22,250 97 465 -3712
2021-10-15 12:18:40 GMT 55.882519 -6.890059 22,325 97 466 -3648
2021-10-15 12:18:37 GMT 55.883217 -6.899843 22,525 97 468 -3264
2021-10-15 12:18:35 GMT 55.883865 -6.908169 22,850 97 471 -2624
2021-10-15 12:18:33 GMT 55.885391 -6.928544 22,850 97 472 -2752
2021-10-15 12:18:30 GMT 55.885681 -6.932201 22,875 97 472 -3072
2021-10-15 12:18:27 GMT 55.885963 -6.936235 22,950 97 472 -3200
2021-10-15 12:18:26 GMT 55.887131 -6.951932 23,200 97 471 -3712
2021-10-15 12:18:24 GMT 55.887314 -6.954260 23,250 97 471 -4096
2021-10-15 12:18:22 GMT 55.887592 -6.957951 23,300 97 471 -4160
2021-10-15 12:18:21 GMT 55.888195 -6.966019 23,450 97 471 -4416
2021-10-15 12:18:19 GMT 55.888504 -6.970076 23,525 97 471 -4480
2021-10-15 12:18:17 GMT 55.889053 -6.977567 23,700 97 471 -4544
2021-10-15 12:18:15 GMT 55.889404 -6.982155 24,125 97 471 -4800
2021-10-15 12:18:13 GMT 55.890930 -7.002536 24,125 97 471 -4992
2021-10-15 12:18:11 GMT 55.890930 -7.002536 24,225 97 471 -4992
2021-10-15 12:18:09 GMT 55.891220 -7.006445 24,300 97 471 -4992
2021-10-15 12:18:07 GMT 55.891968 -7.016401 24,725 97 471 -4928
2021-10-15 12:18:06 GMT 55.891968 -7.016401 24,725 97 471 -4672
2021-10-15 12:18:04 GMT 55.892712 -7.026358 24,725 97 471 -4672
2021-10-15 12:18:03 GMT 55.893597 -7.037773 24,950 98 472 0
2021-10-15 12:18:01 GMT 55.894775 -7.052723 25,175 98 472 0
2021-10-15 12:17:58 GMT 55.894775 -7.052723 25,250 98 472 -4416
2021-10-15 12:17:56 GMT 55.895367 -7.060175 25,400 98 474 -4288
2021-10-15 12:17:55 GMT 55.895645 -7.063694 25,475 98 474 -4160
2021-10-15 12:17:54 GMT 55.896332 -7.071700 25,625 98 474 -4160
2021-10-15 12:17:51 GMT 55.896713 -7.075710 25,700 99 476 -3968
2021-10-15 12:17:49 GMT 55.897831 -7.087898 26,025 99 478 -3648
2021-10-15 12:17:46 GMT 55.898716 -7.097425 26,050 100 479 -3520
2021-10-15 12:17:45 GMT 55.899742 -7.107553 26,200 100 481 -3264
2021-10-15 12:17:43 GMT 55.899742 -7.107553 26,200 100 481 -3200
2021-10-15 12:17:42 GMT 55.900764 -7.116995 26,325 101 483 -3136
2021-10-15 12:17:40 GMT 55.901138 -7.120472 26,375 101 483 -3136
2021-10-15 12:17:38 GMT 55.901962 -7.127713 26,475 101 485 -3136
2021-10-15 12:17:35 GMT 55.903324 -7.139225 26,625 102 487 -2816
2021-10-15 12:17:34 GMT 55.904709 -7.150601 26,725 102 488 -2560
2021-10-15 12:17:32 GMT 55.904709 -7.150601 26,750 102 489 -2432
2021-10-15 12:17:29 GMT 55.906403 -7.163918 26,875 103 490 -2176
2021-10-15 12:17:27 GMT 55.907749 -7.173986 26,925 103 490 -2176
2021-10-15 12:17:26 GMT 55.907749 -7.173986 26,950 103 491 -2112
2021-10-15 12:17:25 GMT 55.908234 -7.177901 26,975 103 491 -2112
2021-10-15 12:17:24 GMT 55.908966 -7.183560 27,025 103 491 -2048
2021-10-15 12:17:21 GMT 55.910400 -7.194586 27,125 102 492 -2048
2021-10-15 12:17:20 GMT 55.911427 -7.202311 27,200 102 493 -1984
2021-10-15 12:17:17 GMT 55.912914 -7.214241 27,300 102 494 -1984
2021-10-15 12:17:15 GMT 55.913498 -7.218600 27,325 102 494 -2048
2021-10-15 12:17:13 GMT 55.914230 -7.224509 27,400 102 494 -2048
2021-10-15 12:17:12 GMT 55.915283 -7.232583 27,425 102 495 -1984
2021-10-15 12:17:10 GMT 55.915787 -7.236661 27,475 102 496 -1984
2021-10-15 12:17:09 GMT 55.916920 -7.245312 27,550 102 496 -1984
2021-10-15 12:17:07 GMT 55.917339 -7.248831 27,600 102 496 -1920
2021-10-15 12:17:05 GMT 55.918453 -7.257500 27,675 102 497 -1920
2021-10-15 12:17:03 GMT 55.920044 -7.270286 27,775 102 498 -1984
2021-10-15 12:17:01 GMT 55.920502 -7.273782 27,800 102 498 -1984
2021-10-15 12:17:00 GMT 55.920959 -7.277277 27,825 102 499 -2048
2021-10-15 12:16:58 GMT 55.922180 -7.287025 27,900 102 499 -2112
2021-10-15 12:16:57 GMT 55.922691 -7.291059 27,950 102 499 -2112
2021-10-15 12:16:56 GMT 55.923622 -7.298613 28,025 102 500 -2112
2021-10-15 12:16:54 GMT 55.924072 -7.302246 28,050 102 500 -2112
2021-10-15 12:16:52 GMT 55.925064 -7.309856 28,100 102 501 -2048
2021-10-15 12:16:51 GMT 55.925529 -7.313461 28,150 102 501 -1984
2021-10-15 12:16:50 GMT 55.927094 -7.325967 28,200 102 502 -1920
2021-10-15 12:16:48 GMT 55.927094 -7.325967 28,250 102 502 -1920
2021-10-15 12:16:47 GMT 55.928146 -7.334290 28,325 102 503 -1792
2021-10-15 12:16:44 GMT 55.930046 -7.348995 28,400 102 504 -1600
2021-10-15 12:16:41 GMT 55.930744 -7.354574 28,425 102 505 -1600
2021-10-15 12:16:39 GMT 55.931442 -7.360008 28,475 102 505 -1600
2021-10-15 12:16:38 GMT 55.931992 -7.364502 28,500 102 507 -1664
2021-10-15 12:16:37 GMT 55.932514 -7.368479 28,575 102 507 -1856
2021-10-15 12:16:35 GMT 55.934982 -7.387877 28,700 102 508 -2176
2021-10-15 12:16:33 GMT 55.935837 -7.394631 28,725 102 508 -2560
2021-10-15 12:16:31 GMT 55.936340 -7.398626 28,800 102 508 -2752
2021-10-15 12:16:29 GMT 55.936844 -7.402468 28,850 102 508 -2816
2021-10-15 12:16:27 GMT 55.938332 -7.414312 29,000 102 508 -2816
2021-10-15 12:16:25 GMT 55.939499 -7.423153 29,100 102 508 -2880
2021-10-15 12:16:23 GMT 55.940010 -7.427187 29,150 102 509 -2880
2021-10-15 12:16:22 GMT 55.941128 -7.435856 29,225 102 509 -2752
2021-10-15 12:16:19 GMT 55.941685 -7.440491 29,275 102 509 -2624
2021-10-15 12:16:18 GMT 55.942200 -7.444319 29,325 102 509 -2624
2021-10-15 12:16:17 GMT 55.942657 -7.448065 29,425 102 509 -2688
2021-10-15 12:16:15 GMT 55.943985 -7.458385 29,425 102 509 -2752
2021-10-15 12:16:14 GMT 55.944489 -7.462130 29,525 102 509 -2944
2021-10-15 12:16:12 GMT 55.945595 -7.470961 29,625 102 509 -3072
2021-10-15 12:16:11 GMT 55.946201 -7.475424 29,700 102 510 -3072
2021-10-15 12:16:09 GMT 55.947178 -7.483320 29,750 102 510 -3072
2021-10-15 12:16:08 GMT 55.947693 -7.487183 29,825 102 510 -3008
2021-10-15 12:16:06 GMT 55.948574 -7.494049 29,925 102 510 -2944
2021-10-15 12:16:05 GMT 55.949295 -7.499834 29,975 103 511 -2944
2021-10-15 12:16:04 GMT 55.949799 -7.503662 30,025 103 511 -3008
2021-10-15 12:16:02 GMT 55.950901 -7.511902 30,100 103 511 -3008
2021-10-15 12:16:01 GMT 55.951401 -7.516063 30,175 103 510 -3072
2021-10-15 12:15:59 GMT 55.952438 -7.523918 30,250 103 510 -3072
2021-10-15 12:15:58 GMT 55.952957 -7.528048 30,350 103 510 -3136
2021-10-15 12:15:57 GMT 55.954021 -7.535934 30,425 103 510 -3136
2021-10-15 12:15:54 GMT 55.956070 -7.551641 30,675 103 510 -3072
2021-10-15 12:15:50 GMT 55.957077 -7.559509 30,800 103 510 -3072
2021-10-15 12:15:48 GMT 55.958084 -7.567250 30,825 103 510 -3008
2021-10-15 12:15:47 GMT 55.958675 -7.571554 30,925 103 510 -3008
2021-10-15 12:15:46 GMT 55.959793 -7.580137 30,975 103 510 -3008
2021-10-15 12:15:44 GMT 55.960304 -7.584343 31,000 103 510 -3072
2021-10-15 12:15:43 GMT 55.961426 -7.592718 31,125 103 510 -3072
2021-10-15 12:15:41 GMT 55.961933 -7.596703 31,175 103 510 -3136
2021-10-15 12:15:40 GMT 55.962982 -7.604703 31,275 103 510 -3200
2021-10-15 12:15:38 GMT 55.963440 -7.608365 31,325 102 509 -3264
2021-10-15 12:15:37 GMT 55.963982 -7.612410 31,375 102 509 -3264
2021-10-15 12:15:35 GMT 55.965099 -7.621078 31,500 102 509 -3392
2021-10-15 12:15:33 GMT 55.967102 -7.636663 31,725 102 508 -3456
2021-10-15 12:15:31 GMT 55.967102 -7.636663 31,725 102 508 -3456
2021-10-15 12:15:30 GMT 55.968246 -7.645735 31,900 102 508 -3456
2021-10-15 12:15:28 GMT 55.968704 -7.649564 31,900 102 508 -3456
2021-10-15 12:15:27 GMT 55.969208 -7.653309 32,000 102 508 -3456
2021-10-15 12:15:25 GMT 55.970215 -7.661299 32,050 102 507 -3456
2021-10-15 12:15:23 GMT 55.971336 -7.670431 32,175 102 507 -3456
2021-10-15 12:15:22 GMT 55.971851 -7.674379 32,350 102 507 -3456
2021-10-15 12:15:20 GMT 55.974178 -7.693176 32,500 102 506 -3392
2021-10-15 12:15:18 GMT 55.974178 -7.693176 32,500 102 506 -3392
2021-10-15 12:15:16 GMT 55.975159 -7.701083 32,600 102 505 -3392
2021-10-15 12:15:15 GMT 55.975662 -7.704995 32,700 102 504 -3392
2021-10-15 12:15:12 GMT 55.976971 -7.715664 32,775 102 504 -3392
2021-10-15 12:15:11 GMT 55.977764 -7.722101 32,925 102 504 -3328
2021-10-15 12:15:09 GMT 55.978275 -7.726307 32,950 102 504 -3328
2021-10-15 12:15:08 GMT 55.978775 -7.730297 33,000 102 503 -3264
2021-10-15 12:15:05 GMT 55.980743 -7.746220 33,200 102 502 -3008
2021-10-15 12:15:03 GMT 55.981300 -7.750683 33,300 102 502 -2880
2021-10-15 12:15:01 GMT 55.982758 -7.762257 33,400 102 502 -2688
2021-10-15 12:14:59 GMT 55.983719 -7.770164 33,500 102 502 -2304
2021-10-15 12:14:57 GMT 55.984726 -7.778071 33,575 102 502 -2304
2021-10-15 12:14:56 GMT 55.985275 -7.782815 33,625 102 502 -2240
2021-10-15 12:14:55 GMT 55.986237 -7.790472 33,675 102 501 -1984
2021-10-15 12:14:53 GMT 55.986740 -7.794217 33,725 102 501 -1856
2021-10-15 12:14:52 GMT 55.987724 -7.802525 33,775 102 501 -1600
2021-10-15 12:14:49 GMT 55.989262 -7.814627 33,850 102 501 -1280
2021-10-15 12:14:47 GMT 55.989807 -7.819103 33,875 102 501 -960
2021-10-15 12:14:46 GMT 55.990265 -7.822765 33,900 102 501 -960
2021-10-15 12:14:45 GMT 55.991180 -7.830256 33,925 102 501 -832
2021-10-15 12:14:43 GMT 55.991638 -7.833918 33,950 102 501 -704
2021-10-15 12:14:41 GMT 55.992615 -7.841663 33,975 102 501 -576
2021-10-15 12:14:40 GMT 55.993561 -7.849399 33,975 102 502 -384
2021-10-15 12:14:38 GMT 55.994007 -7.852993 34,000 102 502 -256
2021-10-15 12:14:37 GMT 55.995026 -7.861300 34,000 102 502 -64
2021-10-15 12:14:34 GMT 55.996105 -7.869816 34,000 102 502 0
2021-10-15 12:14:33 GMT 55.996628 -7.874035 34,000 102 502 0
2021-10-15 12:14:31 GMT 55.997826 -7.883892 34,000 102 502 0
2021-10-15 12:14:29 GMT 55.998688 -7.890764 34,000 102 502 0
2021-10-15 12:14:27 GMT 55.999741 -7.899253 34,000 102 502 0
2021-10-15 12:14:26 GMT 56.000851 -7.908096 34,000 102 502 0
2021-10-15 12:14:24 GMT 56.001251 -7.911571 34,000 102 502 0
2021-10-15 12:14:23 GMT 56.001801 -7.915899 34,000 102 502 0
2021-10-15 12:14:21 GMT 56.002808 -7.923975 34,000 102 502 0
2021-10-15 12:14:19 GMT 56.004272 -7.935791 34,000 102 503 0
2021-10-15 12:14:17 GMT 56.004868 -7.940285 34,000 102 503 0
2021-10-15 12:14:15 GMT 56.005783 -7.947693 34,000 102 503 0
2021-10-15 12:14:14 GMT 56.006348 -7.952127 34,000 102 503 0
2021-10-15 12:14:13 GMT 56.006859 -7.956333 34,000 102 503 0
2021-10-15 12:14:11 GMT 56.007881 -7.964401 34,000 102 503 0
2021-10-15 12:14:09 GMT 56.008953 -7.973070 34,000 102 503 0
2021-10-15 12:14:08 GMT 56.009445 -7.976990 34,000 102 503 0
2021-10-15 12:14:07 GMT 56.009903 -7.980485 34,000 102 502 0
2021-10-15 12:14:05 GMT 56.010956 -7.988863 34,000 102 502 0
2021-10-15 12:14:04 GMT 56.011467 -7.993155 34,000 102 502 0
2021-10-15 12:14:02 GMT 56.012558 -8.001626 34,000 102 502 0
2021-10-15 12:14:00 GMT 56.013290 -8.007535 34,000 102 502 0
2021-10-15 12:13:58 GMT 56.014446 -8.016672 34,000 102 502 0
2021-10-15 12:13:56 GMT 56.015305 -8.023682 34,000 102 502 0
2021-10-15 12:13:54 GMT 56.016861 -8.035916 34,000 102 502 0
2021-10-15 12:13:52 GMT 56.017097 -8.038044 34,000 102 502 64
2021-10-15 12:13:51 GMT 56.017612 -8.041992 34,000 102 502 64
2021-10-15 12:13:49 GMT 56.018646 -8.050315 34,000 102 502 64
2021-10-15 12:13:48 GMT 56.019379 -8.055892 34,000 102 501 0
2021-10-15 12:13:46 GMT 56.020542 -8.065081 34,000 102 501 0
2021-10-15 12:13:44 GMT 56.021427 -8.072205 34,000 103 501 -64
2021-10-15 12:13:42 GMT 56.022591 -8.081131 34,000 103 502 -64
2021-10-15 12:13:41 GMT 56.023106 -8.085251 34,000 103 502 -128
2021-10-15 12:13:39 GMT 56.025337 -8.101988 34,000 103 502 0
2021-10-15 12:13:37 GMT 56.025337 -8.101988 34,000 103 501 64
2021-10-15 12:13:35 GMT 56.026085 -8.107824 34,000 102 501 128
2021-10-15 12:13:34 GMT 56.026688 -8.112459 34,000 102 502 128
2021-10-15 12:13:33 GMT 56.027153 -8.116236 34,000 101 502 128
2021-10-15 12:13:31 GMT 56.028133 -8.124390 34,000 101 502 64
2021-10-15 12:13:30 GMT 56.028580 -8.128468 34,000 99 502 0
2021-10-15 12:13:28 GMT 56.029343 -8.136148 34,000 99 502 -64
2021-10-15 12:13:27 GMT 56.029770 -8.140536 34,000 98 501 -64
2021-10-15 12:13:25 GMT 56.030457 -8.148610 34,000 97 502 0
2021-10-15 12:13:23 GMT 56.031017 -8.156834 34,000 96 501 0
2021-10-15 12:13:22 GMT 56.031250 -8.160954 34,000 95 501 0
2021-10-15 12:13:21 GMT 56.031464 -8.165255 34,000 94 501 0
2021-10-15 12:13:19 GMT 56.031857 -8.173914 34,000 92 501 0
2021-10-15 12:13:16 GMT 56.032181 -8.185759 34,000 90 501 0
2021-10-15 12:13:15 GMT 56.032276 -8.194256 34,000 89 501 64
2021-10-15 12:13:13 GMT 56.032333 -8.197798 34,000 88 501 64
2021-10-15 12:13:12 GMT 56.032230 -8.206015 34,000 87 500 64
2021-10-15 12:13:09 GMT 56.032104 -8.214361 34,000 87 500 0
2021-10-15 12:13:06 GMT 56.031670 -8.226786 34,000 85 499 -64
2021-10-15 12:13:00 GMT 56.030090 -8.251898 34,000 80 498 64
2021-10-15 12:12:58 GMT 56.029388 -8.259830 34,000 79 499 64
2021-10-15 12:12:54 GMT 56.027805 -8.273993 34,000 74 498 -128
2021-10-15 12:12:50 GMT 56.025330 -8.291931 34,000 73 497 -128
2021-10-15 12:12:47 GMT 56.021336 -8.315535 34,000 72 498 0
2021-10-15 12:12:44 GMT 56.018692 -8.330633 34,000 72 497 64
2021-10-15 12:12:40 GMT 56.018692 -8.330633 34,000 72 498 0
2021-10-15 12:12:38 GMT 56.017006 -8.340168 34,000 72 498 0
2021-10-15 12:12:31 GMT 56.012604 -8.365257 34,000 72 497 0
2021-10-15 12:12:29 GMT 56.010544 -8.376909 34,000 72 497 0
2021-10-15 12:12:25 GMT 56.007790 -8.392439 34,000 72 497 0
2021-10-15 12:12:20 GMT 56.004765 -8.409262 34,000 71 496 0
2021-10-15 12:12:18 GMT 56.003738 -8.415012 34,000 71 497 -64
2021-10-15 12:12:14 GMT 56.000381 -8.433339 34,000 64 493 0
2021-10-15 12:12:10 GMT 55.995125 -8.461018 34,000 70 495 0
2021-10-15 12:12:06 GMT 55.995125 -8.461018 34,000 70 495 0
2021-10-15 12:12:03 GMT 55.992798 -8.472433 34,000 64 493 0
2021-10-15 12:12:00 GMT 55.989441 -8.487604 34,000 65 493 0
2021-10-15 12:11:56 GMT 55.986652 -8.498697 34,000 63 493 0
2021-10-15 12:11:53 GMT 55.983032 -8.511658 34,000 61 493 0
2021-10-15 12:11:48 GMT 55.975754 -8.533880 34,000 55 491 0
2021-10-15 12:11:44 GMT 55.971478 -8.545218 34,000 53 490 0
2021-10-15 12:11:40 GMT 55.966637 -8.556890 34,000 50 490 0
2021-10-15 12:11:36 GMT 55.962399 -8.566160 34,000 45 488 0
2021-10-15 12:11:30 GMT 55.951035 -8.587813 34,000 42 487 0
2021-10-15 12:11:27 GMT 55.946548 -8.595304 34,000 40 487 0
2021-10-15 12:11:24 GMT 55.943161 -8.600630 34,000 36 486 0
2021-10-15 12:11:21 GMT 55.936516 -8.610191 34,000 35 485 0
2021-10-15 12:11:19 GMT 55.933769 -8.613796 34,000 34 484 0
2021-10-15 12:11:16 GMT 55.927551 -8.621521 34,000 31 484 0
2021-10-15 12:11:10 GMT 55.915569 -8.634567 34,000 27 483 0
2021-10-15 12:11:05 GMT 55.907547 -8.641912 34,000 3 476 0
2021-10-15 12:11:01 GMT 55.897888 -8.649569 34,000 20 480 0
2021-10-15 12:10:59 GMT 55.894016 -8.652163 34,000 19 480 0
2021-10-15 12:10:57 GMT 55.889969 -8.654730 34,000 17 480 0
2021-10-15 12:10:54 GMT 55.883972 -8.658142 34,000 16 480 0
2021-10-15 12:10:50 GMT 55.875275 -8.662304 34,000 12 479 0
2021-10-15 12:10:48 GMT 55.870087 -8.664436 34,000 9 478 0
2021-10-15 12:10:45 GMT 55.864269 -8.666325 34,000 7 477 0
2021-10-15 12:10:41 GMT 55.854675 -8.668712 34,000 4 476 0
2021-10-15 12:10:39 GMT 55.851471 -8.669212 34,000 3 476 0
2021-10-15 12:10:37 GMT 55.846111 -8.669930 34,000 0 476 0
2021-10-15 12:10:34 GMT 55.840759 -8.670187 34,000 0 476 0
2021-10-15 12:10:31 GMT 55.833160 -8.670127 34,000 357 474 0
2021-10-15 12:10:29 GMT 55.829041 -8.669794 34,000 356 474 0
2021-10-15 12:10:27 GMT 55.823906 -8.669071 34,000 352 472 0
2021-10-15 12:10:24 GMT 55.819393 -8.668299 34,000 351 472 0
2021-10-15 12:10:20 GMT 55.802673 -8.663053 34,000 347 471 0
2021-10-15 12:10:17 GMT 55.802673 -8.663053 34,000 344 470 0
2021-10-15 12:10:14 GMT 55.798164 -8.661089 34,000 344 470 0
2021-10-15 12:10:11 GMT 55.789810 -8.656727 34,000 341 470 0
2021-10-15 12:10:09 GMT 55.780792 -8.650901 34,000 332 468 0
2021-10-15 12:10:06 GMT 55.780792 -8.650901 34,000 335 468 0
2021-10-15 12:10:03 GMT 55.769955 -8.642550 34,000 329 468 0
2021-10-15 12:10:01 GMT 55.769955 -8.642550 34,000 329 468 0
2021-10-15 12:09:59 GMT 55.767059 -8.639915 34,000 332 468 0
2021-10-15 12:09:57 GMT 55.762363 -8.635511 34,000 330 468 0
2021-10-15 12:09:55 GMT 55.759277 -8.632424 34,000 327 467 0
2021-10-15 12:09:53 GMT 55.755337 -8.628130 34,000 328 467 0
2021-10-15 12:09:49 GMT 55.748245 -8.619690 34,000 323 466 0
2021-10-15 12:09:47 GMT 55.740952 -8.609848 34,000 320 466 0
2021-10-15 12:09:44 GMT 55.740952 -8.609848 34,000 317 466 0
2021-10-15 12:09:39 GMT 55.726242 -8.585815 34,000 312 466 0
2021-10-15 12:09:35 GMT 55.724052 -8.581610 34,000 304 465 -64
2021-10-15 12:09:29 GMT 55.717072 -8.567019 34,000 307 465 64
2021-10-15 12:09:24 GMT 55.711624 -8.553886 34,000 304 465 -64
2021-10-15 12:09:19 GMT 55.704895 -8.534879 34,000 300 464 0
2021-10-15 12:09:17 GMT 55.702560 -8.527721 34,000 300 464 0
2021-10-15 12:09:14 GMT 55.698914 -8.516293 34,000 300 463 0
2021-10-15 12:09:09 GMT 55.694641 -8.502919 34,000 300 463 0
2021-10-15 12:09:06 GMT 55.691895 -8.494263 34,000 300 463 0
2021-10-15 12:09:03 GMT 55.688599 -8.484109 34,000 300 464 0
2021-10-15 12:08:59 GMT 55.682510 -8.465049 34,000 300 464 0
2021-10-15 12:08:53 GMT 55.677795 -8.450234 34,000 300 464 0
2021-10-15 12:08:49 GMT 55.673950 -8.438332 34,000 300 464 0
2021-10-15 12:08:47 GMT 55.671249 -8.429760 34,000 300 464 0
2021-10-15 12:08:44 GMT 55.668655 -8.421793 34,000 300 464 0
2021-10-15 12:08:42 GMT 55.666420 -8.414755 34,000 300 464 0
2021-10-15 12:08:39 GMT 55.663651 -8.406039 34,000 300 464 0
2021-10-15 12:08:37 GMT 55.661865 -8.400546 34,000 300 464 0
2021-10-15 12:08:34 GMT 55.657810 -8.387890 34,000 300 463 0
2021-10-15 12:08:32 GMT 55.655823 -8.381653 34,000 300 463 0
2021-10-15 12:08:29 GMT 55.653152 -8.373384 34,000 300 463 0
2021-10-15 12:08:27 GMT 55.651291 -8.367587 34,000 300 463 0
2021-10-15 12:08:24 GMT 55.646713 -8.353271 34,000 300 463 0
2021-10-15 12:08:20 GMT 55.643379 -8.342829 34,000 300 463 -64
2021-10-15 12:08:18 GMT 55.641220 -8.336126 34,000 300 463 -64
2021-10-15 12:08:15 GMT 55.638107 -8.326388 34,000 300 463 0
2021-10-15 12:08:13 GMT 55.635975 -8.319740 34,000 300 463 0
2021-10-15 12:08:10 GMT 55.632858 -8.310127 34,000 300 463 0
2021-10-15 12:08:08 GMT 55.630760 -8.303604 34,000 300 463 0
2021-10-15 12:08:05 GMT 55.627533 -8.293513 34,000 300 463 0
2021-10-15 12:08:02 GMT 55.623825 -8.282027 34,000 300 463 0
2021-10-15 12:07:59 GMT 55.621582 -8.275036 34,000 300 463 0
2021-10-15 12:07:56 GMT 55.616638 -8.259721 34,000 300 463 0
2021-10-15 12:07:53 GMT 55.613956 -8.251333 34,000 300 463 0
2021-10-15 12:07:50 GMT 55.611816 -8.244724 34,000 300 464 0
2021-10-15 12:07:48 GMT 55.609394 -8.237257 34,000 300 464 0
2021-10-15 12:07:45 GMT 55.604050 -8.220603 34,000 300 464 0
2021-10-15 12:07:43 GMT 55.604050 -8.220603 34,000 300 464 0
2021-10-15 12:07:40 GMT 55.600830 -8.210649 34,000 300 464 0
2021-10-15 12:07:38 GMT 55.598782 -8.204298 34,000 300 464 0
2021-10-15 12:07:36 GMT 55.596638 -8.197689 34,000 300 464 0
2021-10-15 12:07:33 GMT 55.593521 -8.187990 34,000 300 464 0
2021-10-15 12:07:30 GMT 55.590408 -8.178406 34,000 300 464 0
2021-10-15 12:07:28 GMT 55.587749 -8.170223 34,000 300 464 0
2021-10-15 12:07:25 GMT 55.585327 -8.162670 34,000 300 464 0
2021-10-15 12:07:23 GMT 55.582485 -8.154001 34,000 300 464 0
2021-10-15 12:07:20 GMT 55.579834 -8.145761 34,000 300 464 0
2021-10-15 12:07:18 GMT 55.577087 -8.137290 34,000 300 464 0
2021-10-15 12:07:16 GMT 55.571968 -8.121471 34,000 300 464 0
2021-10-15 12:07:13 GMT 55.569214 -8.112987 34,000 300 464 0
2021-10-15 12:07:10 GMT 55.569214 -8.112987 34,000 300 464 0
2021-10-15 12:07:08 GMT 55.566521 -8.104734 34,000 300 464 0
2021-10-15 12:07:06 GMT 55.561817 -8.090229 34,000 300 464 0
2021-10-15 12:07:03 GMT 55.561817 -8.090229 34,000 300 464 0
2021-10-15 12:07:00 GMT 55.558140 -8.078814 34,000 300 464 0
2021-10-15 12:06:57 GMT 55.555893 -8.071955 34,000 300 464 0
2021-10-15 12:06:55 GMT 55.552788 -8.062334 34,000 300 464 0
2021-10-15 12:06:52 GMT 55.547714 -8.046799 34,000 300 464 0
2021-10-15 12:06:50 GMT 55.547714 -8.046799 34,000 300 464 0
2021-10-15 12:06:47 GMT 55.542206 -8.029841 34,000 300 464 0
2021-10-15 12:06:45 GMT 55.542206 -8.029841 34,000 300 464 0
2021-10-15 12:06:43 GMT 55.539474 -8.021393 34,000 300 464 0
2021-10-15 12:06:40 GMT 55.536575 -8.012446 34,000 300 464 0
2021-10-15 12:06:37 GMT 55.533508 -8.003124 34,000 300 464 0
2021-10-15 12:06:34 GMT 55.530952 -7.995300 34,000 300 465 0
2021-10-15 12:06:32 GMT 55.528721 -7.988348 34,000 300 465 0
2021-10-15 12:06:30 GMT 55.526112 -7.980366 34,000 300 465 0
2021-10-15 12:06:26 GMT 55.523300 -7.971746 34,000 300 465 0
2021-10-15 12:06:24 GMT 55.520664 -7.963715 34,000 300 465 0
2021-10-15 12:06:22 GMT 55.517735 -7.954702 34,000 300 465 0
2021-10-15 12:06:19 GMT 55.511169 -7.934626 34,000 300 465 0
2021-10-15 12:06:16 GMT 55.511169 -7.934626 34,000 300 465 0
2021-10-15 12:06:13 GMT 55.508514 -7.926550 34,000 300 465 0
2021-10-15 12:06:10 GMT 55.504700 -7.914791 34,000 300 465 0
2021-10-15 12:06:08 GMT 55.500824 -7.902998 34,000 301 465 0
2021-10-15 12:06:06 GMT 55.500824 -7.902998 34,000 301 465 0
2021-10-15 12:06:04 GMT 55.499020 -7.897453 34,000 301 465 0
2021-10-15 12:06:02 GMT 55.496017 -7.888350 34,000 300 466 0
2021-10-15 12:05:59 GMT 55.492970 -7.878914 34,000 300 466 0
2021-10-15 12:05:56 GMT 55.486450 -7.859087 34,000 300 466 0
2021-10-15 12:05:53 GMT 55.486450 -7.859087 34,000 300 466 0
2021-10-15 12:05:50 GMT 55.483063 -7.848816 34,000 300 466 0
2021-10-15 12:05:47 GMT 55.480270 -7.840243 34,000 300 466 0
2021-10-15 12:05:45 GMT 55.475922 -7.827010 34,000 300 466 0
2021-10-15 12:05:43 GMT 55.475922 -7.827010 34,000 300 466 0
2021-10-15 12:05:40 GMT 55.472305 -7.815940 34,000 300 466 0
2021-10-15 12:05:37 GMT 55.469742 -7.808117 34,000 300 466 0
2021-10-15 12:05:35 GMT 55.467316 -7.800709 34,000 301 466 0
2021-10-15 12:05:33 GMT 55.465221 -7.794456 34,000 301 466 0
2021-10-15 12:05:30 GMT 55.461411 -7.782815 34,000 301 466 0
2021-10-15 12:05:26 GMT 55.457447 -7.770767 34,000 301 466 0
2021-10-15 12:05:23 GMT 55.454609 -7.762098 34,000 301 466 0
2021-10-15 12:05:20 GMT 55.450932 -7.751026 34,000 301 466 0
2021-10-15 12:05:17 GMT 55.447861 -7.741616 34,000 301 466 0
2021-10-15 12:05:15 GMT 55.445206 -7.733543 34,000 301 466 0
2021-10-15 12:05:13 GMT 55.443623 -7.728882 34,000 301 466 0
2021-10-15 12:05:10 GMT 55.439850 -7.717330 34,000 301 466 0
2021-10-15 12:05:07 GMT 55.437012 -7.708848 34,000 301 466 0
2021-10-15 12:05:04 GMT 55.432728 -7.695840 34,000 301 467 0
2021-10-15 12:05:00 GMT 55.429504 -7.686067 34,000 301 467 0
2021-10-15 12:04:58 GMT 55.424538 -7.670871 34,000 301 467 0
2021-10-15 12:04:55 GMT 55.424538 -7.670871 34,000 301 467 0
2021-10-15 12:04:52 GMT 55.420761 -7.659571 34,000 301 467 0
2021-10-15 12:04:49 GMT 55.414200 -7.639660 34,000 301 467 0
2021-10-15 12:04:46 GMT 55.414200 -7.639660 34,000 301 467 0
2021-10-15 12:04:44 GMT 55.412617 -7.634915 34,000 301 467 0
2021-10-15 12:04:42 GMT 55.410568 -7.628673 34,000 301 467 0
2021-10-15 12:04:39 GMT 55.407486 -7.619342 34,000 301 467 0
2021-10-15 12:04:37 GMT 55.404327 -7.609809 34,000 301 467 0
2021-10-15 12:04:35 GMT 55.402405 -7.604074 34,000 301 467 0
2021-10-15 12:04:32 GMT 55.399292 -7.594622 34,000 301 467 0
2021-10-15 12:04:29 GMT 55.395859 -7.584229 34,000 301 467 0
2021-10-15 12:04:26 GMT 55.392517 -7.574185 34,000 301 467 0
2021-10-15 12:04:24 GMT 55.390179 -7.567166 34,000 301 467 0
2021-10-15 12:04:22 GMT 55.385155 -7.552019 34,000 301 467 0
2021-10-15 12:04:19 GMT 55.385155 -7.552019 34,000 301 467 0
2021-10-15 12:04:17 GMT 55.383102 -7.545693 34,000 301 467 0
2021-10-15 12:04:15 GMT 55.381165 -7.539933 34,000 301 467 0
2021-10-15 12:04:13 GMT 55.378727 -7.532626 34,000 301 467 0
2021-10-15 12:04:09 GMT 55.370590 -7.508105 34,000 301 466 0
2021-10-15 12:04:06 GMT 55.370590 -7.508105 34,000 301 467 0
2021-10-15 12:04:04 GMT 55.367973 -7.500166 34,000 301 467 0
2021-10-15 12:04:01 GMT 55.364716 -7.490429 34,000 301 467 0
2021-10-15 12:03:58 GMT 55.362667 -7.484270 34,000 301 467 0
2021-10-15 12:03:55 GMT 55.355312 -7.462130 34,000 301 467 0
2021-10-15 12:03:52 GMT 55.355312 -7.462130 34,000 301 467 0
2021-10-15 12:03:49 GMT 55.352657 -7.454140 34,000 301 467 0
2021-10-15 12:03:47 GMT 55.348423 -7.441573 34,000 301 467 0
2021-10-15 12:03:43 GMT 55.344048 -7.428339 34,000 301 467 0
2021-10-15 12:03:41 GMT 55.344048 -7.428339 34,000 301 467 0
2021-10-15 12:03:38 GMT 55.338959 -7.413186 34,000 301 466 0
2021-10-15 12:03:36 GMT 55.338959 -7.413186 34,000 301 466 0
2021-10-15 12:03:34 GMT 55.333900 -7.397960 34,000 301 466 0
2021-10-15 12:03:32 GMT 55.330536 -7.387983 34,000 301 466 0
2021-10-15 12:03:29 GMT 55.330536 -7.387983 34,000 301 466 0
2021-10-15 12:03:26 GMT 55.327847 -7.379899 34,000 301 466 0
2021-10-15 12:03:24 GMT 55.324959 -7.371327 34,000 301 465 0
2021-10-15 12:03:22 GMT 55.323212 -7.366010 34,000 301 465 0
2021-10-15 12:03:18 GMT 55.318954 -7.353408 34,000 301 465 0
2021-10-15 12:03:15 GMT 55.315247 -7.342260 34,000 301 465 0
2021-10-15 12:03:13 GMT 55.313648 -7.337536 34,000 301 465 0
2021-10-15 12:03:11 GMT 55.311447 -7.331031 34,000 301 465 0
2021-10-15 12:03:08 GMT 55.308334 -7.321741 34,000 301 465 0
2021-10-15 12:03:06 GMT 55.306046 -7.314875 34,000 301 465 0
2021-10-15 12:03:04 GMT 55.303345 -7.306797 34,000 301 464 0
2021-10-15 12:03:02 GMT 55.301285 -7.300657 34,000 301 464 0
2021-10-15 12:02:59 GMT 55.297211 -7.288540 34,000 301 464 0
2021-10-15 12:02:56 GMT 55.294842 -7.281522 34,000 301 464 0
2021-10-15 12:02:54 GMT 55.291721 -7.272200 34,000 301 464 0
2021-10-15 12:02:51 GMT 55.289429 -7.265356 34,000 301 463 0
2021-10-15 12:02:48 GMT 55.284878 -7.251809 34,000 301 464 0
2021-10-15 12:02:45 GMT 55.281006 -7.240313 34,000 301 464 0
2021-10-15 12:02:43 GMT 55.281006 -7.240313 34,000 301 464 0
2021-10-15 12:02:41 GMT 55.278362 -7.232333 34,000 301 464 0
2021-10-15 12:02:38 GMT 55.275520 -7.223927 34,000 301 464 0
2021-10-15 12:02:36 GMT 55.272858 -7.216079 34,000 301 464 0
2021-10-15 12:02:34 GMT 55.270569 -7.209293 34,000 301 464 0
2021-10-15 12:02:31 GMT 55.267750 -7.200955 34,000 301 464 0
2021-10-15 12:02:28 GMT 55.263836 -7.189387 34,000 301 465 0
2021-10-15 12:02:25 GMT 55.261463 -7.182312 34,000 301 464 0
2021-10-15 12:02:23 GMT 55.259274 -7.175820 34,000 301 465 0
2021-10-15 12:02:21 GMT 55.256653 -7.168094 34,000 301 465 0
2021-10-15 12:02:18 GMT 55.252991 -7.157260 34,000 301 465 0
2021-10-15 12:02:16 GMT 55.251251 -7.152100 34,000 301 465 0
2021-10-15 12:02:14 GMT 55.249466 -7.146768 34,000 301 465 0
2021-10-15 12:02:11 GMT 55.245449 -7.134871 34,000 301 465 0
2021-10-15 12:02:09 GMT 55.243729 -7.129794 34,000 301 465 0
2021-10-15 12:02:06 GMT 55.240082 -7.118979 34,000 301 465 0
2021-10-15 12:02:04 GMT 55.237816 -7.112233 34,000 301 465 0
2021-10-15 12:02:01 GMT 55.234650 -7.102911 34,000 301 465 0
2021-10-15 12:01:58 GMT 55.231297 -7.092923 34,000 301 465 0
2021-10-15 12:01:55 GMT 55.227814 -7.082708 34,000 301 465 0
2021-10-15 12:01:53 GMT 55.226177 -7.077859 34,000 301 466 0
2021-10-15 12:01:51 GMT 55.223522 -7.069952 34,000 301 466 0
2021-10-15 12:01:49 GMT 55.221634 -7.064371 34,000 301 466 0
2021-10-15 12:01:47 GMT 55.219803 -7.059039 34,000 301 466 0
2021-10-15 12:01:45 GMT 55.216820 -7.050226 34,000 301 466 0
2021-10-15 12:01:41 GMT 55.212479 -7.037389 34,000 301 466 0
2021-10-15 12:01:39 GMT 55.210739 -7.032219 34,000 301 466 0
2021-10-15 12:01:37 GMT 55.208439 -7.025507 34,000 301 466 0
2021-10-15 12:01:35 GMT 55.205795 -7.017598 34,000 301 466 0
2021-10-15 12:01:33 GMT 55.204010 -7.012509 34,000 301 466 0
2021-10-15 12:01:31 GMT 55.202499 -7.007985 34,000 301 466 -64
2021-10-15 12:01:28 GMT 55.199223 -6.998374 34,000 301 466 -64
2021-10-15 12:01:25 GMT 55.195171 -6.986472 34,000 301 466 0
2021-10-15 12:01:21 GMT 55.191681 -6.976152 34,000 301 466 64
2021-10-15 12:01:19 GMT 55.188469 -6.966747 34,000 301 467 0
2021-10-15 12:01:16 GMT 55.185562 -6.958223 34,000 301 467 -64
2021-10-15 12:01:14 GMT 55.183319 -6.951599 34,000 301 467 -64
2021-10-15 12:01:11 GMT 55.179932 -6.941663 34,000 301 467 -64
2021-10-15 12:01:08 GMT 55.176132 -6.930515 34,000 301 467 0
2021-10-15 12:01:05 GMT 55.172653 -6.920256 34,000 301 467 0
2021-10-15 12:01:02 GMT 55.169197 -6.910151 34,000 301 467 0
2021-10-15 12:00:59 GMT 55.166355 -6.901828 34,000 301 467 0
2021-10-15 12:00:57 GMT 55.164539 -6.896501 34,000 301 467 0
2021-10-15 12:00:54 GMT 55.160679 -6.885182 34,000 301 467 0
2021-10-15 12:00:51 GMT 55.155212 -6.869040 34,000 301 467 0
2021-10-15 12:00:49 GMT 55.152054 -6.859831 34,000 301 467 0
2021-10-15 12:00:46 GMT 55.150406 -6.854984 34,000 301 468 0
2021-10-15 12:00:41 GMT 55.143406 -6.834495 34,000 301 468 0
2021-10-15 12:00:38 GMT 55.143406 -6.834495 34,000 301 468 0
2021-10-15 12:00:35 GMT 55.140705 -6.826588 34,000 301 468 0
2021-10-15 12:00:33 GMT 55.137314 -6.816774 34,000 301 468 0
2021-10-15 12:00:31 GMT 55.133011 -6.804092 34,000 301 468 0
2021-10-15 12:00:29 GMT 55.133011 -6.804092 34,000 301 468 0
2021-10-15 12:00:26 GMT 55.130138 -6.795710 34,000 301 468 0
2021-10-15 12:00:24 GMT 55.127998 -6.789468 34,000 301 468 0
2021-10-15 12:00:21 GMT 55.121899 -6.771740 34,000 301 468 0
2021-10-15 12:00:18 GMT 55.121899 -6.771740 34,000 301 468 0
2021-10-15 12:00:15 GMT 55.117199 -6.758007 34,000 301 468 -64
2021-10-15 12:00:12 GMT 55.114334 -6.749645 34,000 301 468 0
2021-10-15 12:00:09 GMT 55.111038 -6.739951 34,000 301 468 0
2021-10-15 12:00:06 GMT 55.106071 -6.725547 34,000 302 467 0
2021-10-15 12:00:04 GMT 55.106071 -6.725547 34,000 302 467 0
2021-10-15 12:00:02 GMT 55.103931 -6.719388 34,000 301 468 0
2021-10-15 12:00:00 GMT 55.100784 -6.710223 34,000 302 467 0
2021-10-15 11:59:57 GMT 55.098110 -6.702492 34,000 301 468 0
2021-10-15 11:59:54 GMT 55.094284 -6.691320 34,000 301 468 0
2021-10-15 11:59:51 GMT 55.091595 -6.683433 34,000 301 468 0
2021-10-15 11:59:48 GMT 55.087776 -6.672280 34,000 301 468 0
2021-10-15 11:59:46 GMT 55.085869 -6.666870 34,000 301 468 0
2021-10-15 11:59:44 GMT 55.083206 -6.659088 34,000 301 468 -64
2021-10-15 11:59:41 GMT 55.078949 -6.646648 34,000 301 468 0
2021-10-15 11:59:37 GMT 55.075790 -6.637439 34,000 301 468 0
2021-10-15 11:59:35 GMT 55.074097 -6.632592 34,000 301 468 0
2021-10-15 11:59:33 GMT 55.070740 -6.622925 34,000 302 469 0
2021-10-15 11:59:30 GMT 55.067852 -6.614519 34,000 302 469 0
2021-10-15 11:59:27 GMT 55.064987 -6.606176 34,000 302 469 0
2021-10-15 11:59:24 GMT 55.060364 -6.592847 34,000 302 469 0
2021-10-15 11:59:21 GMT 55.057434 -6.584365 34,000 302 469 0
2021-10-15 11:59:18 GMT 55.051346 -6.566755 34,000 302 468 0
2021-10-15 11:59:15 GMT 55.051346 -6.566755 34,000 302 468 0
2021-10-15 11:59:13 GMT 55.047928 -6.556757 34,000 302 468 0
2021-10-15 11:59:10 GMT 55.045738 -6.550515 34,000 302 468 0
2021-10-15 11:59:07 GMT 55.042713 -6.541693 34,000 302 468 0
2021-10-15 11:59:04 GMT 55.038525 -6.529707 34,000 302 468 0
2021-10-15 11:59:02 GMT 55.035870 -6.522050 34,000 302 467 0
2021-10-15 11:58:58 GMT 55.032658 -6.512645 34,000 302 467 0
2021-10-15 11:58:55 GMT 55.029190 -6.502695 34,000 302 467 0
2021-10-15 11:58:53 GMT 55.026932 -6.496166 34,000 302 467 0
2021-10-15 11:58:51 GMT 55.024338 -6.488719 34,000 302 468 0
2021-10-15 11:58:48 GMT 55.021580 -6.480685 34,000 302 468 0
2021-10-15 11:58:45 GMT 55.017700 -6.469493 34,000 302 467 0
2021-10-15 11:58:43 GMT 55.015945 -6.464455 34,000 302 467 0
2021-10-15 11:58:41 GMT 55.013199 -6.456465 34,000 302 467 0
2021-10-15 11:58:38 GMT 55.010513 -6.448732 34,000 302 467 0
2021-10-15 11:58:35 GMT 55.006355 -6.436823 34,000 302 467 0
2021-10-15 11:58:33 GMT 55.005066 -6.433061 34,000 302 467 0
2021-10-15 11:58:31 GMT 55.002354 -6.425254 34,000 302 467 0
2021-10-15 11:58:28 GMT 54.999069 -6.415854 34,000 302 467 0
2021-10-15 11:58:25 GMT 54.995136 -6.404530 34,000 302 466 0
2021-10-15 11:58:23 GMT 54.992111 -6.395874 34,000 302 466 0
2021-10-15 11:58:20 GMT 54.989876 -6.389465 34,000 302 466 0
2021-10-15 11:58:17 GMT 54.987396 -6.382330 34,000 302 466 0
2021-10-15 11:58:15 GMT 54.984104 -6.372903 34,000 302 466 64
2021-10-15 11:58:13 GMT 54.982521 -6.368491 34,000 302 466 64
2021-10-15 11:58:10 GMT 54.977169 -6.353177 34,000 302 466 0
2021-10-15 11:58:08 GMT 54.977169 -6.353177 34,000 302 466 0
2021-10-15 11:58:05 GMT 54.973022 -6.341292 34,000 302 466 0
2021-10-15 11:58:03 GMT 54.970650 -6.334450 34,000 302 466 0
2021-10-15 11:58:00 GMT 54.967346 -6.325045 34,000 302 466 0
2021-10-15 11:57:57 GMT 54.965111 -6.318720 34,000 302 466 0
2021-10-15 11:57:55 GMT 54.961666 -6.308816 34,000 302 466 0
2021-10-15 11:57:53 GMT 54.957664 -6.297330 34,000 302 466 0
2021-10-15 11:57:48 GMT 54.954391 -6.287896 34,000 302 465 0
2021-10-15 11:57:46 GMT 54.951553 -6.279737 34,000 302 465 0
2021-10-15 11:57:43 GMT 54.948029 -6.269698 34,000 302 465 0
2021-10-15 11:57:41 GMT 54.945328 -6.261957 34,000 302 465 -64
2021-10-15 11:57:38 GMT 54.942905 -6.255049 34,000 302 465 0
2021-10-15 11:57:34 GMT 54.938873 -6.243546 34,000 302 465 0
2021-10-15 11:57:32 GMT 54.936768 -6.237569 34,000 302 465 0
2021-10-15 11:57:30 GMT 54.933502 -6.228083 34,000 302 465 0
2021-10-15 11:57:27 GMT 54.930244 -6.218844 34,000 302 466 0
2021-10-15 11:57:24 GMT 54.925690 -6.205983 34,000 302 466 0
2021-10-15 11:57:22 GMT 54.922192 -6.196039 34,000 302 466 0
2021-10-15 11:57:20 GMT 54.922192 -6.196039 34,000 302 466 0
2021-10-15 11:57:17 GMT 54.919876 -6.189342 34,000 302 466 0
2021-10-15 11:57:15 GMT 54.917068 -6.181391 34,000 302 466 0
2021-10-15 11:57:13 GMT 54.911949 -6.166909 34,000 302 466 0
2021-10-15 11:57:10 GMT 54.911949 -6.166909 34,000 302 466 0
2021-10-15 11:57:08 GMT 54.909622 -6.160260 34,000 302 466 0
2021-10-15 11:57:06 GMT 54.907852 -6.155257 34,000 302 466 0
2021-10-15 11:57:03 GMT 54.903431 -6.142606 34,000 302 466 0
2021-10-15 11:57:01 GMT 54.901382 -6.136834 34,000 302 466 0
2021-10-15 11:56:59 GMT 54.899193 -6.130538 34,000 302 466 0
2021-10-15 11:56:56 GMT 54.896400 -6.122714 34,000 302 465 0
2021-10-15 11:56:53 GMT 54.889835 -6.103987 34,000 302 465 0
2021-10-15 11:56:50 GMT 54.889835 -6.103987 34,000 302 465 0
2021-10-15 11:56:47 GMT 54.886047 -6.093211 34,000 302 465 0
2021-10-15 11:56:44 GMT 54.882202 -6.082387 34,000 302 465 0
2021-10-15 11:56:42 GMT 54.880062 -6.076355 34,000 302 465 0
2021-10-15 11:56:40 GMT 54.877640 -6.069447 34,000 302 465 0
2021-10-15 11:56:37 GMT 54.874195 -6.059709 34,000 302 465 0
2021-10-15 11:56:34 GMT 54.871494 -6.052052 34,000 302 465 0
2021-10-15 11:56:32 GMT 54.868927 -6.044823 34,000 302 465 0
2021-10-15 11:56:29 GMT 54.865211 -6.034324 34,000 302 465 0
2021-10-15 11:56:26 GMT 54.862278 -6.026001 34,000 302 465 0
2021-10-15 11:56:23 GMT 54.859344 -6.017761 34,000 302 465 0
2021-10-15 11:56:21 GMT 54.855991 -6.008273 34,000 302 465 0
2021-10-15 11:56:18 GMT 54.851257 -5.994819 34,000 302 465 0
2021-10-15 11:56:16 GMT 54.851257 -5.994819 34,000 302 466 0
2021-10-15 11:56:13 GMT 54.847687 -5.984721 34,000 302 465 0
2021-10-15 11:56:11 GMT 54.845993 -5.979955 34,000 302 465 0
2021-10-15 11:56:09 GMT 54.842587 -5.970403 34,000 302 465 0
2021-10-15 11:56:06 GMT 54.839977 -5.962996 34,000 302 465 0
2021-10-15 11:56:03 GMT 54.836105 -5.952086 34,000 302 465 0
2021-10-15 11:56:00 GMT 54.833405 -5.944492 34,000 302 465 0
2021-10-15 11:55:58 GMT 54.830612 -5.936575 34,000 302 465 0
2021-10-15 11:55:56 GMT 54.828434 -5.930453 34,000 302 465 0
2021-10-15 11:55:53 GMT 54.824844 -5.920338 34,000 302 465 0
2021-10-15 11:55:51 GMT 54.823196 -5.915653 34,000 302 465 0
2021-10-15 11:55:48 GMT 54.817474 -5.899497 34,000 302 465 0
2021-10-15 11:55:44 GMT 54.815231 -5.893276 34,000 302 465 0
2021-10-15 11:55:42 GMT 54.812744 -5.886258 34,000 302 465 0
2021-10-15 11:55:39 GMT 54.808777 -5.875181 34,000 302 465 0
2021-10-15 11:55:36 GMT 54.806183 -5.867781 34,000 302 465 0
2021-10-15 11:55:33 GMT 54.802231 -5.856682 34,000 302 465 0
2021-10-15 11:55:30 GMT 54.799347 -5.848604 34,000 302 465 0
2021-10-15 11:55:27 GMT 54.796463 -5.840445 34,000 302 466 0
2021-10-15 11:55:24 GMT 54.792343 -5.828893 34,000 302 466 0
2021-10-15 11:55:22 GMT 54.790726 -5.824419 34,000 302 466 0
2021-10-15 11:55:19 GMT 54.786346 -5.812091 34,000 302 466 0
2021-10-15 11:55:16 GMT 54.783417 -5.803861 34,000 302 466 0
2021-10-15 11:55:14 GMT 54.780945 -5.796904 34,000 302 466 0
2021-10-15 11:55:12 GMT 54.778111 -5.788963 34,000 302 466 0
2021-10-15 11:55:09 GMT 54.775681 -5.782201 34,000 302 465 0
2021-10-15 11:55:06 GMT 54.771561 -5.770730 34,000 302 465 0
2021-10-15 11:55:03 GMT 54.768940 -5.763328 34,000 302 465 0
2021-10-15 11:55:00 GMT 54.761902 -5.743669 34,000 302 465 0
2021-10-15 11:54:57 GMT 54.761902 -5.743669 34,000 302 465 0
2021-10-15 11:54:54 GMT 54.758652 -5.734530 34,000 302 465 0
2021-10-15 11:54:52 GMT 54.753624 -5.720548 34,000 302 465 0
2021-10-15 11:54:50 GMT 54.750923 -5.712974 34,000 302 465 0
2021-10-15 11:54:47 GMT 54.750923 -5.712974 34,000 302 466 0
2021-10-15 11:54:45 GMT 54.745560 -5.697946 34,000 302 466 0
2021-10-15 11:54:42 GMT 54.745560 -5.697946 34,000 302 466 0
2021-10-15 11:54:39 GMT 54.741119 -5.685586 34,000 302 466 0
2021-10-15 11:54:36 GMT 54.738495 -5.678267 34,000 302 467 0
2021-10-15 11:54:33 GMT 54.734528 -5.667168 34,000 302 466 0
2021-10-15 11:54:30 GMT 54.728714 -5.651012 34,000 302 466 0
2021-10-15 11:54:27 GMT 54.725555 -5.642126 34,000 302 466 0
2021-10-15 11:54:25 GMT 54.725555 -5.642126 34,000 302 466 0
2021-10-15 11:54:22 GMT 54.722759 -5.634488 34,000 302 466 0
2021-10-15 11:54:19 GMT 54.719559 -5.625404 34,000 302 466 0
2021-10-15 11:54:17 GMT 54.716335 -5.616594 34,000 302 466 0
2021-10-15 11:54:15 GMT 54.714195 -5.610601 34,000 302 466 0
2021-10-15 11:54:12 GMT 54.710144 -5.599282 34,000 302 466 0
2021-10-15 11:54:09 GMT 54.707794 -5.592768 34,000 302 466 0
2021-10-15 11:54:07 GMT 54.705116 -5.585299 34,000 302 466 0
2021-10-15 11:54:04 GMT 54.699066 -5.568487 34,000 302 466 0
2021-10-15 11:54:02 GMT 54.699066 -5.568487 34,000 302 466 0
2021-10-15 11:53:59 GMT 54.696030 -5.560051 34,000 302 466 0
2021-10-15 11:53:56 GMT 54.693054 -5.551812 34,000 302 466 0
2021-10-15 11:53:53 GMT 54.689667 -5.542441 34,000 302 466 0
2021-10-15 11:53:51 GMT 54.687836 -5.537352 34,000 302 466 0
2021-10-15 11:53:49 GMT 54.684727 -5.528620 34,000 302 466 0
2021-10-15 11:53:46 GMT 54.682114 -5.521438 34,000 302 466 0
2021-10-15 11:53:43 GMT 54.678406 -5.511178 34,000 302 466 0
2021-10-15 11:53:41 GMT 54.675018 -5.501808 34,000 302 466 0
2021-10-15 11:53:38 GMT 54.671768 -5.492760 34,000 302 466 0
2021-10-15 11:53:35 GMT 54.668839 -5.484682 34,000 302 466 0
2021-10-15 11:53:33 GMT 54.663872 -5.470942 34,000 302 466 0
2021-10-15 11:53:31 GMT 54.663872 -5.470942 34,000 302 466 0
2021-10-15 11:53:28 GMT 54.661171 -5.463451 34,000 302 466 0
2021-10-15 11:53:25 GMT 54.657166 -5.452288 34,000 302 466 0
2021-10-15 11:53:22 GMT 54.654327 -5.444533 34,000 302 466 0
2021-10-15 11:53:19 GMT 54.650391 -5.433547 34,000 302 466 0
2021-10-15 11:53:16 GMT 54.647278 -5.425065 34,000 302 466 -64
2021-10-15 11:53:13 GMT 54.643948 -5.415844 34,000 302 466 -64
2021-10-15 11:53:11 GMT 54.642273 -5.411183 34,000 302 466 0
2021-10-15 11:53:09 GMT 54.639084 -5.402365 34,000 302 466 0
2021-10-15 11:53:06 GMT 54.636082 -5.394037 34,000 302 466 0
2021-10-15 11:53:03 GMT 54.632683 -5.384716 34,000 303 467 0
2021-10-15 11:53:01 GMT 54.629471 -5.375950 34,000 303 467 0
2021-10-15 11:52:58 GMT 54.627281 -5.369818 34,000 303 466 0
2021-10-15 11:52:56 GMT 54.624954 -5.363492 34,000 303 466 0
2021-10-15 11:52:52 GMT 54.620300 -5.350675 34,000 303 466 0
2021-10-15 11:52:49 GMT 54.616669 -5.340604 34,000 303 466 0
2021-10-15 11:52:46 GMT 54.612476 -5.329201 34,000 303 466 0
2021-10-15 11:52:43 GMT 54.609604 -5.321260 34,000 303 466 0
2021-10-15 11:52:41 GMT 54.607224 -5.314717 34,000 303 466 -64
2021-10-15 11:52:38 GMT 54.604332 -5.306729 34,000 303 466 0
2021-10-15 11:52:36 GMT 54.601959 -5.300257 34,000 303 466 0
2021-10-15 11:52:33 GMT 54.597794 -5.288786 34,000 303 466 0
2021-10-15 11:52:31 GMT 54.596092 -5.284174 34,000 303 466 0
2021-10-15 11:52:28 GMT 54.592602 -5.274519 34,000 303 466 0
2021-10-15 11:52:25 GMT 54.589325 -5.265521 34,000 303 466 0
2021-10-15 11:52:23 GMT 54.586502 -5.257957 34,000 303 466 0
2021-10-15 11:52:21 GMT 54.583988 -5.251049 34,000 303 466 0
2021-10-15 11:52:18 GMT 54.579800 -5.239480 34,000 303 466 0
2021-10-15 11:52:15 GMT 54.577984 -5.234486 34,000 303 466 0
2021-10-15 11:52:13 GMT 54.575226 -5.227069 34,000 303 466 0
2021-10-15 11:52:10 GMT 54.571060 -5.215598 34,000 303 466 0
2021-10-15 11:52:07 GMT 54.568634 -5.208974 34,000 303 466 0
2021-10-15 11:52:04 GMT 54.565834 -5.201277 34,000 303 466 0
2021-10-15 11:52:02 GMT 54.563042 -5.193620 34,000 303 466 0
2021-10-15 11:52:00 GMT 54.560574 -5.186879 34,000 303 466 0
2021-10-15 11:51:58 GMT 54.557919 -5.179638 34,000 303 466 0
2021-10-15 11:51:55 GMT 54.554901 -5.171410 34,000 303 466 0
2021-10-15 11:51:52 GMT 54.551605 -5.162443 34,000 303 466 0
2021-10-15 11:51:50 GMT 54.548950 -5.155092 34,000 303 466 0
2021-10-15 11:51:47 GMT 54.545490 -5.145680 34,000 303 466 0
2021-10-15 11:51:45 GMT 54.542648 -5.137939 34,000 303 466 0
2021-10-15 11:51:42 GMT 54.539932 -5.130534 34,000 303 466 0
2021-10-15 11:51:40 GMT 54.537415 -5.123749 34,000 303 466 0
2021-10-15 11:51:37 GMT 54.533936 -5.114217 34,000 303 466 0
2021-10-15 11:51:34 GMT 54.530361 -5.104398 34,000 303 466 0
2021-10-15 11:51:32 GMT 54.528172 -5.098489 34,000 303 466 0
2021-10-15 11:51:30 GMT 54.526337 -5.093456 34,000 303 466 0
2021-10-15 11:51:28 GMT 54.520340 -5.077138 34,000 303 466 0
2021-10-15 11:51:25 GMT 54.520340 -5.077138 34,000 303 466 0
2021-10-15 11:51:22 GMT 54.514435 -5.061143 34,000 303 466 0
2021-10-15 11:51:20 GMT 54.511089 -5.051963 34,000 303 466 0
2021-10-15 11:51:18 GMT 54.511089 -5.051963 34,000 303 466 0
2021-10-15 11:51:15 GMT 54.508804 -5.045794 34,000 303 466 0
2021-10-15 11:51:12 GMT 54.505783 -5.037635 34,000 303 466 0
2021-10-15 11:51:10 GMT 54.499310 -5.020086 34,000 303 466 0
2021-10-15 11:51:07 GMT 54.496704 -5.013012 34,000 303 466 0
2021-10-15 11:51:05 GMT 54.496704 -5.013012 34,000 303 466 0
2021-10-15 11:51:02 GMT 54.493492 -5.004189 34,000 303 466 0
2021-10-15 11:51:00 GMT 54.491302 -4.998363 34,000 303 466 0
2021-10-15 11:50:57 GMT 54.484459 -4.979720 34,000 303 465 64
2021-10-15 11:50:54 GMT 54.484459 -4.979720 34,000 303 465 0
2021-10-15 11:50:52 GMT 54.482712 -4.975029 34,000 303 465 0
2021-10-15 11:50:50 GMT 54.478035 -4.962325 34,000 303 465 0
2021-10-15 11:50:46 GMT 54.475891 -4.956530 34,000 303 465 0
2021-10-15 11:50:44 GMT 54.472588 -4.947593 34,000 303 465 0
2021-10-15 11:50:41 GMT 54.469563 -4.939353 34,000 303 465 0
2021-10-15 11:50:38 GMT 54.465561 -4.928533 34,000 303 465 0
2021-10-15 11:50:36 GMT 54.463230 -4.922208 34,000 303 465 0
2021-10-15 11:50:33 GMT 54.460968 -4.916059 34,000 303 465 0
2021-10-15 11:50:31 GMT 54.458679 -4.909839 34,000 303 465 0
2021-10-15 11:50:29 GMT 54.452087 -4.892067 34,000 303 465 0
2021-10-15 11:50:26 GMT 54.452087 -4.892067 34,000 303 465 0
2021-10-15 11:50:24 GMT 54.449799 -4.885927 34,000 303 465 0
2021-10-15 11:50:21 GMT 54.446754 -4.877680 34,000 303 465 0
2021-10-15 11:50:18 GMT 54.442795 -4.866943 34,000 303 465 0
2021-10-15 11:50:15 GMT 54.439491 -4.858121 34,000 303 465 0
2021-10-15 11:50:13 GMT 54.438309 -4.854907 34,000 303 465 0
2021-10-15 11:50:11 GMT 54.435104 -4.846263 34,000 303 465 0
2021-10-15 11:50:09 GMT 54.432495 -4.839316 34,000 303 465 0
2021-10-15 11:50:07 GMT 54.430645 -4.834234 34,000 303 465 0
2021-10-15 11:50:05 GMT 54.428238 -4.827845 34,000 303 465 0
2021-10-15 11:50:03 GMT 54.426548 -4.823165 34,000 303 465 0
2021-10-15 11:50:01 GMT 54.423244 -4.814342 34,000 303 465 0
2021-10-15 11:49:59 GMT 54.420959 -4.808134 34,000 303 465 0
2021-10-15 11:49:55 GMT 54.417160 -4.797875 34,000 303 465 0
2021-10-15 11:49:53 GMT 54.415009 -4.792059 34,000 303 465 0
2021-10-15 11:49:50 GMT 54.411327 -4.782215 34,000 303 465 0
2021-10-15 11:49:48 GMT 54.408531 -4.774642 34,000 303 465 0
2021-10-15 11:49:46 GMT 54.406300 -4.768732 34,000 303 465 0
2021-10-15 11:49:44 GMT 54.403923 -4.762324 34,000 303 465 0
2021-10-15 11:49:42 GMT 54.401596 -4.755998 34,000 303 466 0
2021-10-15 11:49:39 GMT 54.398293 -4.747093 34,000 303 465 0
2021-10-15 11:49:37 GMT 54.395370 -4.739389 34,000 303 465 0
2021-10-15 11:49:34 GMT 54.392521 -4.731695 34,000 303 465 0
2021-10-15 11:49:32 GMT 54.390144 -4.725286 34,000 303 465 0
2021-10-15 11:49:30 GMT 54.388367 -4.720486 34,000 303 465 0
2021-10-15 11:49:28 GMT 54.385445 -4.712719 34,000 303 465 0
2021-10-15 11:49:26 GMT 54.382698 -4.705311 34,000 303 465 0
2021-10-15 11:49:23 GMT 54.377483 -4.691329 34,000 303 465 0
2021-10-15 11:49:21 GMT 54.377483 -4.691329 34,000 303 465 0
2021-10-15 11:49:19 GMT 54.374737 -4.683921 34,000 303 465 0
2021-10-15 11:49:16 GMT 54.371750 -4.675894 34,000 303 465 0
2021-10-15 11:49:14 GMT 54.369095 -4.668947 34,000 303 465 0
2021-10-15 11:49:12 GMT 54.363510 -4.653841 34,000 303 465 0
2021-10-15 11:49:09 GMT 54.363510 -4.653841 34,000 303 465 0
2021-10-15 11:49:07 GMT 54.360538 -4.645885 34,000 303 465 0
2021-10-15 11:49:04 GMT 54.354252 -4.629156 34,000 303 465 0
2021-10-15 11:49:02 GMT 54.354252 -4.629156 34,000 303 465 0
2021-10-15 11:48:59 GMT 54.352112 -4.623413 34,000 303 465 0
2021-10-15 11:48:57 GMT 54.350250 -4.618419 34,000 303 465 0
2021-10-15 11:48:55 GMT 54.346619 -4.608765 34,000 303 465 0
2021-10-15 11:48:53 GMT 54.345409 -4.605602 34,000 303 465 0
2021-10-15 11:48:51 GMT 54.340054 -4.591286 34,000 303 464 0
2021-10-15 11:48:49 GMT 54.340054 -4.591286 34,000 303 464 0
2021-10-15 11:48:47 GMT 54.338196 -4.586307 34,000 303 464 0
2021-10-15 11:48:44 GMT 54.334282 -4.575889 34,000 303 464 0
2021-10-15 11:48:42 GMT 54.331924 -4.569505 34,000 303 464 0
2021-10-15 11:48:39 GMT 54.328766 -4.561103 34,000 303 464 0
2021-10-15 11:48:36 GMT 54.325699 -4.552864 34,000 303 464 0
2021-10-15 11:48:34 GMT 54.323483 -4.546925 34,000 303 464 0
2021-10-15 11:48:32 GMT 54.320412 -4.538852 34,000 303 464 0
2021-10-15 11:48:29 GMT 54.316544 -4.528548 34,000 303 464 0
2021-10-15 11:48:26 GMT 54.312973 -4.519016 34,000 303 464 0
2021-10-15 11:48:23 GMT 54.310539 -4.512634 34,000 303 463 0
2021-10-15 11:48:21 GMT 54.307755 -4.505122 34,000 303 463 0
2021-10-15 11:48:19 GMT 54.305141 -4.498236 34,000 303 463 0
2021-10-15 11:48:17 GMT 54.303314 -4.493408 34,000 303 463 0
2021-10-15 11:48:15 GMT 54.301414 -4.488248 34,000 303 463 0
2021-10-15 11:48:13 GMT 54.299057 -4.482099 34,000 303 463 0
2021-10-15 11:48:11 GMT 54.296631 -4.475555 34,000 303 463 0
2021-10-15 11:48:09 GMT 54.293610 -4.467558 34,000 303 463 0
2021-10-15 11:48:06 GMT 54.289452 -4.456454 34,000 303 463 0
2021-10-15 11:48:03 GMT 54.287266 -4.450711 34,000 303 463 0
2021-10-15 11:48:01 GMT 54.282120 -4.437022 34,000 303 463 0
2021-10-15 11:47:59 GMT 54.282120 -4.437022 34,000 303 463 0
2021-10-15 11:47:57 GMT 54.279118 -4.429072 34,000 303 463 0
2021-10-15 11:47:54 GMT 54.276718 -4.422703 34,000 303 463 0
2021-10-15 11:47:52 GMT 54.274464 -4.416746 34,000 303 463 0
2021-10-15 11:47:49 GMT 54.270226 -4.405518 34,000 303 462 0
2021-10-15 11:47:46 GMT 54.267151 -4.397435 34,000 303 463 0
2021-10-15 11:47:43 GMT 54.263893 -4.388715 34,000 303 463 0
2021-10-15 11:47:41 GMT 54.261753 -4.383060 34,000 303 463 0
2021-10-15 11:47:39 GMT 54.259518 -4.377163 34,000 303 462 0
2021-10-15 11:47:36 GMT 54.255890 -4.367550 34,000 303 463 0
2021-10-15 11:47:34 GMT 54.250721 -4.353979 34,000 303 463 0
2021-10-15 11:47:32 GMT 54.250721 -4.353979 34,000 303 463 0
2021-10-15 11:47:29 GMT 54.247044 -4.344204 34,000 303 464 0
2021-10-15 11:47:26 GMT 54.243942 -4.336068 34,000 303 463 0
2021-10-15 11:47:23 GMT 54.240479 -4.326836 34,000 303 463 0
2021-10-15 11:47:21 GMT 54.238815 -4.322492 34,000 303 463 0
2021-10-15 11:47:19 GMT 54.233730 -4.308983 34,000 303 463 0
2021-10-15 11:47:17 GMT 54.233730 -4.308983 34,000 303 464 0
2021-10-15 11:47:15 GMT 54.226685 -4.290318 34,000 303 464 0
2021-10-15 11:47:12 GMT 54.226685 -4.290318 34,000 303 464 0
2021-10-15 11:47:09 GMT 54.224350 -4.284197 34,000 303 464 0
2021-10-15 11:47:06 GMT 54.219910 -4.272583 34,000 303 464 0
2021-10-15 11:47:03 GMT 54.217300 -4.265599 34,000 303 464 0
2021-10-15 11:47:01 GMT 54.215061 -4.259706 34,000 303 464 0
2021-10-15 11:46:59 GMT 54.213200 -4.254779 34,000 303 464 0
2021-10-15 11:46:57 GMT 54.210220 -4.246943 34,000 303 464 0
2021-10-15 11:46:53 GMT 54.205399 -4.234288 34,000 303 464 0
2021-10-15 11:46:50 GMT 54.202446 -4.226505 34,000 303 464 0
2021-10-15 11:46:48 GMT 54.200272 -4.220869 34,000 303 464 0
2021-10-15 11:46:45 GMT 54.196793 -4.211609 34,000 303 464 0
2021-10-15 11:46:42 GMT 54.193695 -4.203563 34,000 303 464 0
2021-10-15 11:46:40 GMT 54.190750 -4.195836 34,000 303 464 -64
2021-10-15 11:46:37 GMT 54.186573 -4.184902 34,000 304 465 0
2021-10-15 11:46:35 GMT 54.185257 -4.181318 34,000 304 465 0
2021-10-15 11:46:33 GMT 54.180267 -4.168291 34,000 304 465 0
2021-10-15 11:46:29 GMT 54.178482 -4.163583 34,000 304 465 0
2021-10-15 11:46:27 GMT 54.174980 -4.154448 34,000 304 465 0
2021-10-15 11:46:25 GMT 54.172699 -4.148470 34,000 304 465 64
2021-10-15 11:46:22 GMT 54.170334 -4.142238 34,000 304 465 0
2021-10-15 11:46:20 GMT 54.167252 -4.134252 34,000 304 465 0
2021-10-15 11:46:18 GMT 54.161407 -4.118931 34,000 304 465 0
2021-10-15 11:46:15 GMT 54.158524 -4.111319 34,000 304 465 0
2021-10-15 11:46:13 GMT 54.158524 -4.111319 34,000 304 465 64
2021-10-15 11:46:10 GMT 54.153103 -4.097173 34,000 304 465 0
2021-10-15 11:46:08 GMT 54.153103 -4.097173 34,000 304 465 0
2021-10-15 11:46:05 GMT 54.148865 -4.086187 34,000 304 465 0
2021-10-15 11:46:02 GMT 54.146912 -4.081017 34,000 304 465 0
2021-10-15 11:46:00 GMT 54.143883 -4.073100 34,000 304 465 -64
2021-10-15 11:45:58 GMT 54.139694 -4.062114 34,000 304 465 -64
2021-10-15 11:45:54 GMT 54.136917 -4.054897 34,000 304 465 -64
2021-10-15 11:45:52 GMT 54.134628 -4.048933 34,000 304 465 0
2021-10-15 11:45:50 GMT 54.131641 -4.041111 34,000 304 465 0
2021-10-15 11:45:48 GMT 54.129227 -4.034807 34,000 304 465 0
2021-10-15 11:45:45 GMT 54.125198 -4.024214 34,000 304 465 0
2021-10-15 11:45:42 GMT 54.122841 -4.018088 34,000 304 465 0
2021-10-15 11:45:40 GMT 54.120026 -4.010795 34,000 304 465 0
2021-10-15 11:45:38 GMT 54.117767 -4.004921 34,000 304 465 0
2021-10-15 11:45:36 GMT 54.115440 -3.998781 34,000 304 465 0
2021-10-15 11:45:34 GMT 54.113579 -3.993934 34,000 304 465 0
2021-10-15 11:45:32 GMT 54.111065 -3.987391 34,000 304 465 0
2021-10-15 11:45:30 GMT 54.108227 -3.979959 34,000 304 465 0
2021-10-15 11:45:28 GMT 54.105881 -3.973833 34,000 304 465 0
2021-10-15 11:45:26 GMT 54.103958 -3.968811 34,000 304 465 0
2021-10-15 11:45:24 GMT 54.100983 -3.961042 34,000 304 465 0
2021-10-15 11:45:21 GMT 54.097687 -3.952488 34,000 304 465 0
2021-10-15 11:45:18 GMT 54.090115 -3.932702 34,000 304 465 0
2021-10-15 11:45:15 GMT 54.090115 -3.932702 34,000 304 465 0
2021-10-15 11:45:12 GMT 54.086838 -3.924159 34,000 304 465 0
2021-10-15 11:45:10 GMT 54.084366 -3.917725 34,000 304 465 0
2021-10-15 11:45:07 GMT 54.082489 -3.912859 34,000 304 465 0
2021-10-15 11:45:05 GMT 54.075851 -3.895517 34,000 304 465 0
2021-10-15 11:45:02 GMT 54.075851 -3.895517 34,000 304 465 0
2021-10-15 11:44:59 GMT 54.070496 -3.881548 34,000 304 465 0
2021-10-15 11:44:56 GMT 54.068161 -3.875506 34,000 304 465 0
2021-10-15 11:44:53 GMT 54.065369 -3.868208 34,000 304 465 0
2021-10-15 11:44:51 GMT 54.063534 -3.863391 34,000 304 465 0
2021-10-15 11:44:48 GMT 54.055946 -3.843761 34,000 304 465 0
2021-10-15 11:44:46 GMT 54.055946 -3.843761 34,000 304 466 0
2021-10-15 11:44:43 GMT 54.053574 -3.837621 34,000 304 466 0
2021-10-15 11:44:41 GMT 54.051292 -3.831724 34,000 304 465 0
2021-10-15 11:44:38 GMT 54.047333 -3.821516 34,000 304 465 0
2021-10-15 11:44:35 GMT 54.041748 -3.806998 34,000 304 465 0
2021-10-15 11:44:33 GMT 54.041748 -3.806998 34,000 304 466 0
2021-10-15 11:44:31 GMT 54.038223 -3.797895 34,000 304 466 0
2021-10-15 11:44:28 GMT 54.036209 -3.792868 34,000 304 466 0
2021-10-15 11:44:26 GMT 54.032532 -3.783336 34,000 304 466 0
2021-10-15 11:44:23 GMT 54.029480 -3.775530 34,000 304 466 0
2021-10-15 11:44:21 GMT 54.027084 -3.769441 34,000 304 466 0
2021-10-15 11:44:19 GMT 54.024719 -3.763367 34,000 304 466 0
2021-10-15 11:44:16 GMT 54.020428 -3.752316 34,000 304 466 0
2021-10-15 11:44:13 GMT 54.018566 -3.747550 34,000 304 466 0
2021-10-15 11:44:11 GMT 54.015152 -3.738804 34,000 304 466 0
2021-10-15 11:44:09 GMT 54.010666 -3.727269 34,000 304 466 0
2021-10-15 11:44:07 GMT 54.007645 -3.719578 34,000 304 466 0
2021-10-15 11:44:04 GMT 54.007645 -3.719578 34,000 304 466 0
2021-10-15 11:44:02 GMT 54.004257 -3.710868 34,000 304 466 0
2021-10-15 11:44:00 GMT 54.001854 -3.704816 34,000 304 466 0
2021-10-15 11:43:57 GMT 53.998306 -3.695644 34,000 304 465 0
2021-10-15 11:43:55 GMT 53.995941 -3.689629 34,000 304 465 0
2021-10-15 11:43:52 GMT 53.992813 -3.681597 34,000 304 465 0
2021-10-15 11:43:50 GMT 53.988098 -3.669591 34,000 304 465 0
2021-10-15 11:43:48 GMT 53.988098 -3.669591 34,000 304 465 0
2021-10-15 11:43:45 GMT 53.983463 -3.657801 34,000 304 466 0
2021-10-15 11:43:42 GMT 53.980347 -3.649804 34,000 304 465 0
2021-10-15 11:43:40 GMT 53.979088 -3.646653 34,000 304 465 0
2021-10-15 11:43:38 GMT 53.975784 -3.638333 34,000 304 465 0
2021-10-15 11:43:35 GMT 53.971619 -3.627764 34,000 287 472 0
2021-10-15 11:43:32 GMT 53.968552 -3.619995 34,000 304 465 0
2021-10-15 11:43:30 GMT 53.966660 -3.615229 34,000 305 464 -64
2021-10-15 11:43:28 GMT 53.964657 -3.610221 34,000 305 465 -64
2021-10-15 11:43:26 GMT 53.961685 -3.602731 34,000 305 465 -64
2021-10-15 11:43:24 GMT 53.959213 -3.596531 34,000 305 464 -64
2021-10-15 11:43:21 GMT 53.955963 -3.588527 34,000 305 464 -64
2021-10-15 11:43:19 GMT 53.950104 -3.573853 34,000 304 465 128
2021-10-15 11:43:17 GMT 53.946762 -3.565220 34,000 303 466 64
2021-10-15 11:43:14 GMT 53.943432 -3.556097 34,000 301 468 0
2021-10-15 11:43:11 GMT 53.943432 -3.556097 34,000 300 468 0
2021-10-15 11:43:07 GMT 53.939209 -3.543248 34,000 297 469 0
2021-10-15 11:43:05 GMT 53.937607 -3.538068 34,000 297 469 0
2021-10-15 11:43:03 GMT 53.935886 -3.531943 34,000 295 470 0
2021-10-15 11:43:00 GMT 53.932846 -3.520647 34,000 293 470 0
2021-10-15 11:42:57 GMT 53.930466 -3.510838 34,000 290 471 64
2021-10-15 11:42:55 GMT 53.929367 -3.505580 34,000 290 471 64
2021-10-15 11:42:52 GMT 53.926849 -3.493182 34,000 287 472 0
2021-10-15 11:42:50 GMT 53.926163 -3.489336 34,000 285 473 0
2021-10-15 11:42:48 GMT 53.924343 -3.477981 34,000 284 473 -64
2021-10-15 11:42:45 GMT 53.923141 -3.469482 34,000 282 473 -64
2021-10-15 11:42:43 GMT 53.921997 -3.460536 34,000 281 474 0
2021-10-15 11:42:40 GMT 53.920944 -3.451120 34,000 281 473 0
2021-10-15 11:42:38 GMT 53.920341 -3.445345 34,000 281 473 0
2021-10-15 11:42:36 GMT 53.919617 -3.439035 34,000 281 473 0
2021-10-15 11:42:34 GMT 53.918476 -3.428219 34,000 281 473 0
2021-10-15 11:42:32 GMT 53.916897 -3.413678 34,000 281 473 0
2021-10-15 11:42:30 GMT 53.916897 -3.413678 34,000 281 473 0
2021-10-15 11:42:28 GMT 53.916103 -3.406327 34,000 281 472 0
2021-10-15 11:42:25 GMT 53.914940 -3.395341 34,000 281 472 0
2021-10-15 11:42:22 GMT 53.913868 -3.385647 34,000 281 472 0
2021-10-15 11:42:20 GMT 53.912384 -3.371940 34,000 281 472 0
2021-10-15 11:42:15 GMT 53.910236 -3.352042 34,000 281 472 0
2021-10-15 11:42:13 GMT 53.910236 -3.352042 34,000 281 472 0
2021-10-15 11:42:10 GMT 53.908951 -3.339922 34,000 281 472 0
2021-10-15 11:42:08 GMT 53.908421 -3.335158 34,000 281 472 0
2021-10-15 11:42:05 GMT 53.907166 -3.323521 34,000 281 472 0
2021-10-15 11:42:03 GMT 53.905197 -3.305708 34,000 281 472 0
2021-10-15 11:42:00 GMT 53.905197 -3.305708 34,000 281 472 0
2021-10-15 11:41:58 GMT 53.904373 -3.298174 34,000 281 472 0
2021-10-15 11:41:56 GMT 53.903629 -3.291132 34,000 281 472 0
2021-10-15 11:41:54 GMT 53.902370 -3.279904 34,000 281 472 0
2021-10-15 11:41:51 GMT 53.900414 -3.262051 34,000 281 472 0
2021-10-15 11:41:49 GMT 53.900414 -3.262051 34,000 281 472 0
2021-10-15 11:41:46 GMT 53.898743 -3.246538 34,000 281 472 0
2021-10-15 11:41:44 GMT 53.898743 -3.246538 34,000 281 472 0
2021-10-15 11:41:41 GMT 53.897671 -3.236605 34,000 281 472 0
2021-10-15 11:41:39 GMT 53.896877 -3.229334 34,000 281 472 0
2021-10-15 11:41:37 GMT 53.895630 -3.217974 34,000 281 472 0
2021-10-15 11:41:34 GMT 53.894783 -3.210350 34,000 281 472 0
2021-10-15 11:41:32 GMT 53.894165 -3.204869 34,000 281 472 0
2021-10-15 11:41:29 GMT 53.893158 -3.195374 34,000 281 472 0
2021-10-15 11:41:27 GMT 53.890778 -3.173595 34,000 281 472 0
2021-10-15 11:41:24 GMT 53.890778 -3.173595 34,000 281 472 0
2021-10-15 11:41:21 GMT 53.889496 -3.161944 34,000 281 472 0
2021-10-15 11:41:18 GMT 53.888489 -3.152684 34,000 281 472 0
2021-10-15 11:41:15 GMT 53.886703 -3.136440 34,000 281 472 0
2021-10-15 11:41:13 GMT 53.886703 -3.136440 34,000 281 472 0
2021-10-15 11:41:11 GMT 53.885147 -3.122393 34,000 281 472 0
2021-10-15 11:41:09 GMT 53.884140 -3.113055 34,000 281 472 0
2021-10-15 11:41:07 GMT 53.884140 -3.113055 34,000 281 472 0
2021-10-15 11:41:04 GMT 53.882492 -3.098225 34,000 281 472 0
2021-10-15 11:41:01 GMT 53.881668 -3.090925 34,000 281 472 0
2021-10-15 11:40:59 GMT 53.881073 -3.085589 34,000 281 472 0
2021-10-15 11:40:57 GMT 53.880074 -3.076495 34,000 281 472 0
2021-10-15 11:40:55 GMT 53.879471 -3.071071 34,000 281 472 0
2021-10-15 11:40:53 GMT 53.878395 -3.061631 34,000 281 472 0
2021-10-15 11:40:51 GMT 53.877594 -3.054435 34,000 281 472 0
2021-10-15 11:40:48 GMT 53.876129 -3.041251 34,000 281 472 0
2021-10-15 11:40:45 GMT 53.875259 -3.033404 34,000 281 472 0
2021-10-15 11:40:43 GMT 53.873417 -3.016716 34,000 281 472 0
2021-10-15 11:40:41 GMT 53.873417 -3.016716 34,000 281 472 0
2021-10-15 11:40:38 GMT 53.871971 -3.003953 34,000 281 472 0
2021-10-15 11:40:35 GMT 53.871094 -2.995736 34,000 281 472 0
2021-10-15 11:40:32 GMT 53.869720 -2.983573 34,000 281 472 0
2021-10-15 11:40:29 GMT 53.868759 -2.974791 34,000 281 473 0
2021-10-15 11:40:27 GMT 53.867935 -2.967486 34,000 281 473 0
2021-10-15 11:40:24 GMT 53.866756 -2.956938 34,000 281 472 0
2021-10-15 11:40:22 GMT 53.865921 -2.949672 34,000 281 472 0
2021-10-15 11:40:19 GMT 53.864662 -2.938358 34,000 281 472 0
2021-10-15 11:40:17 GMT 53.863449 -2.927464 34,000 281 472 0
2021-10-15 11:40:14 GMT 53.862663 -2.920667 34,000 281 472 0
2021-10-15 11:40:12 GMT 53.861683 -2.911942 34,000 281 472 0
2021-10-15 11:40:09 GMT 53.859634 -2.893524 34,000 281 472 0
2021-10-15 11:40:07 GMT 53.859634 -2.893524 34,000 281 472 0
2021-10-15 11:40:04 GMT 53.858379 -2.882619 34,000 281 472 0
2021-10-15 11:40:01 GMT 53.857452 -2.874259 34,000 281 472 0
2021-10-15 11:39:58 GMT 53.856216 -2.863429 34,000 281 472 0
2021-10-15 11:39:55 GMT 53.854980 -2.852568 34,000 281 472 0
2021-10-15 11:39:53 GMT 53.853973 -2.843497 34,000 281 472 0
2021-10-15 11:39:51 GMT 53.852512 -2.830514 34,000 281 472 0
2021-10-15 11:39:49 GMT 53.852512 -2.830514 34,000 281 472 0
2021-10-15 11:39:47 GMT 53.851814 -2.824456 34,000 281 472 0
2021-10-15 11:39:45 GMT 53.850723 -2.814619 34,000 281 472 0
2021-10-15 11:39:43 GMT 53.850140 -2.809753 34,000 281 472 0
2021-10-15 11:39:40 GMT 53.848709 -2.797041 34,000 281 472 0
2021-10-15 11:39:37 GMT 53.847702 -2.788173 34,000 281 472 0
2021-10-15 11:39:35 GMT 53.846649 -2.778756 34,000 281 472 0
2021-10-15 11:39:32 GMT 53.845623 -2.769605 34,000 281 472 0
2021-10-15 11:39:30 GMT 53.844589 -2.760707 34,000 281 472 0
2021-10-15 11:39:28 GMT 53.843491 -2.750898 34,000 281 472 0
2021-10-15 11:39:25 GMT 53.842712 -2.743835 34,000 281 472 0
2021-10-15 11:39:23 GMT 53.842117 -2.738656 34,000 281 472 0
2021-10-15 11:39:21 GMT 53.840332 -2.723118 34,000 281 472 0
2021-10-15 11:39:19 GMT 53.840332 -2.723118 34,000 281 472 0
2021-10-15 11:39:17 GMT 53.839153 -2.712734 34,000 281 472 0
2021-10-15 11:39:14 GMT 53.838177 -2.704172 34,000 281 472 0
2021-10-15 11:39:12 GMT 53.837128 -2.694868 34,000 281 472 0
2021-10-15 11:39:09 GMT 53.836258 -2.687177 34,000 281 472 0
2021-10-15 11:39:07 GMT 53.835102 -2.677433 34,000 281 472 0
2021-10-15 11:39:04 GMT 53.833740 -2.665362 34,000 281 472 0
2021-10-15 11:39:01 GMT 53.831451 -2.645508 34,000 281 472 0
2021-10-15 11:38:58 GMT 53.830635 -2.637930 34,000 281 472 0
2021-10-15 11:38:56 GMT 53.830635 -2.637930 34,000 281 472 0
2021-10-15 11:38:54 GMT 53.829933 -2.632195 34,000 281 472 0
2021-10-15 11:38:51 GMT 53.828632 -2.620643 34,000 282 471 0
2021-10-15 11:38:48 GMT 53.826599 -2.602897 34,000 282 471 0
2021-10-15 11:38:46 GMT 53.826599 -2.602897 34,000 281 472 0
2021-10-15 11:38:43 GMT 53.825272 -2.591518 34,000 282 471 0
2021-10-15 11:38:40 GMT 53.824173 -2.581630 34,000 282 471 0
2021-10-15 11:38:38 GMT 53.823139 -2.573063 34,000 282 471 0
2021-10-15 11:38:36 GMT 53.822163 -2.564177 34,000 282 471 0
2021-10-15 11:38:33 GMT 53.821243 -2.556597 34,000 282 471 0
2021-10-15 11:38:30 GMT 53.820019 -2.545758 34,000 282 471 0
2021-10-15 11:38:28 GMT 53.818634 -2.533918 34,000 282 471 0
2021-10-15 11:38:25 GMT 53.818020 -2.528552 34,000 282 471 0
2021-10-15 11:38:23 GMT 53.816711 -2.517360 34,000 282 471 0
2021-10-15 11:38:20 GMT 53.815502 -2.506822 34,000 282 471 0
2021-10-15 11:38:17 GMT 53.814480 -2.497936 34,000 282 471 0
2021-10-15 11:38:15 GMT 53.813828 -2.492362 34,000 282 471 0
2021-10-15 11:38:13 GMT 53.811905 -2.475691 34,000 282 471 0
2021-10-15 11:38:11 GMT 53.811905 -2.475691 34,000 282 471 0
2021-10-15 11:38:09 GMT 53.810669 -2.465175 34,000 282 471 0
2021-10-15 11:38:06 GMT 53.810028 -2.459917 34,000 282 471 0
2021-10-15 11:38:03 GMT 53.808800 -2.449224 34,000 282 471 0
2021-10-15 11:38:01 GMT 53.806892 -2.432906 34,000 282 471 0
2021-10-15 11:37:59 GMT 53.806892 -2.432906 34,000 282 471 0
2021-10-15 11:37:57 GMT 53.806091 -2.425938 34,000 282 471 0
2021-10-15 11:37:54 GMT 53.804855 -2.415580 34,000 282 471 0
2021-10-15 11:37:52 GMT 53.803772 -2.406006 34,000 282 471 0
2021-10-15 11:37:49 GMT 53.802608 -2.396312 34,000 282 471 0
2021-10-15 11:37:47 GMT 53.801834 -2.389605 34,000 282 471 0
2021-10-15 11:37:45 GMT 53.800655 -2.379590 34,000 282 471 0
2021-10-15 11:37:42 GMT 53.798141 -2.357941 34,000 282 470 0
2021-10-15 11:37:39 GMT 53.798141 -2.357941 34,000 282 470 0
2021-10-15 11:37:36 GMT 53.797302 -2.350670 34,000 282 471 0
2021-10-15 11:37:33 GMT 53.795815 -2.338068 34,000 282 471 0
2021-10-15 11:37:31 GMT 53.795254 -2.333221 34,000 282 471 0
2021-10-15 11:37:29 GMT 53.794090 -2.323204 34,000 282 471 0
2021-10-15 11:37:27 GMT 53.793484 -2.318034 34,000 282 471 0
2021-10-15 11:37:24 GMT 53.792221 -2.307207 34,000 282 471 0
2021-10-15 11:37:21 GMT 53.790482 -2.292533 34,000 282 471 0
2021-10-15 11:37:18 GMT 53.789852 -2.287176 34,000 282 471 0
2021-10-15 11:37:16 GMT 53.787506 -2.267264 34,000 282 471 0
2021-10-15 11:37:13 GMT 53.787506 -2.267264 34,000 282 471 0
2021-10-15 11:37:11 GMT 53.786499 -2.258789 34,000 282 471 0
2021-10-15 11:37:08 GMT 53.784176 -2.239111 34,000 282 471 0
2021-10-15 11:37:06 GMT 53.784176 -2.239111 34,000 282 471 0
2021-10-15 11:37:03 GMT 53.783291 -2.231517 34,000 282 471 0
2021-10-15 11:37:01 GMT 53.781967 -2.220651 34,000 282 470 0
2021-10-15 11:36:58 GMT 53.780869 -2.211234 34,000 282 471 0
2021-10-15 11:36:56 GMT 53.778671 -2.192793 34,000 282 471 0
2021-10-15 11:36:53 GMT 53.778671 -2.192793 34,000 282 471 0
2021-10-15 11:36:50 GMT 53.777435 -2.182356 34,000 282 471 0
2021-10-15 11:36:47 GMT 53.776566 -2.174979 34,000 282 471 0
2021-10-15 11:36:45 GMT 53.775146 -2.163286 34,000 282 471 0
2021-10-15 11:36:42 GMT 53.773842 -2.152189 34,000 282 471 0
2021-10-15 11:36:39 GMT 53.772995 -2.145081 34,000 282 471 0
2021-10-15 11:36:36 GMT 53.771759 -2.134879 34,000 282 471 0
2021-10-15 11:36:34 GMT 53.769325 -2.114303 34,000 282 471 0
2021-10-15 11:36:31 GMT 53.769325 -2.114303 34,000 282 471 0
2021-10-15 11:36:28 GMT 53.768394 -2.106790 34,000 282 471 0
2021-10-15 11:36:26 GMT 53.767227 -2.096898 34,000 282 471 0
2021-10-15 11:36:23 GMT 53.765900 -2.085754 34,000 282 471 0
2021-10-15 11:36:21 GMT 53.765274 -2.080697 34,000 282 471 0
2021-10-15 11:36:18 GMT 53.763969 -2.069550 34,000 282 471 0
2021-10-15 11:36:15 GMT 53.762669 -2.058644 34,000 282 471 0
2021-10-15 11:36:12 GMT 53.761131 -2.046204 34,000 282 471 0
2021-10-15 11:36:09 GMT 53.759781 -2.034975 34,000 282 471 0
2021-10-15 11:36:06 GMT 53.758942 -2.027624 34,000 282 471 0
2021-10-15 11:36:04 GMT 53.756332 -2.006104 34,000 282 471 0
2021-10-15 11:36:01 GMT 53.756332 -2.006104 34,000 282 471 0
2021-10-15 11:35:59 GMT 53.754730 -1.992920 34,000 282 471 0
2021-10-15 11:35:57 GMT 53.754730 -1.992920 34,000 282 471 0
2021-10-15 11:35:55 GMT 53.754333 -1.989414 34,000 282 471 0
2021-10-15 11:35:53 GMT 53.752983 -1.978428 34,000 282 471 0
2021-10-15 11:35:51 GMT 53.751892 -1.969378 34,000 282 471 0
2021-10-15 11:35:48 GMT 53.750984 -1.961544 34,000 282 471 0
2021-10-15 11:35:46 GMT 53.750053 -1.953870 34,000 282 471 0
2021-10-15 11:35:44 GMT 53.748795 -1.943449 34,000 282 471 0
2021-10-15 11:35:41 GMT 53.747677 -1.934321 34,000 282 471 0
2021-10-15 11:35:38 GMT 53.746536 -1.925119 34,000 282 471 64
2021-10-15 11:35:36 GMT 53.745895 -1.919547 34,000 282 471 0
2021-10-15 11:35:34 GMT 53.744751 -1.910366 34,000 282 471 0
2021-10-15 11:35:31 GMT 53.743443 -1.899585 34,000 282 471 0
2021-10-15 11:35:28 GMT 53.742184 -1.889245 34,000 282 471 0
2021-10-15 11:35:26 GMT 53.741253 -1.881409 34,000 282 471 0
2021-10-15 11:35:24 GMT 53.740368 -1.874138 34,000 282 471 0
2021-10-15 11:35:21 GMT 53.737671 -1.852085 34,000 282 471 0
2021-10-15 11:35:18 GMT 53.737061 -1.846959 34,000 282 470 0
2021-10-15 11:35:16 GMT 53.737061 -1.846959 34,000 282 470 0
2021-10-15 11:35:14 GMT 53.734642 -1.827043 34,000 282 470 0
2021-10-15 11:35:11 GMT 53.734642 -1.827043 34,000 282 470 0
2021-10-15 11:35:08 GMT 53.733353 -1.816668 34,000 282 470 0
2021-10-15 11:35:05 GMT 53.730873 -1.796426 34,000 282 470 0
2021-10-15 11:35:02 GMT 53.730873 -1.796426 34,000 282 470 0
2021-10-15 11:34:59 GMT 53.729382 -1.784309 34,000 282 470 0
2021-10-15 11:34:56 GMT 53.728172 -1.774292 34,000 282 470 0
2021-10-15 11:34:54 GMT 53.727036 -1.764954 34,000 282 470 0
2021-10-15 11:34:51 GMT 53.726120 -1.757342 34,000 282 470 0
2021-10-15 11:34:49 GMT 53.725006 -1.748280 34,000 282 470 0
2021-10-15 11:34:46 GMT 53.723831 -1.738743 34,000 282 470 0
2021-10-15 11:34:44 GMT 53.722733 -1.729954 34,000 282 469 0
2021-10-15 11:34:42 GMT 53.721840 -1.722672 34,000 282 469 0
2021-10-15 11:34:39 GMT 53.720211 -1.709343 34,000 282 469 0
2021-10-15 11:34:36 GMT 53.719299 -1.701861 34,000 282 469 0
2021-10-15 11:34:34 GMT 53.718430 -1.694798 34,000 282 469 0
2021-10-15 11:34:31 GMT 53.715603 -1.672022 34,000 282 469 0
2021-10-15 11:34:28 GMT 53.715603 -1.672022 34,000 282 468 64
2021-10-15 11:34:25 GMT 53.714539 -1.663565 34,000 282 468 64
2021-10-15 11:34:23 GMT 53.713898 -1.658386 34,000 282 468 64
2021-10-15 11:34:21 GMT 53.712811 -1.649484 34,000 282 468 0
2021-10-15 11:34:19 GMT 53.711693 -1.640356 34,000 282 468 0
2021-10-15 11:34:16 GMT 53.710602 -1.631705 34,000 282 468 0
2021-10-15 11:34:13 GMT 53.708633 -1.615853 34,000 282 468 0
2021-10-15 11:34:10 GMT 53.707642 -1.607962 34,000 282 468 0
2021-10-15 11:34:07 GMT 53.706619 -1.599531 34,000 282 468 0
2021-10-15 11:34:05 GMT 53.705921 -1.594068 34,000 282 467 0
2021-10-15 11:34:03 GMT 53.704803 -1.585101 34,000 282 467 0
2021-10-15 11:34:00 GMT 53.703220 -1.572499 34,000 282 467 0
2021-10-15 11:33:57 GMT 53.702057 -1.562967 34,000 282 467 0
2021-10-15 11:33:55 GMT 53.701172 -1.555821 34,000 282 467 64
2021-10-15 11:33:53 GMT 53.700287 -1.548588 34,000 282 467 0
2021-10-15 11:33:50 GMT 53.699341 -1.541225 34,000 282 467 0
2021-10-15 11:33:48 GMT 53.697960 -1.530008 34,000 282 468 0
2021-10-15 11:33:45 GMT 53.696285 -1.516598 34,000 282 468 0
2021-10-15 11:33:42 GMT 53.695305 -1.509004 34,000 282 468 -64
2021-10-15 11:33:40 GMT 53.694626 -1.503401 34,000 282 468 0
2021-10-15 11:33:37 GMT 53.693253 -1.492257 34,000 282 468 0
2021-10-15 11:33:35 GMT 53.691193 -1.476092 34,000 282 468 0
2021-10-15 11:33:33 GMT 53.691193 -1.476092 34,000 282 468 0
2021-10-15 11:33:30 GMT 53.689819 -1.465262 34,000 282 468 0
2021-10-15 11:33:27 GMT 53.688629 -1.455688 34,000 282 468 0
2021-10-15 11:33:25 GMT 53.688034 -1.450745 34,000 282 468 0
2021-10-15 11:33:23 GMT 53.686569 -1.439131 34,000 282 467 0
2021-10-15 11:33:20 GMT 53.685883 -1.433637 34,000 282 468 0
2021-10-15 11:33:18 GMT 53.684509 -1.422886 34,000 282 468 0
2021-10-15 11:33:15 GMT 53.683483 -1.414490 34,000 282 468 0
2021-10-15 11:33:13 GMT 53.682411 -1.405846 34,000 282 468 0
2021-10-15 11:33:10 GMT 53.680664 -1.392203 34,000 282 467 0
2021-10-15 11:33:07 GMT 53.679806 -1.385085 34,000 282 467 0
2021-10-15 11:33:05 GMT 53.679108 -1.379592 34,000 282 467 0
2021-10-15 11:33:03 GMT 53.678036 -1.371271 34,000 282 467 0
2021-10-15 11:33:01 GMT 53.677002 -1.363089 34,000 282 467 0
2021-10-15 11:32:59 GMT 53.676315 -1.357518 34,000 283 467 0
2021-10-15 11:32:57 GMT 53.675125 -1.348336 34,000 282 467 0
2021-10-15 11:32:54 GMT 53.673939 -1.338959 34,000 283 467 0
2021-10-15 11:32:51 GMT 53.671509 -1.319693 34,000 283 467 0
2021-10-15 11:32:49 GMT 53.671509 -1.319693 34,000 283 467 0
2021-10-15 11:32:46 GMT 53.670044 -1.308158 34,000 283 467 0
2021-10-15 11:32:43 GMT 53.668762 -1.298192 34,000 283 467 0
2021-10-15 11:32:40 GMT 53.666630 -1.281119 34,000 283 467 0
2021-10-15 11:32:38 GMT 53.665188 -1.269971 34,000 283 467 0
2021-10-15 11:32:35 GMT 53.665188 -1.269971 34,000 283 467 0
2021-10-15 11:32:33 GMT 53.664536 -1.264801 34,000 283 467 0
2021-10-15 11:32:31 GMT 53.663418 -1.256077 34,000 283 467 0
2021-10-15 11:32:29 GMT 53.662537 -1.249067 34,000 283 467 0
2021-10-15 11:32:26 GMT 53.661278 -1.239032 34,000 283 467 0
2021-10-15 11:32:23 GMT 53.659973 -1.228692 34,000 283 467 0
2021-10-15 11:32:21 GMT 53.659042 -1.221583 34,000 283 467 0
2021-10-15 11:32:18 GMT 53.657455 -1.209124 34,000 283 467 0
2021-10-15 11:32:15 GMT 53.656540 -1.202061 34,000 283 468 0
2021-10-15 11:32:13 GMT 53.655319 -1.192501 34,000 283 468 0
2021-10-15 11:32:11 GMT 53.654480 -1.185635 34,000 283 468 0
2021-10-15 11:32:09 GMT 53.653748 -1.180167 34,000 283 468 0
2021-10-15 11:32:07 GMT 53.652851 -1.173275 34,000 283 468 0
2021-10-15 11:32:04 GMT 53.651501 -1.162450 34,000 283 468 0
2021-10-15 11:32:01 GMT 53.649811 -1.149562 34,000 283 468 0
2021-10-15 11:31:58 GMT 53.648846 -1.141851 34,000 283 468 0
2021-10-15 11:31:56 GMT 53.647934 -1.134809 34,000 283 468 0
2021-10-15 11:31:54 GMT 53.646469 -1.123509 34,000 283 468 0
2021-10-15 11:31:51 GMT 53.645634 -1.116647 34,000 283 468 0
2021-10-15 11:31:49 GMT 53.644424 -1.107519 34,000 283 466 -64
2021-10-15 11:31:47 GMT 53.642349 -1.091178 34,000 283 468 0
2021-10-15 11:31:44 GMT 53.642349 -1.091178 34,000 283 468 0
2021-10-15 11:31:42 GMT 53.640049 -1.073429 34,000 283 468 0
2021-10-15 11:31:40 GMT 53.640049 -1.073429 34,000 283 468 0
2021-10-15 11:31:37 GMT 53.637405 -1.052883 34,000 283 468 0
2021-10-15 11:31:34 GMT 53.637405 -1.052883 34,000 283 468 0
2021-10-15 11:31:31 GMT 53.636078 -1.042524 34,000 283 468 0
2021-10-15 11:31:28 GMT 53.634789 -1.032392 34,000 283 468 0
2021-10-15 11:31:25 GMT 53.632095 -1.011684 34,000 283 468 0
2021-10-15 11:31:22 GMT 53.632095 -1.011684 34,000 283 468 0
2021-10-15 11:31:20 GMT 53.630737 -1.001291 34,000 283 468 0
2021-10-15 11:31:17 GMT 53.628754 -0.985944 34,000 283 468 0
2021-10-15 11:31:15 GMT 53.628754 -0.985944 34,000 283 468 0
2021-10-15 11:31:12 GMT 53.627609 -0.976920 34,000 283 468 0
2021-10-15 11:31:10 GMT 53.626827 -0.971159 34,000 283 468 64
2021-10-15 11:31:08 GMT 53.624779 -0.955164 34,000 283 468 0
2021-10-15 11:31:06 GMT 53.624779 -0.955164 34,000 283 469 0
2021-10-15 11:31:04 GMT 53.622543 -0.938119 34,000 283 468 0
2021-10-15 11:31:02 GMT 53.622543 -0.938119 34,000 283 468 0
2021-10-15 11:30:59 GMT 53.621292 -0.928502 34,000 283 469 0
2021-10-15 11:30:56 GMT 53.619827 -0.917280 34,000 283 469 0
2021-10-15 11:30:53 GMT 53.619148 -0.912027 34,000 283 468 0
2021-10-15 11:30:51 GMT 53.617798 -0.901687 34,000 283 467 0
2021-10-15 11:30:48 GMT 53.616211 -0.889422 34,000 283 467 0
2021-10-15 11:30:45 GMT 53.614536 -0.876806 34,000 283 467 0
2021-10-15 11:30:42 GMT 53.612255 -0.859357 34,000 283 467 0
2021-10-15 11:30:39 GMT 53.612255 -0.859357 34,000 283 467 0
2021-10-15 11:30:36 GMT 53.610992 -0.849479 34,000 283 466 -64
2021-10-15 11:30:33 GMT 53.609741 -0.840131 34,000 283 466 -64
2021-10-15 11:30:31 GMT 53.608658 -0.831587 34,000 283 466 0
2021-10-15 11:30:28 GMT 53.607056 -0.819423 34,000 283 466 0
2021-10-15 11:30:25 GMT 53.605591 -0.808280 34,000 283 466 0
2021-10-15 11:30:22 GMT 53.604401 -0.799255 34,000 283 466 0
2021-10-15 11:30:19 GMT 53.601364 -0.775829 34,000 283 466 0
2021-10-15 11:30:16 GMT 53.600433 -0.769043 34,000 283 466 0
2021-10-15 11:30:13 GMT 53.600433 -0.769043 34,000 283 466 0
2021-10-15 11:30:11 GMT 53.598991 -0.757814 34,000 283 466 0
2021-10-15 11:30:08 GMT 53.597778 -0.748848 34,000 283 466 0
2021-10-15 11:30:05 GMT 53.596756 -0.741185 34,000 283 466 0
2021-10-15 11:30:03 GMT 53.593918 -0.719369 34,000 283 466 0
2021-10-15 11:30:00 GMT 53.593918 -0.719369 34,000 283 466 0
2021-10-15 11:29:57 GMT 53.591587 -0.701832 34,000 283 466 0
2021-10-15 11:29:55 GMT 53.591587 -0.701832 34,000 283 465 0
2021-10-15 11:29:52 GMT 53.590393 -0.693002 34,000 283 465 0
2021-10-15 11:29:50 GMT 53.589539 -0.686403 34,000 283 465 0
2021-10-15 11:29:47 GMT 53.588329 -0.677275 34,000 283 465 0
2021-10-15 11:29:45 GMT 53.586960 -0.666870 34,000 283 465 0
2021-10-15 11:29:42 GMT 53.585815 -0.658473 34,000 283 465 0
2021-10-15 11:29:40 GMT 53.584671 -0.649763 34,000 283 465 0
2021-10-15 11:29:37 GMT 53.583626 -0.641812 34,000 283 465 0
2021-10-15 11:29:35 GMT 53.582520 -0.633754 34,000 283 465 0
2021-10-15 11:29:33 GMT 53.581673 -0.627271 34,000 283 465 0
2021-10-15 11:29:31 GMT 53.578228 -0.601421 34,000 283 464 0
2021-10-15 11:29:27 GMT 53.578228 -0.601421 34,000 283 464 0
2021-10-15 11:29:24 GMT 53.577343 -0.594716 34,000 283 464 0
2021-10-15 11:29:21 GMT 53.575607 -0.581961 34,000 283 464 0
2021-10-15 11:29:18 GMT 53.574005 -0.570033 34,000 283 464 0
2021-10-15 11:29:15 GMT 53.572083 -0.555456 34,000 283 464 0
2021-10-15 11:29:12 GMT 53.572083 -0.555456 34,000 283 464 0
2021-10-15 11:29:10 GMT 53.570572 -0.544294 34,000 283 464 0
2021-10-15 11:29:07 GMT 53.569336 -0.534877 34,000 283 464 0
2021-10-15 11:29:05 GMT 53.568237 -0.526873 34,000 283 464 0
2021-10-15 11:29:03 GMT 53.567429 -0.520800 34,000 283 464 0
2021-10-15 11:29:01 GMT 53.566727 -0.515337 34,000 283 464 0
2021-10-15 11:28:59 GMT 53.565704 -0.507956 34,000 283 463 0
2021-10-15 11:28:57 GMT 53.564484 -0.498701 34,000 283 463 0
2021-10-15 11:28:54 GMT 53.561890 -0.479279 34,000 283 463 0
2021-10-15 11:28:51 GMT 53.561890 -0.479279 34,000 283 463 0
2021-10-15 11:28:49 GMT 53.561237 -0.474432 34,000 283 463 0
2021-10-15 11:28:47 GMT 53.559933 -0.465061 34,000 283 463 0
2021-10-15 11:28:44 GMT 53.558075 -0.451067 34,000 283 463 0
2021-10-15 11:28:41 GMT 53.557159 -0.444240 34,000 283 463 0
2021-10-15 11:28:39 GMT 53.555923 -0.435294 34,000 283 463 0
2021-10-15 11:28:36 GMT 53.554440 -0.424185 34,000 283 463 0
2021-10-15 11:28:33 GMT 53.553268 -0.415676 34,000 283 462 0
2021-10-15 11:28:31 GMT 53.552490 -0.409947 34,000 283 462 0
2021-10-15 11:28:29 GMT 53.549877 -0.390580 34,000 283 462 0
2021-10-15 11:28:26 GMT 53.548462 -0.379892 34,000 283 462 0
2021-10-15 11:28:23 GMT 53.547180 -0.370553 34,000 283 462 0
2021-10-15 11:28:20 GMT 53.546036 -0.362078 34,000 283 462 0
2021-10-15 11:28:18 GMT 53.546036 -0.362078 34,000 283 462 0
2021-10-15 11:28:15 GMT 53.544804 -0.352855 34,000 283 462 0
2021-10-15 11:28:13 GMT 53.543777 -0.345262 34,000 283 462 0
2021-10-15 11:28:11 GMT 53.542988 -0.339445 34,000 283 462 64
2021-10-15 11:28:09 GMT 53.542011 -0.332336 34,000 283 462 0
2021-10-15 11:28:06 GMT 53.540287 -0.319654 34,000 283 462 0
2021-10-15 11:28:03 GMT 53.538757 -0.308323 34,000 283 462 0
2021-10-15 11:28:00 GMT 53.537796 -0.301025 34,000 283 462 0
2021-10-15 11:27:57 GMT 53.536053 -0.288391 34,000 283 461 0
2021-10-15 11:27:54 GMT 53.534637 -0.278111 34,000 283 461 0
2021-10-15 11:27:51 GMT 53.533398 -0.268842 34,000 283 461 0
2021-10-15 11:27:49 GMT 53.532654 -0.263349 34,000 283 461 0
2021-10-15 11:27:46 GMT 53.530975 -0.251038 34,000 283 461 0
2021-10-15 11:27:43 GMT 53.529602 -0.241150 34,000 283 461 0
2021-10-15 11:27:40 GMT 53.528183 -0.230477 34,000 283 461 0
2021-10-15 11:27:37 GMT 53.526649 -0.219484 34,000 283 461 0
2021-10-15 11:27:34 GMT 53.525436 -0.210545 34,000 283 461 0
2021-10-15 11:27:32 GMT 53.524597 -0.204620 34,000 283 461 0
2021-10-15 11:27:30 GMT 53.522320 -0.187818 34,000 283 461 0
2021-10-15 11:27:28 GMT 53.522320 -0.187818 34,000 283 461 0
2021-10-15 11:27:21 GMT 53.518410 -0.159140 34,000 283 461 0
2021-10-15 11:27:16 GMT 53.516685 -0.146457 34,000 283 461 0
2021-10-15 11:27:14 GMT 53.515457 -0.137486 34,000 283 461 0
2021-10-15 11:27:11 GMT 53.514221 -0.128540 34,000 284 461 0
2021-10-15 11:27:08 GMT 53.512821 -0.118184 34,000 284 460 0
2021-10-15 11:27:05 GMT 53.511517 -0.108813 34,000 284 460 0
2021-10-15 11:27:02 GMT 53.508354 -0.086033 34,000 284 460 0
2021-10-15 11:26:59 GMT 53.508354 -0.086033 34,000 284 460 0
2021-10-15 11:26:56 GMT 53.505745 -0.067049 34,000 284 460 0
2021-10-15 11:26:53 GMT 53.505745 -0.067049 34,000 284 460 0
2021-10-15 11:26:50 GMT 53.504627 -0.059213 34,000 284 460 0
2021-10-15 11:26:47 GMT 53.502869 -0.046456 34,000 284 460 0
2021-10-15 11:26:44 GMT 53.501266 -0.035078 34,000 284 460 0
2021-10-15 11:26:42 GMT 53.500347 -0.028678 34,000 284 460 0
2021-10-15 11:26:40 GMT 53.499462 -0.022053 34,000 284 459 0
2021-10-15 11:26:37 GMT 53.498154 -0.012791 34,000 284 459 0
2021-10-15 11:26:34 GMT 53.496414 -0.000392 34,000 284 459 0
2021-10-15 11:26:31 GMT 53.493690 0.019388 34,000 284 459 0
2021-10-15 11:26:28 GMT 53.493690 0.019388 34,000 284 459 0
2021-10-15 11:26:25 GMT 53.492058 0.031182 34,000 284 458 0
2021-10-15 11:26:22 GMT 53.490555 0.041827 34,000 284 458 0
2021-10-15 11:26:19 GMT 53.489124 0.052347 34,000 284 458 0
2021-10-15 11:26:16 GMT 53.487682 0.062687 34,000 284 458 0
2021-10-15 11:26:13 GMT 53.485977 0.074864 34,000 284 458 0
2021-10-15 11:26:10 GMT 53.484936 0.082317 34,000 284 458 0
2021-10-15 11:26:07 GMT 53.483448 0.093061 34,000 284 458 0
2021-10-15 11:26:04 GMT 53.481956 0.103805 34,000 284 458 0
2021-10-15 11:26:01 GMT 53.478699 0.127151 34,000 284 457 0
2021-10-15 11:25:58 GMT 53.478699 0.127151 34,000 284 457 0
2021-10-15 11:25:55 GMT 53.477463 0.135760 34,000 284 458 0
2021-10-15 11:25:52 GMT 53.476559 0.142418 34,000 284 458 0
2021-10-15 11:25:50 GMT 53.475441 0.150416 34,000 284 458 0
2021-10-15 11:25:48 GMT 53.473938 0.161264 34,000 284 458 0
2021-10-15 11:25:45 GMT 53.472794 0.169268 34,000 284 458 0
2021-10-15 11:25:43 GMT 53.470085 0.188545 34,000 284 458 0
2021-10-15 11:25:40 GMT 53.470085 0.188545 34,000 284 458 0
2021-10-15 11:25:37 GMT 53.468582 0.199166 34,000 284 458 0
2021-10-15 11:25:34 GMT 53.467850 0.204424 34,000 284 458 0
2021-10-15 11:25:32 GMT 53.466614 0.213135 34,000 284 458 0
2021-10-15 11:25:29 GMT 53.465618 0.220292 34,000 284 458 0
2021-10-15 11:25:26 GMT 53.463428 0.235964 34,000 284 458 0
2021-10-15 11:25:23 GMT 53.461945 0.246251 34,000 284 458 0
2021-10-15 11:25:20 GMT 53.460682 0.255109 34,000 284 458 0
2021-10-15 11:25:16 GMT 53.458588 0.269892 34,000 284 458 -64
2021-10-15 11:25:13 GMT 53.457005 0.281121 34,000 284 458 -64
2021-10-15 11:25:10 GMT 53.456028 0.288149 34,000 284 458 -64
2021-10-15 11:25:07 GMT 53.453934 0.302595 34,000 284 458 0
2021-10-15 11:25:04 GMT 53.452972 0.309422 34,000 284 458 0
2021-10-15 11:25:01 GMT 53.451466 0.319977 34,000 284 459 0
2021-10-15 11:24:58 GMT 53.450024 0.330075 34,000 284 459 0
2021-10-15 11:24:55 GMT 53.448627 0.339930 34,000 284 459 0
2021-10-15 11:24:52 GMT 53.446857 0.352370 34,000 284 460 0
2021-10-15 11:24:49 GMT 53.445553 0.361822 34,000 284 459 0
2021-10-15 11:24:46 GMT 53.443817 0.373771 34,000 284 460 0
2021-10-15 11:24:43 GMT 53.442535 0.382874 34,000 284 460 0
2021-10-15 11:24:41 GMT 53.441757 0.388367 34,000 284 460 0
2021-10-15 11:24:38 GMT 53.439922 0.401324 34,000 284 460 0
2021-10-15 11:24:35 GMT 53.438919 0.408299 34,000 284 460 0
2021-10-15 11:24:32 GMT 53.437088 0.421090 34,000 284 460 0
2021-10-15 11:24:29 GMT 53.435684 0.431213 34,000 284 460 0
2021-10-15 11:24:26 GMT 53.434387 0.440238 34,000 284 460 0
2021-10-15 11:24:24 GMT 53.433334 0.447457 34,000 284 460 0
2021-10-15 11:24:21 GMT 53.431595 0.459699 34,000 284 460 0
2021-10-15 11:24:18 GMT 53.429947 0.471392 34,000 284 459 0
2021-10-15 11:24:15 GMT 53.428619 0.480652 34,000 284 459 0
2021-10-15 11:24:12 GMT 53.427120 0.491234 34,000 284 459 0
2021-10-15 11:24:09 GMT 53.424789 0.507310 34,000 284 458 64
2021-10-15 11:24:07 GMT 53.424789 0.507310 34,000 284 458 64
2021-10-15 11:24:04 GMT 53.422165 0.525696 34,000 284 457 192
2021-10-15 11:24:02 GMT 53.422165 0.525696 34,000 284 458 128
2021-10-15 11:23:59 GMT 53.421204 0.532366 33,975 284 458 128
2021-10-15 11:23:57 GMT 53.418320 0.552305 33,975 284 457 256
2021-10-15 11:23:54 GMT 53.418320 0.552305 33,975 284 457 256
2021-10-15 11:23:51 GMT 53.416924 0.562080 33,950 284 457 320
2021-10-15 11:23:48 GMT 53.415665 0.570818 33,950 284 457 320
2021-10-15 11:23:46 GMT 53.414062 0.581961 33,900 284 456 448
2021-10-15 11:23:43 GMT 53.413155 0.588172 33,900 284 456 320
2021-10-15 11:23:40 GMT 53.411617 0.598836 33,900 284 456 384
2021-10-15 11:23:37 GMT 53.409897 0.610549 33,825 284 456 384
2021-10-15 11:23:34 GMT 53.408546 0.619920 33,850 284 456 384
2021-10-15 11:23:31 GMT 53.406635 0.633006 33,825 284 456 384
2021-10-15 11:23:28 GMT 53.405426 0.641488 33,825 284 456 448
2021-10-15 11:23:25 GMT 53.404167 0.650294 33,800 284 456 448
2021-10-15 11:23:22 GMT 53.402401 0.662330 33,775 284 456 448
2021-10-15 11:23:19 GMT 53.399094 0.685311 33,725 284 456 448
2021-10-15 11:23:16 GMT 53.399094 0.685311 33,675 284 456 448
2021-10-15 11:23:13 GMT 53.398209 0.691412 33,700 284 456 512
2021-10-15 11:23:11 GMT 53.396805 0.701242 33,675 284 456 512
2021-10-15 11:23:08 GMT 53.393929 0.720978 33,650 284 457 512
2021-10-15 11:23:05 GMT 53.393929 0.720978 33,625 284 457 512
2021-10-15 11:23:02 GMT 53.392391 0.731399 33,500 284 457 512
2021-10-15 11:22:59 GMT 53.391041 0.740850 33,575 284 457 512
2021-10-15 11:22:55 GMT 53.387100 0.767630 33,550 284 457 576
2021-10-15 11:22:52 GMT 53.386105 0.774536 33,525 284 457 512
2021-10-15 11:22:49 GMT 53.386105 0.774536 33,500 284 457 576
2021-10-15 11:22:47 GMT 53.385082 0.781403 33,475 284 457 576
2021-10-15 11:22:45 GMT 53.383732 0.790612 33,475 284 457 576
2021-10-15 11:22:42 GMT 53.382427 0.799740 33,425 284 457 640
2021-10-15 11:22:39 GMT 53.380894 0.809999 33,400 284 457 640
2021-10-15 11:22:36 GMT 53.379498 0.819774 33,375 284 457 704
2021-10-15 11:22:33 GMT 53.378128 0.829075 33,325 284 457 704
2021-10-15 11:22:30 GMT 53.376610 0.839242 33,300 284 458 704
2021-10-15 11:22:26 GMT 53.374607 0.852895 33,225 284 458 704
2021-10-15 11:22:23 GMT 53.372910 0.864467 33,225 284 458 704
2021-10-15 11:22:21 GMT 53.371861 0.871394 33,200 284 458 704
2021-10-15 11:22:18 GMT 53.370392 0.881496 33,150 284 459 640
2021-10-15 11:22:15 GMT 53.369114 0.890135 33,125 284 459 640
2021-10-15 11:22:13 GMT 53.367783 0.898996 33,075 284 459 576
2021-10-15 11:22:11 GMT 53.365723 0.912964 33,000 284 459 576
2021-10-15 11:22:08 GMT 53.365723 0.912964 33,050 284 459 576
2021-10-15 11:22:06 GMT 53.364647 0.920267 33,025 284 459 576
2021-10-15 11:22:03 GMT 53.362656 0.933916 33,000 284 459 576
2021-10-15 11:22:01 GMT 53.360367 0.949454 32,975 284 459 576
2021-10-15 11:21:58 GMT 53.360367 0.949454 32,950 284 459 576
2021-10-15 11:21:55 GMT 53.357529 0.968602 32,875 284 459 576
2021-10-15 11:21:52 GMT 53.357529 0.968602 32,900 284 459 576
2021-10-15 11:21:50 GMT 53.354370 0.990025 32,875 284 458 512
2021-10-15 11:21:47 GMT 53.354370 0.990025 32,850 284 458 512
2021-10-15 11:21:44 GMT 53.352962 0.999352 32,825 284 458 512
2021-10-15 11:21:41 GMT 53.351624 1.008545 32,775 284 458 448
2021-10-15 11:21:38 GMT 53.350307 1.017366 32,775 284 458 512
2021-10-15 11:21:36 GMT 53.349060 1.025731 32,725 284 458 448
2021-10-15 11:21:33 GMT 53.347778 1.034520 32,725 284 458 448
2021-10-15 11:21:30 GMT 53.346306 1.044509 32,675 285 457 448
2021-10-15 11:21:27 GMT 53.344208 1.058611 32,675 285 457 448
2021-10-15 11:21:24 GMT 53.343094 1.066078 32,575 285 457 512
2021-10-15 11:21:21 GMT 53.341324 1.077837 32,650 285 457 448
2021-10-15 11:21:18 GMT 53.340134 1.085685 32,625 285 457 512
2021-10-15 11:21:15 GMT 53.338062 1.099602 32,600 285 457 512
2021-10-15 11:21:12 GMT 53.336994 1.106711 32,550 285 457 512
2021-10-15 11:21:08 GMT 53.334991 1.120121 32,550 285 456 576
2021-10-15 11:21:05 GMT 53.333504 1.130299 32,500 285 456 576
2021-10-15 11:21:02 GMT 53.331711 1.142107 32,475 285 456 576
2021-10-15 11:20:59 GMT 53.330200 1.152387 32,450 285 456 640
2021-10-15 11:20:57 GMT 53.328896 1.160996 32,425 285 456 640
2021-10-15 11:20:54 GMT 53.327869 1.167863 32,425 285 456 640
2021-10-15 11:20:51 GMT 53.326008 1.180303 32,375 285 456 640
2021-10-15 11:20:48 GMT 53.324524 1.190290 32,350 285 456 704
2021-10-15 11:20:46 GMT 53.323700 1.195705 32,325 285 456 704
2021-10-15 11:20:43 GMT 53.320560 1.216493 32,250 285 456 640
2021-10-15 11:20:40 GMT 53.320560 1.216493 32,250 285 456 640
2021-10-15 11:20:38 GMT 53.319538 1.223360 32,225 285 456 704
2021-10-15 11:20:36 GMT 53.318558 1.230065 32,175 285 456 704
2021-10-15 11:20:33 GMT 53.315506 1.250166 32,150 285 456 640
2021-10-15 11:20:30 GMT 53.315506 1.250166 32,150 285 456 640
2021-10-15 11:20:28 GMT 53.313019 1.266659 32,100 285 456 576
2021-10-15 11:20:26 GMT 53.313019 1.266659 32,075 285 456 576
2021-10-15 11:20:22 GMT 53.311203 1.278887 32,050 285 456 576
2021-10-15 11:20:19 GMT 53.307678 1.302272 32,000 285 456 512
2021-10-15 11:20:16 GMT 53.307678 1.302272 31,975 285 452 0
2021-10-15 11:20:13 GMT 53.306225 1.311978 31,975 285 456 512
2021-10-15 11:20:10 GMT 53.305573 1.316259 31,925 285 455 512
2021-10-15 11:20:07 GMT 53.301682 1.342058 31,925 285 455 448
2021-10-15 11:20:04 GMT 53.300446 1.350220 31,900 285 455 448
2021-10-15 11:20:01 GMT 53.300446 1.350220 31,875 285 455 384
2021-10-15 11:19:57 GMT 53.298309 1.364163 31,850 285 454 384
2021-10-15 11:19:54 GMT 53.295517 1.382904 31,825 285 454 320
2021-10-15 11:19:51 GMT 53.295517 1.382904 31,775 285 454 320
2021-10-15 11:19:48 GMT 53.293991 1.392909 31,800 285 453 256
2021-10-15 11:19:46 GMT 53.293213 1.397932 31,775 285 453 192
2021-10-15 11:19:44 GMT 53.291931 1.406573 31,800 285 452 192
2021-10-15 11:19:41 GMT 53.290161 1.418286 31,775 285 451 128
2021-10-15 11:19:38 GMT 53.288628 1.428465 31,775 285 450 256
2021-10-15 11:19:36 GMT 53.287720 1.434501 31,775 285 451 128
2021-10-15 11:19:33 GMT 53.286209 1.444310 31,550 285 450 704
2021-10-15 11:19:30 GMT 53.283226 1.464090 31,650 285 450 768
2021-10-15 11:19:27 GMT 53.283226 1.464090 31,700 285 450 704
2021-10-15 11:19:25 GMT 53.281036 1.478388 31,650 285 450 704
2021-10-15 11:19:23 GMT 53.279709 1.487235 31,575 285 450 640
2021-10-15 11:19:20 GMT 53.279709 1.487235 31,625 285 450 704
2021-10-15 11:19:17 GMT 53.278011 1.498422 31,575 285 450 640
2021-10-15 11:19:15 GMT 53.275219 1.516517 31,525 285 449 640
2021-10-15 11:19:12 GMT 53.275219 1.516517 31,475 285 449 576
2021-10-15 11:19:09 GMT 53.273987 1.524745 31,475 285 449 512
2021-10-15 11:19:06 GMT 53.272202 1.536124 31,475 285 449 512
2021-10-15 11:19:03 GMT 53.270702 1.546003 31,450 285 448 512
2021-10-15 11:19:00 GMT 53.269409 1.554644 31,425 285 449 512
2021-10-15 11:18:57 GMT 53.267818 1.564986 31,400 285 449 576
2021-10-15 11:18:54 GMT 53.266514 1.573226 31,350 285 449 576
2021-10-15 11:18:51 GMT 53.265022 1.582920 31,275 285 448 576
2021-10-15 11:18:48 GMT 53.262882 1.596814 31,300 285 448 576
2021-10-15 11:18:46 GMT 53.262085 1.601964 31,275 285 448 576
2021-10-15 11:18:43 GMT 53.260620 1.611616 31,250 285 448 576
2021-10-15 11:18:40 GMT 53.258972 1.622288 31,225 285 448 576
2021-10-15 11:18:38 GMT 53.258183 1.627269 31,225 285 447 576
2021-10-15 11:18:36 GMT 53.256599 1.637448 31,175 285 447 576
2021-10-15 11:18:33 GMT 53.255760 1.642860 31,150 285 447 576
2021-10-15 11:18:30 GMT 53.253799 1.655718 31,125 285 447 576
2021-10-15 11:18:27 GMT 53.252174 1.666287 31,100 285 447 576
2021-10-15 11:18:25 GMT 53.250828 1.674769 31,075 285 447 576
2021-10-15 11:18:22 GMT 53.250080 1.679777 31,025 285 446 576
2021-10-15 11:18:20 GMT 53.246822 1.700700 31,000 285 446 576
2021-10-15 11:18:17 GMT 53.246822 1.700700 31,000 285 446 576
2021-10-15 11:18:14 GMT 53.245518 1.709101 30,875 285 445 576
2021-10-15 11:18:11 GMT 53.242538 1.728385 30,925 285 445 576
2021-10-15 11:18:08 GMT 53.242538 1.728385 30,900 285 445 576
2021-10-15 11:18:06 GMT 53.241440 1.735291 30,875 285 445 576
2021-10-15 11:18:03 GMT 53.239746 1.746198 30,850 285 444 512
2021-10-15 11:18:00 GMT 53.237930 1.757974 30,775 285 443 576
2021-10-15 11:17:57 GMT 53.234848 1.777666 30,800 285 444 512
2021-10-15 11:17:54 GMT 53.234848 1.777666 30,775 285 443 576
2021-10-15 11:17:51 GMT 53.231598 1.798527 30,725 285 442 640
2021-10-15 11:17:48 GMT 53.231598 1.798527 30,700 285 443 576
2021-10-15 11:17:45 GMT 53.230900 1.803050 30,675 285 442 640
2021-10-15 11:17:42 GMT 53.228897 1.816056 30,650 285 442 640
2021-10-15 11:17:38 GMT 53.226562 1.830872 30,525 285 442 640
2021-10-15 11:17:35 GMT 53.225780 1.835929 30,600 285 441 640
2021-10-15 11:17:33 GMT 53.224754 1.842633 30,575 285 441 640
2021-10-15 11:17:31 GMT 53.223450 1.850961 30,525 285 441 640
2021-10-15 11:17:28 GMT 53.221619 1.862497 30,500 285 441 640
2021-10-15 11:17:26 GMT 53.221127 1.865656 30,475 285 440 640
2021-10-15 11:17:23 GMT 53.218872 1.880232 30,450 285 440 640
2021-10-15 11:17:20 GMT 53.217819 1.886983 30,425 285 440 640
2021-10-15 11:17:17 GMT 53.216003 1.898454 30,375 285 439 640
2021-10-15 11:17:14 GMT 53.214203 1.910052 30,350 285 439 640
2021-10-15 11:17:11 GMT 53.213211 1.916468 30,325 285 439 640
2021-10-15 11:17:08 GMT 53.211628 1.926485 30,275 285 438 640
2021-10-15 11:17:05 GMT 53.208649 1.945549 30,150 285 438 640
2021-10-15 11:17:02 GMT 53.208649 1.945549 30,150 285 438 640
2021-10-15 11:16:59 GMT 53.207016 1.955802 30,200 285 438 640
2021-10-15 11:16:56 GMT 53.204041 1.974712 30,150 285 437 640
2021-10-15 11:16:53 GMT 53.204041 1.974712 30,150 285 437 640
2021-10-15 11:16:50 GMT 53.202412 1.985133 30,050 285 437 640
2021-10-15 11:16:47 GMT 53.201065 1.993705 30,075 285 437 640
2021-10-15 11:16:45 GMT 53.200035 2.000400 30,025 285 436 640
2021-10-15 11:16:42 GMT 53.198502 2.010094 30,000 285 436 640
2021-10-15 11:16:39 GMT 53.196671 2.021563 29,975 285 436 640
2021-10-15 11:16:36 GMT 53.195660 2.028108 29,950 285 436 640
2021-10-15 11:16:34 GMT 53.192688 2.046753 29,900 285 435 640
2021-10-15 11:16:31 GMT 53.192688 2.046753 29,900 285 435 640
2021-10-15 11:16:28 GMT 53.191589 2.053737 29,875 285 434 640
2021-10-15 11:16:25 GMT 53.189758 2.065351 29,850 285 434 640
2021-10-15 11:16:22 GMT 53.188168 2.075447 29,800 285 433 640
2021-10-15 11:16:19 GMT 53.186352 2.086998 29,700 285 433 640
2021-10-15 11:16:16 GMT 53.185226 2.093837 29,725 285 433 640
2021-10-15 11:16:14 GMT 53.183853 2.102548 29,675 285 433 640
2021-10-15 11:16:11 GMT 53.182526 2.110866 29,625 285 432 640
2021-10-15 11:16:08 GMT 53.181244 2.119106 29,650 285 432 640
2021-10-15 11:16:05 GMT 53.179367 2.130798 29,575 285 431 640
2021-10-15 11:16:02 GMT 53.177856 2.140137 29,575 285 431 640
2021-10-15 11:16:00 GMT 53.176388 2.149524 29,550 285 430 640
2021-10-15 11:15:57 GMT 53.174622 2.160671 29,525 285 430 640
2021-10-15 11:15:55 GMT 53.173782 2.165719 29,500 285 430 704
2021-10-15 11:15:51 GMT 53.172409 2.174430 29,375 285 429 896
2021-10-15 11:15:48 GMT 53.170895 2.183856 29,400 285 430 768
2021-10-15 11:15:45 GMT 53.169296 2.193891 29,375 285 429 896
2021-10-15 11:15:42 GMT 53.167831 2.202994 29,325 285 429 832
2021-10-15 11:15:39 GMT 53.165913 2.214957 29,300 285 429 960
2021-10-15 11:15:35 GMT 53.164352 2.224731 29,250 285 429 1024
2021-10-15 11:15:32 GMT 53.162430 2.236816 28,875 286 428 832
2021-10-15 11:15:29 GMT 53.160934 2.246300 29,125 285 429 1024
2021-10-15 11:15:25 GMT 53.159180 2.257220 29,075 285 429 1024
2021-10-15 11:15:23 GMT 53.157898 2.265067 29,025 285 429 1024
2021-10-15 11:15:18 GMT 53.155151 2.282331 28,925 285 429 1024
2021-10-15 11:15:15 GMT 53.154053 2.289080 28,875 285 429 1024
2021-10-15 11:15:13 GMT 53.153297 2.294042 28,875 285 429 1024
2021-10-15 11:15:11 GMT 53.151901 2.302605 28,775 285 429 1024
2021-10-15 11:15:08 GMT 53.150505 2.311330 28,675 285 429 1024
2021-10-15 11:15:05 GMT 53.148876 2.321427 28,725 285 429 1024
2021-10-15 11:15:03 GMT 53.148056 2.326747 28,675 285 429 1024
2021-10-15 11:15:01 GMT 53.146454 2.336635 28,625 285 429 1024
2021-10-15 11:14:58 GMT 53.145245 2.344046 28,500 285 429 960
2021-10-15 11:14:54 GMT 53.143429 2.355598 28,475 286 428 832
2021-10-15 11:14:51 GMT 53.141754 2.365696 28,475 286 428 832
2021-10-15 11:14:48 GMT 53.140137 2.375793 28,400 286 428 832
2021-10-15 11:14:44 GMT 53.138031 2.389056 28,375 286 428 832
2021-10-15 11:14:41 GMT 53.136703 2.397217 28,375 286 427 832
2021-10-15 11:14:38 GMT 53.135010 2.407654 28,300 286 427 832
2021-10-15 11:14:36 GMT 53.133957 2.414324 28,275 286 427 832
2021-10-15 11:14:34 GMT 53.130905 2.433149 28,225 286 426 768
2021-10-15 11:14:31 GMT 53.130905 2.433149 28,200 286 426 768
2021-10-15 11:14:28 GMT 53.129379 2.442653 28,175 286 426 768
2021-10-15 11:14:25 GMT 53.128254 2.449628 28,125 286 425 832
2021-10-15 11:14:22 GMT 53.126862 2.458269 28,075 286 425 896
2021-10-15 11:14:20 GMT 53.123924 2.476448 27,750 286 419 960
2021-10-15 11:14:17 GMT 53.123924 2.476448 28,000 286 425 896
2021-10-15 11:14:14 GMT 53.122898 2.482749 27,975 286 424 896
2021-10-15 11:14:12 GMT 53.121780 2.489659 27,950 286 424 960
2021-10-15 11:14:10 GMT 53.120247 2.498905 27,900 286 424 960
2021-10-15 11:14:07 GMT 53.119270 2.505044 27,875 286 424 960
2021-10-15 11:14:04 GMT 53.117706 2.514771 27,750 286 423 960
2021-10-15 11:14:01 GMT 53.116241 2.523705 27,725 286 423 960
2021-10-15 11:13:58 GMT 53.114548 2.534310 27,725 286 423 960
2021-10-15 11:13:56 GMT 53.113358 2.541452 27,650 286 423 960
2021-10-15 11:13:53 GMT 53.110153 2.561305 27,600 286 423 960
2021-10-15 11:13:50 GMT 53.110153 2.561305 27,575 286 422 896
2021-10-15 11:13:47 GMT 53.109421 2.565700 27,550 286 422 896
2021-10-15 11:13:44 GMT 53.107635 2.576765 27,500 286 422 896
2021-10-15 11:13:42 GMT 53.106373 2.584614 27,425 286 421 960
2021-10-15 11:13:40 GMT 53.105301 2.591125 27,400 286 421 960
2021-10-15 11:13:37 GMT 53.104324 2.597297 27,350 286 421 960
2021-10-15 11:13:34 GMT 53.102463 2.608607 27,325 286 420 960
2021-10-15 11:13:32 GMT 53.101181 2.616473 27,300 286 420 960
2021-10-15 11:13:30 GMT 53.100090 2.623067 27,275 286 420 960
2021-10-15 11:13:27 GMT 53.099075 2.629499 27,200 286 420 960
2021-10-15 11:13:24 GMT 53.097382 2.639779 27,175 286 419 960
2021-10-15 11:13:22 GMT 53.096085 2.647544 27,050 286 418 960
2021-10-15 11:13:19 GMT 53.094875 2.655160 27,000 286 418 960
2021-10-15 11:13:16 GMT 53.093307 2.664642 27,025 286 418 960
2021-10-15 11:13:13 GMT 53.091568 2.675323 26,975 286 418 1024
2021-10-15 11:13:10 GMT 53.090240 2.683182 26,925 286 417 1024
2021-10-15 11:13:07 GMT 53.088871 2.691493 26,900 286 417 1024
2021-10-15 11:13:05 GMT 53.087521 2.699969 26,875 286 417 1088
2021-10-15 11:13:00 GMT 53.083786 2.722778 26,750 286 416 1088
2021-10-15 11:12:57 GMT 53.083786 2.722778 26,725 286 416 1088
2021-10-15 11:12:54 GMT 53.082027 2.733398 26,650 286 416 1088
2021-10-15 11:12:50 GMT 53.079514 2.748622 26,175 286 414 1088
2021-10-15 11:12:47 GMT 53.078339 2.755814 26,525 286 415 1088
2021-10-15 11:12:43 GMT 53.076324 2.767944 26,450 286 414 1088
2021-10-15 11:12:40 GMT 53.075043 2.775853 26,400 286 414 1088
2021-10-15 11:12:37 GMT 53.073624 2.784576 26,200 286 411 1216
2021-10-15 11:12:34 GMT 53.072346 2.792254 26,300 286 414 1088
2021-10-15 11:12:32 GMT 53.070969 2.800674 26,250 286 414 1088
2021-10-15 11:12:29 GMT 53.069595 2.809067 26,175 286 413 1088
2021-10-15 11:12:26 GMT 53.067947 2.818909 26,175 286 413 1088
2021-10-15 11:12:23 GMT 53.065968 2.831177 26,075 286 413 1152
2021-10-15 11:12:20 GMT 53.065063 2.836533 26,025 286 412 1152
2021-10-15 11:12:17 GMT 53.063324 2.847061 25,950 286 412 1152
2021-10-15 11:12:13 GMT 53.061451 2.858407 25,900 286 412 1216
2021-10-15 11:12:10 GMT 53.060287 2.865313 25,875 286 412 1216
2021-10-15 11:12:07 GMT 53.056870 2.885971 25,750 286 411 1216
2021-10-15 11:12:04 GMT 53.056870 2.885971 25,750 286 411 1216
2021-10-15 11:12:02 GMT 53.055313 2.895279 25,675 286 411 1216
2021-10-15 11:11:59 GMT 53.054260 2.901611 25,625 286 411 1216
2021-10-15 11:11:56 GMT 53.052280 2.913653 25,550 286 410 1152
2021-10-15 11:11:53 GMT 53.050091 2.926915 25,500 286 410 1152
2021-10-15 11:11:51 GMT 53.050091 2.926915 25,450 286 409 1280
2021-10-15 11:11:47 GMT 53.046570 2.947998 25,400 286 409 1152
2021-10-15 11:11:44 GMT 53.046570 2.947998 25,350 286 409 1216
2021-10-15 11:11:42 GMT 53.045856 2.952419 25,325 286 409 1216
2021-10-15 11:11:39 GMT 53.043823 2.964630 25,225 286 409 1216
2021-10-15 11:11:36 GMT 53.042503 2.972430 25,175 286 408 1216
2021-10-15 11:11:33 GMT 53.041248 2.980042 25,125 286 409 1216
2021-10-15 11:11:31 GMT 53.040161 2.986374 24,675 286 409 1280
2021-10-15 11:11:28 GMT 53.038639 2.995579 25,000 286 409 1280
2021-10-15 11:11:24 GMT 53.036545 3.008041 24,925 286 409 1280
2021-10-15 11:11:21 GMT 53.035336 3.015119 24,825 286 408 1280
2021-10-15 11:11:18 GMT 53.033295 3.027267 24,750 286 408 1280
2021-10-15 11:11:14 GMT 53.031738 3.036652 24,775 286 408 1280
2021-10-15 11:11:11 GMT 53.029984 3.047137 24,625 286 407 1280
2021-10-15 11:11:08 GMT 53.027653 3.061026 24,600 286 406 1280
2021-10-15 11:11:06 GMT 53.027653 3.061026 24,500 286 406 1280
2021-10-15 11:11:03 GMT 53.026070 3.070443 24,500 286 406 1280
2021-10-15 11:11:00 GMT 53.024734 3.078384 24,450 286 406 1280
2021-10-15 11:10:58 GMT 53.023697 3.084647 24,350 286 406 1280
2021-10-15 11:10:55 GMT 53.022068 3.094299 24,325 286 406 1280
2021-10-15 11:10:52 GMT 53.018993 3.112898 24,125 286 405 1280
2021-10-15 11:10:49 GMT 53.018993 3.112898 24,200 286 405 1280
2021-10-15 11:10:46 GMT 53.017693 3.120823 24,100 286 405 1280
2021-10-15 11:10:43 GMT 53.015968 3.131339 24,050 286 405 1280
2021-10-15 11:10:41 GMT 53.014709 3.138733 24,000 286 405 1280
2021-10-15 11:10:38 GMT 53.013748 3.144836 23,950 286 405 1280
2021-10-15 11:10:35 GMT 53.011963 3.155670 23,875 286 404 1344
2021-10-15 11:10:32 GMT 53.010895 3.162101 23,825 286 404 1344
2021-10-15 11:10:29 GMT 53.009308 3.171768 23,725 287 403 1344
2021-10-15 11:10:26 GMT 53.007729 3.181013 23,675 288 401 1280
2021-10-15 11:10:23 GMT 53.004936 3.196001 23,600 290 400 1280
2021-10-15 11:10:21 GMT 53.004936 3.196001 23,525 290 400 1280
2021-10-15 11:10:18 GMT 53.002842 3.205575 23,500 293 398 1280
2021-10-15 11:10:15 GMT 53.001583 3.211147 23,450 293 398 1280
2021-10-15 11:10:12 GMT 52.998962 3.221741 23,400 295 397 1280
2021-10-15 11:10:09 GMT 52.996792 3.229824 22,600 296 397 1344
2021-10-15 11:10:06 GMT 52.994019 3.239594 23,225 296 397 1344
2021-10-15 11:10:02 GMT 52.991203 3.249207 23,175 296 397 1344
2021-10-15 11:09:59 GMT 52.989201 3.256191 23,075 296 396 1344
2021-10-15 11:09:55 GMT 52.985916 3.267441 23,000 296 396 1344
2021-10-15 11:09:52 GMT 52.980450 3.286168 22,900 296 395 1280
2021-10-15 11:09:49 GMT 52.978355 3.293309 22,850 296 395 1280
2021-10-15 11:09:46 GMT 52.978355 3.293309 22,775 296 395 1280
2021-10-15 11:09:43 GMT 52.975983 3.301470 22,750 296 395 1280
2021-10-15 11:09:41 GMT 52.974197 3.307571 22,700 296 395 1280
2021-10-15 11:09:38 GMT 52.971420 3.317165 22,575 296 394 1280
2021-10-15 11:09:35 GMT 52.970116 3.321559 22,500 296 393 1216
2021-10-15 11:09:32 GMT 52.967278 3.331369 22,525 296 393 1216
2021-10-15 11:09:29 GMT 52.965229 3.338274 22,450 296 393 1216
2021-10-15 11:09:27 GMT 52.963715 3.343430 22,425 296 392 1216
2021-10-15 11:09:25 GMT 52.959503 3.357893 22,125 296 390 1152
2021-10-15 11:09:22 GMT 52.957672 3.364029 22,300 296 391 1152
2021-10-15 11:09:20 GMT 52.957672 3.364029 22,275 296 390 1152
2021-10-15 11:09:18 GMT 52.953869 3.377040 22,125 296 385 1280
2021-10-15 11:09:15 GMT 52.953869 3.377040 22,125 296 390 1216
2021-10-15 11:09:12 GMT 52.950890 3.387399 22,100 296 388 1152
2021-10-15 11:09:09 GMT 52.949165 3.393206 21,825 296 386 1216
2021-10-15 11:09:05 GMT 52.946281 3.403015 21,925 296 387 1216
2021-10-15 11:09:02 GMT 52.942417 3.416199 21,875 296 386 1280
2021-10-15 11:09:00 GMT 52.942417 3.416199 21,850 296 386 1280
2021-10-15 11:08:55 GMT 52.938583 3.429413 21,725 296 385 1216
2021-10-15 11:08:52 GMT 52.935200 3.440918 21,675 296 384 1216
2021-10-15 11:08:49 GMT 52.930527 3.456802 21,600 297 382 1216
2021-10-15 11:08:45 GMT 52.930527 3.456802 21,550 296 383 1216
2021-10-15 11:08:41 GMT 52.927567 3.466971 21,475 296 382 1216
2021-10-15 11:08:39 GMT 52.924309 3.478036 21,275 296 381 1152
2021-10-15 11:08:37 GMT 52.924309 3.478036 21,350 296 377 1152
2021-10-15 11:08:34 GMT 52.921371 3.488007 21,325 297 380 1152
2021-10-15 11:08:31 GMT 52.919792 3.493417 21,300 296 380 1152
2021-10-15 11:08:29 GMT 52.918629 3.497184 21,200 296 379 1152
2021-10-15 11:08:27 GMT 52.916813 3.503383 21,225 296 377 1152
2021-10-15 11:08:24 GMT 52.913509 3.514762 21,125 296 377 1152
2021-10-15 11:08:21 GMT 52.912159 3.519313 21,100 296 377 1152
2021-10-15 11:08:19 GMT 52.910660 3.524399 21,050 297 364 1664
2021-10-15 11:08:15 GMT 52.907455 3.535309 20,875 297 375 1216
2021-10-15 11:08:11 GMT 52.904572 3.544998 20,900 297 373 1280
2021-10-15 11:08:08 GMT 52.902283 3.552856 20,800 297 373 1280
2021-10-15 11:08:05 GMT 52.899494 3.562238 20,750 297 372 1280
2021-10-15 11:08:02 GMT 52.897430 3.569183 20,525 297 370 1344
2021-10-15 11:07:59 GMT 52.895584 3.575422 20,650 297 371 1344
2021-10-15 11:07:57 GMT 52.891769 3.588213 20,550 297 371 1344
2021-10-15 11:07:54 GMT 52.891769 3.588213 20,500 297 370 1344
2021-10-15 11:07:51 GMT 52.888790 3.598336 20,450 297 369 1408
2021-10-15 11:07:47 GMT 52.884247 3.613663 20,325 297 369 1408
2021-10-15 11:07:44 GMT 52.884247 3.613663 20,275 297 368 1408
2021-10-15 11:07:41 GMT 52.881618 3.622506 20,200 297 368 1408
2021-10-15 11:07:37 GMT 52.878593 3.632865 19,975 297 366 1472
2021-10-15 11:07:34 GMT 52.876785 3.638916 20,025 297 366 1472
2021-10-15 11:07:31 GMT 52.874264 3.647382 19,975 297 366 1472
2021-10-15 11:07:28 GMT 52.872124 3.654759 19,875 297 366 1472
2021-10-15 11:07:24 GMT 52.869282 3.664254 19,650 297 364 1664
2021-10-15 11:07:21 GMT 52.866631 3.673122 19,700 297 364 1536
2021-10-15 11:07:18 GMT 52.865093 3.678380 19,675 297 364 1600
2021-10-15 11:07:15 GMT 52.862438 3.687404 19,525 297 363 1600
2021-10-15 11:07:12 GMT 52.860397 3.694305 19,450 297 364 1664
2021-10-15 11:07:09 GMT 52.857925 3.702550 19,400 297 363 1600
2021-10-15 11:07:07 GMT 52.854538 3.713989 19,075 297 363 1664
2021-10-15 11:07:04 GMT 52.854538 3.713989 19,275 297 363 1664
2021-10-15 11:07:00 GMT 52.851593 3.723816 19,150 297 363 1664
2021-10-15 11:06:58 GMT 52.850010 3.729152 19,100 297 363 1664
2021-10-15 11:06:56 GMT 52.847855 3.736420 19,000 297 362 1728
2021-10-15 11:06:53 GMT 52.845730 3.743591 18,950 297 362 1728
2021-10-15 11:06:50 GMT 52.842934 3.753008 18,850 297 361 1792
2021-10-15 11:06:48 GMT 52.842934 3.753008 18,650 297 361 1792
2021-10-15 11:06:46 GMT 52.841213 3.758815 18,700 297 361 1856
2021-10-15 11:06:43 GMT 52.839066 3.766098 18,625 297 360 1856
2021-10-15 11:06:40 GMT 52.836742 3.773882 18,575 297 360 1856
2021-10-15 11:06:38 GMT 52.833572 3.784561 18,400 297 360 1920
2021-10-15 11:06:36 GMT 52.833572 3.784561 18,375 297 360 1920
2021-10-15 11:06:33 GMT 52.831650 3.791046 18,300 297 360 1920
2021-10-15 11:06:29 GMT 52.827991 3.803388 18,200 297 360 1920
2021-10-15 11:06:26 GMT 52.824921 3.813553 18,075 297 360 1920
2021-10-15 11:06:23 GMT 52.824127 3.816258 17,975 297 360 1920
2021-10-15 11:06:20 GMT 52.821945 3.823547 17,925 297 360 1920
2021-10-15 11:06:18 GMT 52.820683 3.827951 17,875 297 360 1920
2021-10-15 11:06:16 GMT 52.816269 3.842697 17,700 297 360 1920
2021-10-15 11:06:13 GMT 52.816269 3.842697 16,575 297 360 1856
2021-10-15 11:06:10 GMT 52.814621 3.848190 17,600 297 360 1856
2021-10-15 11:06:08 GMT 52.813065 3.853455 17,450 297 357 1792
2021-10-15 11:06:05 GMT 52.810814 3.860988 17,450 297 360 1792
2021-10-15 11:06:01 GMT 52.808350 3.869171 17,225 297 358 1792
2021-10-15 11:05:58 GMT 52.805557 3.878632 17,225 297 358 1792
2021-10-15 11:05:56 GMT 52.804436 3.882333 16,975 297 356 1984
2021-10-15 11:05:53 GMT 52.802200 3.889788 16,975 297 356 1984
2021-10-15 11:05:50 GMT 52.799641 3.898499 17,000 297 357 1856
2021-10-15 11:05:47 GMT 52.798370 3.902664 16,950 297 357 1856
2021-10-15 11:05:45 GMT 52.796402 3.909378 16,825 297 356 1920
2021-10-15 11:05:43 GMT 52.795078 3.913801 16,625 297 356 1984
2021-10-15 11:05:40 GMT 52.792419 3.922806 16,675 297 356 1984
2021-10-15 11:05:38 GMT 52.791264 3.926671 16,625 297 356 1984
2021-10-15 11:05:35 GMT 52.788563 3.935774 16,500 297 355 1984
2021-10-15 11:05:32 GMT 52.786793 3.941581 16,400 297 355 1920
2021-10-15 11:05:29 GMT 52.784885 3.947937 16,350 297 355 1984
2021-10-15 11:05:27 GMT 52.782852 3.954926 16,150 297 351 1792
2021-10-15 11:05:24 GMT 52.780647 3.962298 16,150 297 354 1984
2021-10-15 11:05:21 GMT 52.779160 3.967163 15,950 297 353 1920
2021-10-15 11:05:18 GMT 52.776600 3.975795 15,975 297 353 1920
2021-10-15 11:05:14 GMT 52.773479 3.986154 15,650 297 351 1856
2021-10-15 11:05:11 GMT 52.771820 3.991623 15,725 297 352 1856
2021-10-15 11:05:08 GMT 52.769211 4.000244 15,650 297 352 1856
2021-10-15 11:05:05 GMT 52.767380 4.006348 15,525 297 351 1856
2021-10-15 11:05:02 GMT 52.762985 4.020844 15,400 297 351 1792
2021-10-15 11:04:59 GMT 52.762985 4.020844 15,325 297 351 1792
2021-10-15 11:04:56 GMT 52.760880 4.027863 15,300 297 349 1792
2021-10-15 11:04:53 GMT 52.758488 4.035828 15,200 297 349 1792
2021-10-15 11:04:49 GMT 52.755974 4.044146 15,075 297 348 1856
2021-10-15 11:04:47 GMT 52.754562 4.048691 15,050 297 348 1856
2021-10-15 11:04:45 GMT 52.752823 4.054489 14,950 297 348 1920
2021-10-15 11:04:43 GMT 52.751411 4.059134 14,850 297 348 1984
2021-10-15 11:04:39 GMT 52.748428 4.069061 14,750 297 347 1984
2021-10-15 11:04:37 GMT 52.747223 4.072946 14,575 297 347 1920
2021-10-15 11:04:34 GMT 52.745033 4.080244 14,525 297 347 1792
2021-10-15 11:04:31 GMT 52.742935 4.087219 14,450 297 346 1728
2021-10-15 11:04:28 GMT 52.741032 4.093506 14,450 297 346 1728
2021-10-15 11:04:25 GMT 52.738052 4.103629 14,375 296 344 1664
2021-10-15 11:04:22 GMT 52.736618 4.108429 14,150 296 343 1792
2021-10-15 11:04:19 GMT 52.733398 4.119481 14,125 296 343 1792
2021-10-15 11:04:15 GMT 52.729671 4.132350 14,000 296 343 1792
2021-10-15 11:04:12 GMT 52.729671 4.132350 13,900 296 342 1856
2021-10-15 11:04:09 GMT 52.727554 4.139786 13,875 296 342 1856
2021-10-15 11:04:07 GMT 52.723526 4.154053 13,650 296 341 1984
2021-10-15 11:04:03 GMT 52.721786 4.160080 13,650 296 340 1984
2021-10-15 11:03:57 GMT 52.717617 4.174726 13,375 296 339 2048
2021-10-15 11:03:54 GMT 52.715698 4.181290 13,275 296 339 2048
2021-10-15 11:03:51 GMT 52.715698 4.181290 12,775 297 337 2048
2021-10-15 11:03:48 GMT 52.713799 4.187831 13,175 296 338 1984
2021-10-15 11:03:45 GMT 52.711563 4.195365 13,000 296 338 2048
2021-10-15 11:03:41 GMT 52.708584 4.205566 12,900 297 337 2048
2021-10-15 11:03:38 GMT 52.706772 4.211578 12,825 297 336 2048
2021-10-15 11:03:36 GMT 52.705444 4.216003 12,800 297 336 2048
2021-10-15 11:03:33 GMT 52.703110 4.223938 12,650 297 336 1984
2021-10-15 11:03:31 GMT 52.702423 4.226074 12,650 297 336 1984
2021-10-15 11:03:28 GMT 52.699924 4.234445 12,500 297 335 1984
2021-10-15 11:03:26 GMT 52.698112 4.240330 12,425 298 334 1984
2021-10-15 11:03:23 GMT 52.695694 4.248123 12,300 298 334 1984
2021-10-15 11:03:19 GMT 52.693550 4.254926 12,150 298 333 1920
2021-10-15 11:03:16 GMT 52.690567 4.264221 12,075 298 332 1920
2021-10-15 11:03:13 GMT 52.688736 4.269867 11,950 299 331 1856
2021-10-15 11:03:10 GMT 52.686661 4.276428 11,750 299 331 1920
2021-10-15 11:03:07 GMT 52.682980 4.287571 11,575 299 329 2432
2021-10-15 11:03:04 GMT 52.682980 4.287571 11,725 299 329 2240
2021-10-15 11:03:01 GMT 52.680496 4.295120 11,525 299 329 2688
2021-10-15 11:02:58 GMT 52.678299 4.301910 11,450 299 329 2752
2021-10-15 11:02:53 GMT 52.674911 4.312057 11,050 300 330 2560
2021-10-15 11:02:50 GMT 52.672485 4.319153 11,050 300 329 1536
2021-10-15 11:02:47 GMT 52.670132 4.326024 11,050 300 330 1728
2021-10-15 11:02:43 GMT 52.667313 4.334335 10,875 300 326 1216
2021-10-15 11:02:39 GMT 52.662048 4.349213 10,850 301 321 896
2021-10-15 11:02:36 GMT 52.662048 4.349213 10,775 301 319 896
2021-10-15 11:02:33 GMT 52.659668 4.355927 10,750 301 316 768
2021-10-15 11:02:30 GMT 52.657700 4.361420 10,725 301 314 704
2021-10-15 11:02:27 GMT 52.653580 4.372864 10,700 301 311 640
2021-10-15 11:02:25 GMT 52.653580 4.372864 10,650 301 305 704
2021-10-15 11:02:22 GMT 52.651291 4.379272 10,625 301 304 832
2021-10-15 11:02:19 GMT 52.649464 4.384330 10,475 300 296 832
2021-10-15 11:02:17 GMT 52.647858 4.388809 10,575 301 303 896
2021-10-15 11:02:15 GMT 52.646393 4.392776 10,550 301 300 896
2021-10-15 11:02:12 GMT 52.644669 4.397749 10,525 301 298 832
2021-10-15 11:02:09 GMT 52.640991 4.408029 10,400 298 270 2368
2021-10-15 11:02:07 GMT 52.640991 4.408029 10,450 300 294 768
2021-10-15 11:02:03 GMT 52.638336 4.415798 10,400 299 289 640
2021-10-15 11:02:00 GMT 52.636276 4.421921 10,375 299 286 640
2021-10-15 11:01:57 GMT 52.634399 4.427643 10,325 298 283 640
2021-10-15 11:01:55 GMT 52.633358 4.430865 10,325 298 283 640
2021-10-15 11:01:52 GMT 52.630981 4.438555 10,250 297 276 640
2021-10-15 11:01:49 GMT 52.629822 4.442368 10,200 296 272 1216
2021-10-15 11:01:46 GMT 52.627678 4.449620 10,200 296 272 1408
2021-10-15 11:01:43 GMT 52.626572 4.453354 10,025 297 270 2304
2021-10-15 11:01:40 GMT 52.624420 4.460831 9,975 297 270 2304
2021-10-15 11:01:36 GMT 52.622635 4.466629 9,850 300 270 2368
2021-10-15 11:01:34 GMT 52.620880 4.471749 9,625 308 269 2176
2021-10-15 11:01:31 GMT 52.619530 4.475438 9,475 308 269 2176
2021-10-15 11:01:28 GMT 52.617577 4.479675 9,450 313 267 2176
2021-10-15 11:01:25 GMT 52.614830 4.484855 9,475 317 267 2176
2021-10-15 11:01:22 GMT 52.612289 4.488754 9,250 331 268 2432
2021-10-15 11:01:19 GMT 52.609428 4.492545 8,950 330 268 2624
2021-10-15 11:01:16 GMT 52.605751 4.496626 9,100 329 268 2624
2021-10-15 11:01:12 GMT 52.602215 4.500157 8,850 331 268 2432
2021-10-15 11:01:09 GMT 52.598488 4.503610 8,475 331 267 2304
2021-10-15 11:01:06 GMT 52.595276 4.506670 8,675 331 268 2368
2021-10-15 11:01:04 GMT 52.593040 4.508711 8,550 331 267 2304
2021-10-15 11:01:01 GMT 52.589180 4.512242 8,375 331 267 2304
2021-10-15 11:00:58 GMT 52.586945 4.514282 8,250 331 267 2304
2021-10-15 11:00:55 GMT 52.583080 4.517814 7,700 332 267 2240
2021-10-15 11:00:52 GMT 52.580242 4.520403 8,075 332 267 2240
2021-10-15 11:00:49 GMT 52.577633 4.522757 7,900 332 263 1728
2021-10-15 11:00:46 GMT 52.573631 4.526289 7,875 332 265 1920
2021-10-15 11:00:44 GMT 52.572281 4.527544 7,800 332 264 1856
2021-10-15 11:00:41 GMT 52.567520 4.531784 7,700 332 263 1792
2021-10-15 11:00:38 GMT 52.565205 4.533822 7,650 332 261 1792
2021-10-15 11:00:35 GMT 52.559006 4.539261 7,550 333 260 1920
2021-10-15 11:00:33 GMT 52.559006 4.539261 7,500 333 260 1856
2021-10-15 11:00:29 GMT 52.555893 4.542007 7,150 333 257 2176
2021-10-15 11:00:26 GMT 52.552029 4.545358 7,275 333 259 2112
2021-10-15 11:00:24 GMT 52.550678 4.546535 7,150 333 257 2240
2021-10-15 11:00:21 GMT 52.546967 4.549713 7,050 333 257 2240
2021-10-15 11:00:18 GMT 52.544117 4.552185 6,975 333 257 2240
2021-10-15 11:00:15 GMT 52.541153 4.554749 6,875 333 257 2304
2021-10-15 11:00:13 GMT 52.538158 4.557286 6,750 333 255 2368
2021-10-15 11:00:10 GMT 52.535130 4.559875 6,675 332 255 2304
2021-10-15 11:00:07 GMT 52.533005 4.561691 6,600 333 256 2432
2021-10-15 11:00:04 GMT 52.529034 4.565133 6,400 329 254 2048
2021-10-15 11:00:01 GMT 52.526424 4.567566 6,175 323 254 2048
2021-10-15 10:59:58 GMT 52.522980 4.570940 6,150 321 252 2112
2021-10-15 10:59:55 GMT 52.520554 4.573822 6,150 321 252 2048
2021-10-15 10:59:52 GMT 52.516800 4.578857 6,000 315 253 2368
2021-10-15 10:59:48 GMT 52.513950 4.583339 5,800 314 253 2560
2021-10-15 10:59:45 GMT 52.511902 4.586949 5,775 313 253 2560
2021-10-15 10:59:43 GMT 52.510784 4.588832 5,700 313 253 2560
2021-10-15 10:59:40 GMT 52.507782 4.594193 5,475 313 253 2624
2021-10-15 10:59:37 GMT 52.505711 4.597857 5,075 313 253 2560
2021-10-15 10:59:34 GMT 52.502838 4.602966 5,325 313 253 2496
2021-10-15 10:59:31 GMT 52.500824 4.606552 5,150 313 252 2304
2021-10-15 10:59:28 GMT 52.498444 4.610748 5,050 313 251 2368
2021-10-15 10:59:25 GMT 52.495651 4.615631 4,925 313 251 2368
2021-10-15 10:59:20 GMT 52.491898 4.622421 4,325 313 251 2560
2021-10-15 10:59:15 GMT 52.487503 4.630127 4,500 313 250 2432
2021-10-15 10:59:11 GMT 52.482063 4.639762 4,250 314 249 2240
2021-10-15 10:59:08 GMT 52.482063 4.639762 4,175 314 249 2240
2021-10-15 10:59:05 GMT 52.479767 4.643784 4,125 314 247 2240
2021-10-15 10:59:03 GMT 52.478012 4.646746 3,975 315 247 2432
2021-10-15 10:58:59 GMT 52.474800 4.652239 3,900 315 247 2688
2021-10-15 10:58:55 GMT 52.471634 4.657575 3,700 315 247 2624
2021-10-15 10:58:53 GMT 52.470284 4.659773 3,400 316 246 2496
2021-10-15 10:58:50 GMT 52.467819 4.663773 3,450 315 247 2496
2021-10-15 10:58:47 GMT 52.465721 4.667306 3,275 316 246 2496
2021-10-15 10:58:44 GMT 52.463837 4.670334 3,300 316 246 2496
2021-10-15 10:58:40 GMT 52.460136 4.676409 2,850 316 243 2304
2021-10-15 10:58:37 GMT 52.457062 4.681396 2,975 316 244 2240
2021-10-15 10:58:34 GMT 52.455551 4.683762 2,900 316 244 2240
2021-10-15 10:58:32 GMT 52.452827 4.688180 2,750 316 243 2368
2021-10-15 10:58:29 GMT 52.451294 4.690552 2,600 317 242 2560
2021-10-15 10:58:26 GMT 52.448914 4.694366 2,450 317 241 2688
2021-10-15 10:58:23 GMT 52.446823 4.697597 2,450 317 241 2688
2021-10-15 10:58:20 GMT 52.443890 4.702070 2,025 346 235 1280
2021-10-15 10:58:17 GMT 52.441269 4.705811 2,150 325 240 2560
2021-10-15 10:58:14 GMT 52.438766 4.708740 1,950 337 239 1856
2021-10-15 10:58:12 GMT 52.435417 4.712036 1,900 337 239 1856
2021-10-15 10:58:09 GMT 52.434391 4.712821 1,875 339 238 1728
2021-10-15 10:58:08 GMT 52.433304 4.713593 1,825 343 236 1472
2021-10-15 10:58:07 GMT 52.430202 4.715411 1,800 345 235 1344
2021-10-15 10:58:05 GMT 52.430202 4.715411 1,775 346 235 1280
2021-10-15 10:58:03 GMT 52.426758 4.716823 1,675 353 230 1088
2021-10-15 10:58:00 GMT 52.424240 4.717636 1,675 358 226 960
2021-10-15 10:57:58 GMT 52.422009 4.718000 1,650 358 226 960
2021-10-15 10:57:57 GMT 52.420799 4.718079 1,600 0 224 1024
2021-10-15 10:57:56 GMT 52.419823 4.718079 1,600 1 223 1024
2021-10-15 10:57:54 GMT 52.418106 4.718094 1,550 2 220 1024
2021-10-15 10:57:52 GMT 52.416092 4.717941 1,550 2 220 1024
2021-10-15 10:57:51 GMT 52.415451 4.717941 1,525 3 217 1024
2021-10-15 10:57:50 GMT 52.414047 4.717765 1,500 3 215 960
2021-10-15 10:57:49 GMT 52.412064 4.717636 1,475 3 213 960
2021-10-15 10:57:47 GMT 52.411194 4.717560 1,450 3 212 1088
2021-10-15 10:57:46 GMT 52.410091 4.717451 1,450 3 211 1152
2021-10-15 10:57:44 GMT 52.408493 4.717255 1,350 3 206 1088
2021-10-15 10:57:42 GMT 52.405762 4.716980 1,350 4 204 896
2021-10-15 10:57:40 GMT 52.404282 4.716873 1,325 4 204 896
2021-10-15 10:57:38 GMT 52.402412 4.716666 1,300 4 201 768
2021-10-15 10:57:37 GMT 52.401352 4.716492 1,300 4 200 704
2021-10-15 10:57:35 GMT 52.399063 4.716187 1,275 3 194 256
2021-10-15 10:57:34 GMT 52.398148 4.716110 1,275 3 194 256
2021-10-15 10:57:31 GMT 52.395473 4.715803 1,250 3 192 448
2021-10-15 10:57:29 GMT 52.394440 4.715729 1,225 3 189 640
2021-10-15 10:57:26 GMT 52.391281 4.715424 1,175 3 186 640
2021-10-15 10:57:23 GMT 52.389496 4.715195 1,175 3 185 576
2021-10-15 10:57:22 GMT 52.388584 4.715097 1,150 3 183 576
2021-10-15 10:57:20 GMT 52.386166 4.714861 1,150 3 181 512
2021-10-15 10:57:19 GMT 52.385422 4.714813 1,150 3 180 448
2021-10-15 10:57:18 GMT 52.383728 4.714584 1,125 3 177 448
2021-10-15 10:57:15 GMT 52.382401 4.714508 1,125 3 175 320
2021-10-15 10:57:13 GMT 52.380390 4.714312 1,100 3 174 256
2021-10-15 10:57:11 GMT 52.379505 4.714233 1,100 3 172 192
2021-10-15 10:57:10 GMT 52.378017 4.714076 1,100 3 170 128
2021-10-15 10:57:09 GMT 52.377178 4.713998 1,100 4 166 256
2021-10-15 10:57:07 GMT 52.375626 4.713821 1,075 4 165 320
2021-10-15 10:57:06 GMT 52.374802 4.713669 1,075 4 165 448
2021-10-15 10:57:05 GMT 52.374344 4.713669 1,075 4 163 576
2021-10-15 10:57:03 GMT 52.373222 4.713527 1,050 4 162 768
2021-10-15 10:57:02 GMT 52.372059 4.713370 1,025 4 160 1280
2021-10-15 10:57:01 GMT 52.371277 4.713287 1,000 4 160 1536
2021-10-15 10:56:59 GMT 52.369732 4.713135 925 4 158 2176
2021-10-15 10:56:57 GMT 52.368568 4.712978 875 4 158 2304
2021-10-15 10:56:56 GMT 52.367706 4.712830 850 4 159 2432
2021-10-15 10:56:55 GMT 52.366928 4.712753 750 4 159 2432
2021-10-15 10:56:53 GMT 52.365463 4.712601 700 4 159 2368
2021-10-15 10:56:51 GMT 52.364319 4.712448 650 4 159 2368
2021-10-15 10:56:50 GMT 52.363220 4.712296 575 4 159 2240
2021-10-15 10:56:49 GMT 52.360886 4.712036 475 4 159 2112
2021-10-15 10:56:47 GMT 52.360886 4.712036 450 4 159 2112
2021-10-15 10:56:46 GMT 52.360153 4.711914 425 4 159 2112
2021-10-15 10:56:45 GMT 52.359348 4.711801 375 4 159 2176
2021-10-15 10:56:43 GMT 52.358002 4.711644 300 4 160 2240
2021-10-15 10:56:41 GMT 52.356491 4.711456 225 3 160 2368
2021-10-15 10:56:39 GMT 52.355114 4.711330 150 3 162 2496
2021-10-15 10:56:38 GMT 52.354431 4.711227 100 3 163 2496
2021-10-15 10:56:37 GMT 52.351948 4.711016 0 3 164 2240
2021-10-15 10:56:35 GMT 52.351948 4.711016 -50 3 164 1984
2021-10-15 10:56:33 GMT 52.350861 4.710922 -75 3 163 1472
2021-10-15 10:56:30 GMT 52.348480 4.710693 -175 3 158 512
2021-10-15 10:56:26 GMT 52.345478 4.710388 -175 3 148 128
2021-10-15 10:56:22 GMT 52.342636 4.710153 -150 3 138 0
2021-10-15 10:56:19 GMT 52.341110 4.710007 -150 3 132 0
2021-10-15 10:56:18 GMT 52.340450 4.709917 -150 3 126 0
2021-10-15 10:56:17 GMT 52.339600 4.709854 -150 3 109 0
2021-10-15 10:56:15 GMT 52.338821 4.709778 -150 3 109 0
2021-10-15 10:56:11 GMT 52.336487 4.709549 -125 3 98 0
2021-10-15 10:56:09 GMT 52.335342 4.709473 -125 3 94 0
2021-10-15 10:56:08 GMT 52.334930 4.709396 -125 3 91 0
2021-10-15 10:56:06 GMT 52.334473 4.709396 -125 3 87 64
2021-10-15 10:56:01 GMT 52.332001 4.709172 0 2 56
2021-10-15 10:55:59 GMT 52.331738 4.709148 0 2 51
2021-10-15 10:55:57 GMT 52.330860 4.709054 0 2 35
2021-10-15 10:55:55 GMT 52.330860 4.709054 0 2 35
2021-10-15 10:55:53 GMT 52.330593 4.709034 0 2 30
2021-10-15 10:55:52 GMT 52.330376 4.709015 0 2 22
2021-10-15 10:55:51 GMT 52.330254 4.709015 0 2 19
2021-10-15 10:55:49 GMT 52.330055 4.708977 0 2 15
2021-10-15 10:55:47 GMT 52.329918 4.708977 0 2 14
2021-10-15 10:55:43 GMT 52.329700 4.708958 0 2 12
2021-10-15 10:55:40 GMT 52.329460 4.708939 0 2 11
2021-10-15 10:55:38 GMT 52.329407 4.708936 0 2 11
2021-10-15 10:55:36 GMT 52.329277 4.708897 0 0 11
2021-10-15 10:55:32 GMT 52.329151 4.708805 0 343 12
2021-10-15 10:55:29 GMT 52.328999 4.708779 0 323 12
2021-10-15 10:55:28 GMT 52.328922 4.708786 0 312 12
2021-10-15 10:55:27 GMT 52.328869 4.708819 0 303 13
2021-10-15 10:55:24 GMT 52.328773 4.708920 0 289 14
2021-10-15 10:55:23 GMT 52.328732 4.709054 0 286 14
2021-10-15 10:55:22 GMT 52.328709 4.709133 0 278 15
2021-10-15 10:55:21 GMT 52.328686 4.709348 0 275 16
2021-10-15 10:55:17 GMT 52.328636 4.709800 0 270 16
2021-10-15 10:55:15 GMT 52.328636 4.709937 0 270 16
2021-10-15 10:55:13 GMT 52.328625 4.710114 0 264 15
2021-10-15 10:55:11 GMT 52.328613 4.710290 0 258 15
2021-10-15 10:55:09 GMT 52.328625 4.710565 0 250 16
2021-10-15 10:55:06 GMT 52.328682 4.710941 0 230 17
2021-10-15 10:55:04 GMT 52.328751 4.711132 0 225 19
2021-10-15 10:55:03 GMT 52.328819 4.711266 0 222 19
2021-10-15 10:55:01 GMT 52.328930 4.711448 0 222 20
2021-10-15 10:55:00 GMT 52.329060 4.711647 0 222 20
2021-10-15 10:54:57 GMT 52.329185 4.711819 0 219 19
2021-10-15 10:54:56 GMT 52.329288 4.711971 0 219 19
2021-10-15 10:54:55 GMT 52.329357 4.712056 0 219 19
2021-10-15 10:54:53 GMT 52.329472 4.712219 0 219 19
2021-10-15 10:54:51 GMT 52.329601 4.712389 0 219 19
2021-10-15 10:54:49 GMT 52.329735 4.712582 0 219 19
2021-10-15 10:54:47 GMT 52.329861 4.712772 0 222 19
2021-10-15 10:54:45 GMT 52.329987 4.712958 0 222 19
2021-10-15 10:54:43 GMT 52.330124 4.713135 0 222 19
2021-10-15 10:54:42 GMT 52.330185 4.713233 0 222 19
2021-10-15 10:54:39 GMT 52.330353 4.713478 0 222 19
2021-10-15 10:54:38 GMT 52.330433 4.713612 0 222 19
2021-10-15 10:54:35 GMT 52.330639 4.713898 0 222 19
2021-10-15 10:54:29 GMT 52.331013 4.714410 0 222 18
2021-10-15 10:54:28 GMT 52.331074 4.714489 0 222 19
2021-10-15 10:54:25 GMT 52.331429 4.715042 0 250 19
2021-10-15 10:54:22 GMT 52.331429 4.715042 0 250 19
2021-10-15 10:54:19 GMT 52.331554 4.715481 0 270 19
2021-10-15 10:54:14 GMT 52.331558 4.716136 0 292 19
2021-10-15 10:54:10 GMT 52.331417 4.716663 0 309 20
2021-10-15 10:54:08 GMT 52.331245 4.716969 0 312 22
2021-10-15 10:54:07 GMT 52.331200 4.717064 0 312 23
2021-10-15 10:54:05 GMT 52.331093 4.717274 0 312 23
2021-10-15 10:54:04 GMT 52.331013 4.717412 0 312 25
2021-10-15 10:54:01 GMT 52.330685 4.718020 0 312 28
2021-10-15 10:54:00 GMT 52.330685 4.718020 0 312 28
2021-10-15 10:53:57 GMT 52.330524 4.718323 0 312 29
2021-10-15 10:53:55 GMT 52.330353 4.718647 0 312 29
2021-10-15 10:53:54 GMT 52.330261 4.718800 0 312 29
2021-10-15 10:53:50 GMT 52.329884 4.719491 0 312 29
2021-10-15 10:53:46 GMT 52.329521 4.720178 0 312 29
2021-10-15 10:53:44 GMT 52.329380 4.720421 0 312 29
2021-10-15 10:53:43 GMT 52.329128 4.720917 0 312 29
2021-10-15 10:53:40 GMT 52.329037 4.721069 0 312 28
2021-10-15 10:53:39 GMT 52.328903 4.721316 0 312 28
2021-10-15 10:53:38 GMT 52.328835 4.721453 0 312 28
2021-10-15 10:53:37 GMT 52.328743 4.721610 0 312 28
2021-10-15 10:53:33 GMT 52.328430 4.722214 0 312 27
2021-10-15 10:53:31 GMT 52.328247 4.722538 0 312 27
2021-10-15 10:53:29 GMT 52.328091 4.722826 0 312 26
2021-10-15 10:53:27 GMT 52.327972 4.723062 0 312 26
2021-10-15 10:53:26 GMT 52.327778 4.723415 0 312 26
2021-10-15 10:53:25 GMT 52.327778 4.723415 0 312 26
2021-10-15 10:53:24 GMT 52.327675 4.723606 0 312 26
2021-10-15 10:53:21 GMT 52.327450 4.724003 0 312 26
2021-10-15 10:53:20 GMT 52.327343 4.724197 0 309 26
2021-10-15 10:53:18 GMT 52.327194 4.724503 0 309 26
2021-10-15 10:53:17 GMT 52.327160 4.724572 0 312 26
2021-10-15 10:53:15 GMT 52.326988 4.724884 0 312 26
2021-10-15 10:53:13 GMT 52.326820 4.725180 0 315 26
2021-10-15 10:53:12 GMT 52.326611 4.725534 0 317 26
2021-10-15 10:53:09 GMT 52.326485 4.725704 0 320 27
2021-10-15 10:53:08 GMT 52.326389 4.725848 0 320 27
2021-10-15 10:53:04 GMT 52.326008 4.726377 0 317 27
2021-10-15 10:53:01 GMT 52.325638 4.726906 0 320 27
2021-10-15 10:52:59 GMT 52.325542 4.727025 0 320 27
2021-10-15 10:52:57 GMT 52.325409 4.727230 0 320 27
2021-10-15 10:52:56 GMT 52.325237 4.727456 0 320 27
2021-10-15 10:52:54 GMT 52.324959 4.727849 0 320 27
2021-10-15 10:52:53 GMT 52.324959 4.727849 0 320 26
2021-10-15 10:52:51 GMT 52.324802 4.728069 0 320 26
2021-10-15 10:52:50 GMT 52.324711 4.728184 0 317 26
2021-10-15 10:52:48 GMT 52.324577 4.728378 0 317 26
2021-10-15 10:52:46 GMT 52.324322 4.728751 0 317 26
2021-10-15 10:52:41 GMT 52.323807 4.729477 0 320 26
2021-10-15 10:52:40 GMT 52.323807 4.729477 0 320 26
2021-10-15 10:52:39 GMT 52.323692 4.729653 0 320 26
2021-10-15 10:52:36 GMT 52.323448 4.729987 0 320 26
2021-10-15 10:52:34 GMT 52.323349 4.730129 0 320 26
2021-10-15 10:52:32 GMT 52.323166 4.730377 0 320 26
2021-10-15 10:52:31 GMT 52.323074 4.730492 0 317 25
2021-10-15 10:52:30 GMT 52.322960 4.730663 0 317 25
2021-10-15 10:52:27 GMT 52.322678 4.731046 0 317 25
2021-10-15 10:52:23 GMT 52.322376 4.731498 0 320 24
2021-10-15 10:52:22 GMT 52.322296 4.731598 0 320 23
2021-10-15 10:52:18 GMT 52.321964 4.732056 0 320 22
2021-10-15 10:52:17 GMT 52.321884 4.732189 0 317 22
2021-10-15 10:52:16 GMT 52.321804 4.732285 0 317 22
2021-10-15 10:52:15 GMT 52.321644 4.732513 0 320 21
2021-10-15 10:52:13 GMT 52.321560 4.732635 0 320 21
2021-10-15 10:52:11 GMT 52.321350 4.732930 0 317 21
2021-10-15 10:52:09 GMT 52.321270 4.733047 0 317 20
2021-10-15 10:52:07 GMT 52.321152 4.733200 0 317 20
2021-10-15 10:52:06 GMT 52.321083 4.733315 0 317 20
2021-10-15 10:52:05 GMT 52.321014 4.733401 0 317 20
2021-10-15 10:52:04 GMT 52.320831 4.733658 0 317 20
2021-10-15 10:52:01 GMT 52.320759 4.733754 0 317 20
2021-10-15 10:51:56 GMT 52.320385 4.734323 0 334 20
2021-10-15 10:51:55 GMT 52.320305 4.734402 0 337 20
2021-10-15 10:51:54 GMT 52.320225 4.734478 0 343 21
2021-10-15 10:51:50 GMT 52.319904 4.734631 0 354 21
2021-10-15 10:51:42 GMT 52.319115 4.734650 0 2 22
2021-10-15 10:51:40 GMT 52.318943 4.734650 0 2 24
2021-10-15 10:51:38 GMT 52.318680 4.734612 0 2 25
2021-10-15 10:51:36 GMT 52.318489 4.734597 0 2 26
2021-10-15 10:51:35 GMT 52.318382 4.734578 0 2 26
2021-10-15 10:51:33 GMT 52.318150 4.734558 0 2 26
2021-10-15 10:51:31 GMT 52.317871 4.734538 0 2 26
2021-10-15 10:51:30 GMT 52.317753 4.734516 0 2 26
2021-10-15 10:51:29 GMT 52.317406 4.734480 0 2 26
2021-10-15 10:51:27 GMT 52.317406 4.734480 0 2 26
2021-10-15 10:51:25 GMT 52.317219 4.734480 0 2 26
2021-10-15 10:51:24 GMT 52.317059 4.734460 0 2 26
2021-10-15 10:51:23 GMT 52.316952 4.734459 0 2 26
2021-10-15 10:51:21 GMT 52.316696 4.734440 0 2 26
2021-10-15 10:51:19 GMT 52.316471 4.734421 0 2 25
2021-10-15 10:51:17 GMT 52.316288 4.734401 0 2 25
2021-10-15 10:51:16 GMT 52.316105 4.734383 0 2 25
2021-10-15 10:51:12 GMT 52.315613 4.734325 0 2 25
2021-10-15 10:51:06 GMT 52.315136 4.734283 0 2 25
2021-10-15 10:51:05 GMT 52.314938 4.734268 0 2 25
2021-10-15 10:51:04 GMT 52.314869 4.734249 0 2 25
2021-10-15 10:51:02 GMT 52.314693 4.734244 0 2 25
2021-10-15 10:51:01 GMT 52.314472 4.734225 0 2 25
2021-10-15 10:50:59 GMT 52.314262 4.734205 0 2 25
2021-10-15 10:50:58 GMT 52.314159 4.734192 0 2 25
2021-10-15 10:50:57 GMT 52.313931 4.734173 0 2 24
2021-10-15 10:50:55 GMT 52.313816 4.734154 0 2 24
2021-10-15 10:50:54 GMT 52.313702 4.734154 0 2 24
2021-10-15 10:50:51 GMT 52.313427 4.734126 0 2 24
2021-10-15 10:50:50 GMT 52.313278 4.734116 0 2 24
2021-10-15 10:50:49 GMT 52.313183 4.734107 0 2 24
2021-10-15 10:50:48 GMT 52.313053 4.734107 0 2 24
2021-10-15 10:50:47 GMT 52.312820 4.734077 0 2 24
2021-10-15 10:50:44 GMT 52.312569 4.734058 0 2 24
2021-10-15 10:50:41 GMT 52.312294 4.734020 0 2 24
2021-10-15 10:50:40 GMT 52.312134 4.734001 0 2 24
2021-10-15 10:50:39 GMT 52.312019 4.734001 0 2 24
2021-10-15 10:50:38 GMT 52.311905 4.733982 0 2 24
2021-10-15 10:50:35 GMT 52.311607 4.733963 0 2 24
2021-10-15 10:50:33 GMT 52.311401 4.733930 0 2 24
2021-10-15 10:50:31 GMT 52.311169 4.733930 0 2 24
2021-10-15 10:50:29 GMT 52.310947 4.733911 0 2 24
2021-10-15 10:50:28 GMT 52.310795 4.733887 0 2 24
2021-10-15 10:50:27 GMT 52.310577 4.733868 0 2 24
2021-10-15 10:50:25 GMT 52.310459 4.733871 0 2 24
2021-10-15 10:50:24 GMT 52.310257 4.733849 0 2 24
2021-10-15 10:50:22 GMT 52.310143 4.733832 0 2 24
2021-10-15 10:50:20 GMT 52.310017 4.733810 0 2 24
2021-10-15 10:50:18 GMT 52.309799 4.733791 0 2 24
2021-10-15 10:50:17 GMT 52.309677 4.733793 0 2 24
2021-10-15 10:50:13 GMT 52.309193 4.733734 0 2 24
2021-10-15 10:50:12 GMT 52.309086 4.733734 0 2 24
2021-10-15 10:50:11 GMT 52.308819 4.733695 0 2 24
2021-10-15 10:50:09 GMT 52.308758 4.733696 0 2 24
2021-10-15 10:50:05 GMT 52.308266 4.733658 0 2 24
2021-10-15 10:50:00 GMT 52.307819 4.733620 0 2 24
2021-10-15 10:49:59 GMT 52.307705 4.733601 0 2 24
2021-10-15 10:49:58 GMT 52.307644 4.733597 0 2 24
2021-10-15 10:49:57 GMT 52.307487 4.733582 0 2 24
2021-10-15 10:49:56 GMT 52.307373 4.733562 0 2 24
2021-10-15 10:49:54 GMT 52.307167 4.733562 0 2 23
2021-10-15 10:49:52 GMT 52.307007 4.733543 0 2 23
2021-10-15 10:49:51 GMT 52.306698 4.733505 0 2 23
2021-10-15 10:49:50 GMT 52.306698 4.733505 0 2 23
2021-10-15 10:49:48 GMT 52.306492 4.733499 0 2 23
2021-10-15 10:49:47 GMT 52.306374 4.733479 0 2 23
2021-10-15 10:49:46 GMT 52.306274 4.733467 0 2 23
2021-10-15 10:49:44 GMT 52.306072 4.733440 0 2 23
2021-10-15 10:49:43 GMT 52.305954 4.733440 0 2 23
2021-10-15 10:49:39 GMT 52.305542 4.733391 0 2 23
2021-10-15 10:49:37 GMT 52.305313 4.733381 0 2 23
2021-10-15 10:49:36 GMT 52.305222 4.733372 0 2 23
2021-10-15 10:49:32 GMT 52.304867 4.733334 0 2 23
2021-10-15 10:49:30 GMT 52.304638 4.733315 0 2 22
2021-10-15 10:49:29 GMT 52.304535 4.733315 0 2 22
2021-10-15 10:49:28 GMT 52.304489 4.733303 0 2 22
2021-10-15 10:49:27 GMT 52.304291 4.733283 0 2 22
2021-10-15 10:49:23 GMT 52.304001 4.733263 0 2 22
2021-10-15 10:49:22 GMT 52.303894 4.733257 0 2 22
2021-10-15 10:49:18 GMT 52.303493 4.733219 0 2 22
2021-10-15 10:49:16 GMT 52.303276 4.733200 0 2 22
2021-10-15 10:49:13 GMT 52.303036 4.733181 0 2 22
2021-10-15 10:49:11 GMT 52.302830 4.733162 0 2 21
2021-10-15 10:49:08 GMT 52.302464 4.733126 0 2 21
2021-10-15 10:49:06 GMT 52.301708 4.733047 0 2 21
2021-10-15 10:49:00 GMT 52.301708 4.733047 0 2 21
2021-10-15 10:48:57 GMT 52.301430 4.733028 0 2 21
2021-10-15 10:48:51 GMT 52.300941 4.732971 0 2 20
2021-10-15 10:48:42 GMT 52.299763 4.732952 0 331 20
2021-10-15 10:48:39 GMT 52.299763 4.732952 0 331 20
2021-10-15 10:48:21 GMT 52.299122 4.735126 0 272 19
2021-10-15 10:48:17 GMT 52.299099 4.735716 0 270 19
2021-10-15 10:48:07 GMT 52.299213 4.737072 0 244 24
2021-10-15 10:48:03 GMT 52.299362 4.737587 0 244 24
2021-10-15 10:47:57 GMT 52.299614 4.738483 0 244 24
2021-10-15 10:47:56 GMT 52.299683 4.738717 0 241 23
2021-10-15 10:47:54 GMT 52.299763 4.739037 0 236 23
2021-10-15 10:47:50 GMT 52.299995 4.739580 0 222 21
2021-10-15 10:47:48 GMT 52.300171 4.739835 0 213 21
2021-10-15 10:47:45 GMT 52.300358 4.740086 0 205 20
2021-10-15 10:47:44 GMT 52.300461 4.740169 0 202 20
2021-10-15 10:47:41 GMT 52.300713 4.740353 0 194 21
2021-10-15 10:47:39 GMT 52.300903 4.740444 0 191 21
2021-10-15 10:47:38 GMT 52.301079 4.740524 0 191 22
2021-10-15 10:47:36 GMT 52.301182 4.740542 0 188 22
2021-10-15 10:47:34 GMT 52.301380 4.740601 0 188 22
2021-10-15 10:47:33 GMT 52.301674 4.740659 0 191 22
2021-10-15 10:47:29 GMT 52.301914 4.740718 0 196 22
2021-10-15 10:47:28 GMT 52.302010 4.740758 0 199 22
2021-10-15 10:47:27 GMT 52.302113 4.740816 0 199 22
2021-10-15 10:47:26 GMT 52.302303 4.740925 0 202 22
2021-10-15 10:47:24 GMT 52.302395 4.741001 0 202 22
2021-10-15 10:47:23 GMT 52.302475 4.741052 0 202 22
2021-10-15 10:47:22 GMT 52.302658 4.741173 0 202 22
2021-10-15 10:47:18 GMT 52.302917 4.741366 0 202 22
2021-10-15 10:47:16 GMT 52.303104 4.741503 0 202 22
2021-10-15 10:47:15 GMT 52.303196 4.741582 0 202 22
2021-10-15 10:47:13 GMT 52.303406 4.741738 0 194 22
2021-10-15 10:47:12 GMT 52.303486 4.741797 0 191 23
2021-10-15 10:47:11 GMT 52.303699 4.741859 0 185 23
2021-10-15 10:47:07 GMT 52.304008 4.741917 0 182 24
2021-10-15 10:47:05 GMT 52.304234 4.741915 0 182 24
2021-10-15 10:47:02 GMT 52.304523 4.741936 0 182 25
2021-10-15 10:47:00 GMT 52.304733 4.741954 0 182 25
2021-10-15 10:46:59 GMT 52.304890 4.741974 0 182 25
2021-10-15 10:46:57 GMT 52.305119 4.741993 0 182 26
2021-10-15 10:46:50 GMT 52.305828 4.742050 0 182 26
2021-10-15 10:46:49 GMT 52.306206 4.742088 0 182 25
2021-10-15 10:46:47 GMT 52.306206 4.742088 0 182 25
2021-10-15 10:46:43 GMT 52.306686 4.742126 0 182 25
2021-10-15 10:46:42 GMT 52.306908 4.742150 0 182 25
2021-10-15 10:46:40 GMT 52.307014 4.742150 0 182 25
2021-10-15 10:46:38 GMT 52.307224 4.742170 0 182 25
2021-10-15 10:46:37 GMT 52.307339 4.742190 0 182 25
2021-10-15 10:46:36 GMT 52.307556 4.742203 0 182 24
2021-10-15 10:46:33 GMT 52.307816 4.742229 0 182 24
2021-10-15 10:46:32 GMT 52.307888 4.742229 0 182 24
2021-10-15 10:46:30 GMT 52.308121 4.742249 0 182 23
2021-10-15 10:46:28 GMT 52.308346 4.742279 0 182 23
2021-10-15 10:46:24 GMT 52.308781 4.742317 0 182 23
2021-10-15 10:46:23 GMT 52.308968 4.742347 0 182 23
2021-10-15 10:46:21 GMT 52.309067 4.742355 0 182 23
2021-10-15 10:46:19 GMT 52.309261 4.742366 0 182 22
2021-10-15 10:46:17 GMT 52.309513 4.742393 0 182 22
2021-10-15 10:46:16 GMT 52.309608 4.742386 0 182 22
2021-10-15 10:46:15 GMT 52.309715 4.742405 0 182 22
2021-10-15 10:46:13 GMT 52.309982 4.742445 0 182 22
2021-10-15 10:46:12 GMT 52.309982 4.742445 0 182 22
2021-10-15 10:46:10 GMT 52.310192 4.742464 0 182 22
2021-10-15 10:46:09 GMT 52.310284 4.742464 0 182 22
2021-10-15 10:46:06 GMT 52.310520 4.742489 0 182 22
2021-10-15 10:46:05 GMT 52.310715 4.742508 0 182 21
2021-10-15 10:46:04 GMT 52.310806 4.742504 0 182 21
2021-10-15 10:46:03 GMT 52.310909 4.742527 0 182 21
2021-10-15 10:46:01 GMT 52.311104 4.742527 0 182 21
2021-10-15 10:46:00 GMT 52.311150 4.742546 0 182 21
2021-10-15 10:45:59 GMT 52.311470 4.742565 0 182 20
2021-10-15 10:45:57 GMT 52.311470 4.742565 0 182 20
2021-10-15 10:45:56 GMT 52.311565 4.742582 0 182 20
2021-10-15 10:45:55 GMT 52.311657 4.742582 0 182 20
2021-10-15 10:45:52 GMT 52.311905 4.742603 0 182 19
2021-10-15 10:45:51 GMT 52.312180 4.742641 0 182 19
2021-10-15 10:45:49 GMT 52.312180 4.742641 0 182 19
2021-10-15 10:45:46 GMT 52.312389 4.742661 0 182 18
2021-10-15 10:45:45 GMT 52.312519 4.742680 0 182 18
2021-10-15 10:45:42 GMT 52.312820 4.742700 0 182 17
2021-10-15 10:45:41 GMT 52.312820 4.742700 0 182 17
2021-10-15 10:45:39 GMT 52.312984 4.742719 0 182 17
2021-10-15 10:45:37 GMT 52.313053 4.742719 0 182 17
2021-10-15 10:45:36 GMT 52.313129 4.742718 0 182 17
2021-10-15 10:45:35 GMT 52.313206 4.742739 0 182 16
2021-10-15 10:45:32 GMT 52.313427 4.742756 0 182 16
2021-10-15 10:45:30 GMT 52.313580 4.742759 0 182 15
2021-10-15 10:45:28 GMT 52.313705 4.742778 0 182 15
2021-10-15 10:45:27 GMT 52.313850 4.742794 0 182 15
2021-10-15 10:45:25 GMT 52.313915 4.742798 0 182 15
2021-10-15 10:45:24 GMT 52.313972 4.742798 0 182 15
2021-10-15 10:45:22 GMT 52.314102 4.742798 0 188 15
2021-10-15 10:45:21 GMT 52.314182 4.742778 0 194 16
2021-10-15 10:45:18 GMT 52.314510 4.742837 0 233 16
2021-10-15 10:45:16 GMT 52.314510 4.742837 0 233 16
2021-10-15 10:45:15 GMT 52.314579 4.742916 0 241 15
2021-10-15 10:45:13 GMT 52.314674 4.743099 0 253 15
2021-10-15 10:45:11 GMT 52.314732 4.743288 0 264 17
2021-10-15 10:45:09 GMT 52.314754 4.743538 0 267 19
2021-10-15 10:45:08 GMT 52.314766 4.743661 0 267 20
2021-10-15 10:45:04 GMT 52.314789 4.744320 0 267 24
2021-10-15 10:44:58 GMT 52.314823 4.745427 0 267 24
2021-10-15 10:44:49 GMT 52.314869 4.746839 0 267 24
2021-10-15 10:44:48 GMT 52.314880 4.747028 0 267 24
2021-10-15 10:44:47 GMT 52.314880 4.747212 0 267 23
2021-10-15 10:44:45 GMT 52.314892 4.747624 0 267 23
2021-10-15 10:44:44 GMT 52.314903 4.747722 0 267 23
2021-10-15 10:44:37 GMT 52.314938 4.748917 0 267 21
2021-10-15 10:44:35 GMT 52.314953 4.749252 0 267 20
2021-10-15 10:44:34 GMT 52.314960 4.749393 0 267 20
2021-10-15 10:44:33 GMT 52.314960 4.749546 0 267 20
2021-10-15 10:44:29 GMT 52.314983 4.750080 0 267 19
2021-10-15 10:44:28 GMT 52.314987 4.750233 0 267 19
2021-10-15 10:44:27 GMT 52.314999 4.750351 0 267 19
2021-10-15 10:44:24 GMT 52.315006 4.750767 0 267 18
2021-10-15 10:44:22 GMT 52.315022 4.751038 0 267 18
2021-10-15 10:44:20 GMT 52.315033 4.751430 0 267 18
2021-10-15 10:44:17 GMT 52.315041 4.751854 0 267 17
2021-10-15 10:44:15 GMT 52.315052 4.751987 0 267 17
2021-10-15 10:44:14 GMT 52.315056 4.752117 0 267 17
2021-10-15 10:44:11 GMT 52.315067 4.752509 0 267 18
2021-10-15 10:44:09 GMT 52.315075 4.752750 0 267 18
2021-10-15 10:44:08 GMT 52.315086 4.752884 0 267 18
2021-10-15 10:44:06 GMT 52.315090 4.753117 0 267 18
2021-10-15 10:44:04 GMT 52.315102 4.753353 0 267 18
2021-10-15 10:44:01 GMT 52.315109 4.753819 0 267 18
2021-10-15 10:43:59 GMT 52.315125 4.754333 0 267 17
2021-10-15 10:43:57 GMT 52.315125 4.754333 0 267 17
2021-10-15 10:43:55 GMT 52.315136 4.754589 0 267 17
2021-10-15 10:43:53 GMT 52.315155 4.754963 0 267 16
2021-10-15 10:43:51 GMT 52.315155 4.755096 0 267 16
2021-10-15 10:43:50 GMT 52.315166 4.755344 0 267 15
2021-10-15 10:43:48 GMT 52.315170 4.755452 0 267 15
2021-10-15 10:43:46 GMT 52.315178 4.755726 0 267 15
2021-10-15 10:43:39 GMT 52.315208 4.756433 0 267 14
2021-10-15 10:43:37 GMT 52.315208 4.756570 0 267 14
2021-10-15 10:43:36 GMT 52.315212 4.756737 0 267 13
2021-10-15 10:43:35 GMT 52.315220 4.756845 0 267 13
2021-10-15 10:43:34 GMT 52.315224 4.756947 0 267 13
2021-10-15 10:43:31 GMT 52.315224 4.757175 0 267 12
2021-10-15 10:43:28 GMT 52.315235 4.757423 0 267 12
2021-10-15 10:43:27 GMT 52.315243 4.757708 0 267 11
2021-10-15 10:43:24 GMT 52.315243 4.757708 0 267 11
2021-10-15 10:43:23 GMT 52.315254 4.757884 0 267 11
2021-10-15 10:43:20 GMT 52.315277 4.758041 0 272 11
2021-10-15 10:43:17 GMT 52.315300 4.758277 0 281 11
2021-10-15 10:43:16 GMT 52.315311 4.758355 0 286 11
2021-10-15 10:43:15 GMT 52.315323 4.758493 0 298 11
2021-10-15 10:43:13 GMT 52.315315 4.758568 0 306 11
2021-10-15 10:43:12 GMT 52.315269 4.758816 0 323 10
2021-10-15 10:43:10 GMT 52.315269 4.758816 0 323 10
2021-10-15 10:43:07 GMT 52.315178 4.759007 0 337 10
2021-10-15 10:43:05 GMT 52.315102 4.759081 0 340 10
2021-10-15 10:43:02 GMT 52.314964 4.759140 0 337 10
2021-10-15 10:43:01 GMT 52.314869 4.759140 0 329 11
2021-10-15 10:42:59 GMT 52.314846 4.759140 0 326 11
2021-10-15 10:42:57 GMT 52.314697 4.759197 0 306 10
2021-10-15 10:42:55 GMT 52.314659 4.759218 0 300 10
2021-10-15 10:42:53 GMT 52.314594 4.759274 0 292 10
2021-10-15 10:42:51 GMT 52.314533 4.759395 0 278 9
2021-10-15 10:42:49 GMT 52.314499 4.759513 0 272 9
2021-10-15 10:42:47 GMT 52.314484 4.759689 0 267 9
2021-10-15 10:42:44 GMT 52.314480 4.759884 0 267 8
2021-10-15 10:42:42 GMT 52.314484 4.759984 0 267 8
2021-10-15 10:42:41 GMT 52.314484 4.760121 0 267 8
2021-10-15 10:42:38 GMT 52.314499 4.760199 0 267 8
2021-10-15 10:42:37 GMT 52.314499 4.760258 0 267 7
2021-10-15 10:42:33 GMT 52.314510 4.760533 0 267 6
2021-10-15 10:42:31 GMT 52.314503 4.760571 0 267 6
2021-10-15 10:42:29 GMT 52.314514 4.760666 0 267 6
2021-10-15 10:42:27 GMT 52.314514 4.760818 0 267 5
2021-10-15 10:42:25 GMT 52.314514 4.760818 0 267 5
2021-10-15 10:42:21 GMT 52.314522 4.760945 0 267 4
2021-10-15 10:42:15 GMT 52.314522 4.761082 0 267 3
2021-10-15 10:42:14 GMT 52.314526 4.761105 0 267 2
2021-10-15 10:42:09 GMT 52.314522 4.761161 0 267 0
2021-10-15 10:41:53 GMT 52.314526 4.761200 0 267 0
2021-10-15 10:41:38 GMT 52.314522 4.761200 0 267 0
2021-10-15 10:41:34 GMT 52.314526 4.761200 0 267 0
2021-10-15 10:41:19 GMT 52.314522 4.761200 0 267 0
2021-10-15 10:41:09 GMT 52.314526 4.761200 0 267 0
2021-10-15 10:41:04 GMT 52.314526 4.761200 0 267 0
2021-10-15 10:40:49 GMT 52.314522 4.761200 0 267 0
2021-10-15 10:40:44 GMT 52.314526 4.761200 0 267 0
2021-10-15 10:40:33 GMT 52.314526 4.761200 0 267 0
2021-10-15 10:40:23 GMT 52.314522 4.761200 0 267 0
2021-10-15 10:40:18 GMT 52.314522 4.761200 0 267 0
2021-10-15 10:40:14 GMT 52.314522 4.761200 0 267 0
2021-10-15 10:40:09 GMT 52.314526 4.761200 0 267 0
2021-10-15 10:39:49 GMT 52.314522 4.761200 0 267 0
2021-10-15 10:39:39 GMT 52.314526 4.761200 0 267 0
2021-10-15 10:39:26 GMT 52.314522 4.761200 0 267 0
2021-10-15 10:39:24 GMT 52.314526 4.761200 0 267 0
2021-10-15 10:39:19 GMT 52.314522 4.761200 0 267 0
2021-10-15 10:39:14 GMT 52.314526 4.761200 0 267 0
2021-10-15 10:39:13 GMT 52.314526 4.761200 0 267 0
2021-10-15 10:39:11 GMT 52.314526 4.761200 0 267 0
2021-10-15 10:39:07 GMT 52.314526 4.761200 0 267 0
2021-10-15 10:39:06 GMT 52.314526 4.761219 0 267 2
2021-10-15 10:38:59 GMT 52.314526 4.761124 0 267 4
2021-10-15 10:38:58 GMT 52.314522 4.761082 0 267 4
2021-10-15 10:38:53 GMT 52.314510 4.760945 0 267 5
2021-10-15 10:38:50 GMT 52.314510 4.760886 0 267 5
2021-10-15 10:38:46 GMT 52.314503 4.760742 0 267 5
2021-10-15 10:38:45 GMT 52.314510 4.760709 0 267 5
2021-10-15 10:38:38 GMT 52.314510 4.760474 0 267 5
2021-10-15 10:38:35 GMT 52.314503 4.760380 0 267 5
2021-10-15 10:38:31 GMT 52.314514 4.760265 0 270 5
2021-10-15 10:38:30 GMT 52.314514 4.760208 0 270 5
2021-10-15 10:38:29 GMT 52.314522 4.760141 0 272 5
2021-10-15 10:38:25 GMT 52.314533 4.760062 0 272 5
2021-10-15 10:38:23 GMT 52.314526 4.760017 0 272 5
2021-10-15 10:38:22 GMT 52.314526 4.759922 0 272 5
2021-10-15 10:38:21 GMT 52.314526 4.759922 0 272 5
2021-10-15 10:38:19 GMT 52.314526 4.759865 0 270 4
2021-10-15 10:38:16 GMT 52.314514 4.759789 0 270 4
2021-10-15 10:38:14 GMT 52.314499 4.759729 0 264 5
2021-10-15 10:38:11 GMT 52.314457 4.759655 0 258 5
2021-10-15 10:38:10 GMT 52.314411 4.759598 0 250 5
2021-10-15 10:38:07 GMT 52.314411 4.759598 0 250 5
2021-10-15 10:38:06 GMT 52.314388 4.759579 0 244 5
2021-10-15 10:38:03 GMT 52.314346 4.759532 0 239 5
2021-10-15 10:38:02 GMT 52.314323 4.759513 0 236 5
2021-10-15 10:37:59 GMT 52.314240 4.759445 0 227 5
2021-10-15 10:37:57 GMT 52.314228 4.759426 0 225 5
2021-10-15 10:37:56 GMT 52.314217 4.759426 0 225 5
2021-10-15 10:37:54 GMT 52.314171 4.759407 0 219 5
2021-10-15 10:37:53 GMT 52.314159 4.759388 0 219 5
2021-10-15 10:37:50 GMT 52.314091 4.759356 0 213 5
2021-10-15 10:37:49 GMT 52.314079 4.759356 0 213 5
2021-10-15 10:37:45 GMT 52.313999 4.759312 0 208 5
2021-10-15 10:37:42 GMT 52.313938 4.759317 0 202 5
2021-10-15 10:37:39 GMT 52.313869 4.759297 0 196 5
2021-10-15 10:37:38 GMT 52.313850 4.759312 0 196 5
2021-10-15 10:37:37 GMT 52.313801 4.759317 0 191 5
2021-10-15 10:37:34 GMT 52.313774 4.759317 0 191 5
2021-10-15 10:37:33 GMT 52.313740 4.759317 0 188 5
2021-10-15 10:37:28 GMT 52.313637 4.759336 0 182 5
2021-10-15 10:37:27 GMT 52.313610 4.759350 0 182 5
2021-10-15 10:37:24 GMT 52.313564 4.759350 0 180 5
2021-10-15 10:37:23 GMT 52.313530 4.759369 0 180 5
2021-10-15 10:37:21 GMT 52.313507 4.759369 0 180 5
2021-10-15 10:37:20 GMT 52.313484 4.759356 0 180 5
2021-10-15 10:37:19 GMT 52.313450 4.759375 0 180 5
2021-10-15 10:37:17 GMT 52.313427 4.759375 0 180 5
2021-10-15 10:37:15 GMT 52.313393 4.759375 0 180 5
2021-10-15 10:37:14 GMT 52.313370 4.759369 0 180 5
2021-10-15 10:37:13 GMT 52.313347 4.759375 0 180 5
2021-10-15 10:37:12 GMT 52.313290 4.759369 0 177 5
2021-10-15 10:37:10 GMT 52.313290 4.759369 0 177 5
2021-10-15 10:37:09 GMT 52.313267 4.759369 0 177 5
2021-10-15 10:37:07 GMT 52.313232 4.759388 0 177 5
2021-10-15 10:37:03 GMT 52.313164 4.759388 0 177 5
2021-10-15 10:37:02 GMT 52.313148 4.759375 0 177 5
2021-10-15 10:37:01 GMT 52.313110 4.759395 0 177 4
2021-10-15 10:36:57 GMT 52.313038 4.759388 0 177 4
2021-10-15 10:36:55 GMT 52.313026 4.759407 0 174 4
2021-10-15 10:36:49 GMT 52.312958 4.759541 0 160 5
2021-10-15 10:36:44 GMT 52.312916 4.759689 0 146 4
2021-10-15 10:36:40 GMT 52.312904 4.759768 0 137 4
2021-10-15 10:36:37 GMT 52.312878 4.759886 0 129 4
2021-10-15 10:36:36 GMT 52.312878 4.759903 0 129 4
2021-10-15 10:36:34 GMT 52.312855 4.760003 0 123 5
2021-10-15 10:36:31 GMT 52.312843 4.760062 0 120 5
2021-10-15 10:36:30 GMT 52.312843 4.760132 0 118 5
2021-10-15 10:36:25 GMT 52.312820 4.760239 0 115 5
2021-10-15 10:36:22 GMT 52.312798 4.760361 0 112 5
2021-10-15 10:36:21 GMT 52.312786 4.760418 0 112 5
2021-10-15 10:36:19 GMT 52.312786 4.760454 0 112 4
2021-10-15 10:36:17 GMT 52.312763 4.760533 0 109 4
2021-10-15 10:36:16 GMT 52.312763 4.760533 0 109 4
2021-10-15 10:36:14 GMT 52.312752 4.760590 0 109 4
2021-10-15 10:36:11 GMT 52.312729 4.760690 0 109 4
2021-10-15 10:36:09 GMT 52.312717 4.760729 0 109 4
2021-10-15 10:36:07 GMT 52.312706 4.760780 0 109 4
2021-10-15 10:36:05 GMT 52.312706 4.760818 0 109 3
2021-10-15 10:36:01 GMT 52.312683 4.760895 0 109 0
2021-10-15 10:35:51 GMT 52.312683 4.760945 0 109 0
2021-10-15 10:35:46 GMT 52.312683 4.760945 0 109 0
2021-10-15 10:35:36 GMT 52.312672 4.760952 0 109 0
2021-10-15 10:35:22 GMT 52.312683 4.760945 0 109 0
2021-10-15 10:35:11 GMT 52.312672 4.760945 0 109 0
2021-10-15 10:35:06 GMT 52.312672 4.760952 0 109 0
2021-10-15 10:34:56 GMT 52.312672 4.760945 0 109 0
2021-10-15 10:34:51 GMT 52.312672 4.760952 0 109 0
2021-10-15 10:34:46 GMT 52.312660 4.760952 0 109 0
2021-10-15 10:34:36 GMT 52.312660 4.760952 0 109 0
2021-10-15 10:34:31 GMT 52.312683 4.760945 0 109 0
2021-10-15 10:34:27 GMT 52.312683 4.760933 0 109 0
2021-10-15 10:34:22 GMT 52.312695 4.760945 0 109 0
2021-10-15 10:34:07 GMT 52.312695 4.760933 0 109 0
2021-10-15 10:33:57 GMT 52.312695 4.760945 0 109 0
2021-10-15 10:33:55 GMT 52.312695 4.760945 0 109 0
2021-10-15 10:33:54 GMT 52.312695 4.760933 0 109 0
2021-10-15 10:33:45 GMT 52.312695 4.760945 0 109 0
2021-10-15 10:33:43 GMT 52.312695 4.760933 0 109 0
2021-10-15 10:33:40 GMT 52.312695 4.760945 0 109 0
2021-10-15 10:33:37 GMT 52.312695 4.760933 0 109 0
2021-10-15 10:33:36 GMT 52.312695 4.760945 0 109 0
2021-10-15 10:33:35 GMT 52.312695 4.760945 0 109 0
2021-10-15 10:33:30 GMT 52.312695 4.760933 0 109 0
2021-10-15 10:33:29 GMT 52.312695 4.760945 0 109 0
2021-10-15 10:33:11 GMT 52.312599 4.760984 0 109 0
2021-10-15 10:33:06 GMT 52.312592 4.760990 0 109 0
2021-10-15 10:33:01 GMT 52.312565 4.761004 0 109 0
2021-10-15 10:32:51 GMT 52.312565 4.761004 0 109 0
2021-10-15 10:32:50 GMT 52.312569 4.761009 0 109 0
2021-10-15 10:32:46 GMT 52.312565 4.761004 0 109 0
2021-10-15 10:32:43 GMT 52.312569 4.761009 0 109 0
2021-10-15 10:32:41 GMT 52.312565 4.761004 0 109 0
2021-10-15 10:32:39 GMT 52.312565 4.761004 0 109 0
2021-10-15 10:32:37 GMT 52.312569 4.761009 0 109 0
2021-10-15 10:32:33 GMT 52.312565 4.761004 0 109 0
2021-10-15 10:32:31 GMT 52.312576 4.761004 0 109 0
2021-10-15 10:32:29 GMT 52.312576 4.761004 0 109 0
2021-10-15 10:32:22 GMT 52.312672 4.760952 0 109 0
2021-10-15 10:32:16 GMT 52.312683 4.760933 0 109 0
2021-10-15 10:32:06 GMT 52.312695 4.760925 0 109 0
2021-10-15 10:31:56 GMT 52.312695 4.760933 0 109 0
2021-10-15 10:31:51 GMT 52.312695 4.760925 0 109 0
2021-10-15 10:31:40 GMT 52.312695 4.760933 0 109 0
2021-10-15 10:31:36 GMT 52.312695 4.760925 0 109 0
2021-10-15 10:31:26 GMT 52.312695 4.760933 0 109 0
2021-10-15 10:31:06 GMT 52.312683 4.760945 0 109 0
2021-10-15 10:31:01 GMT 52.312683 4.760933 0 109 0

Making use of Plane Finder data

You are free to use the raw flight data, aircraft information and images provided in this report for your own purposes provided the data is correctly attributed to Plane Finder. We ask that you please credit Plane Finder and link to planefinder.net in close proximity to the content.

Optionally one of the following logos (no smaller then 150x24px) can be used and must link to planefinder.net

Embedding the Plane Finder map

You are welcome to embed the Plane Finder playback map on your website to offer visitors a more interactive experience. We suggest using the following HTML code:

<iframe src="//planefinder.net/data/report/KL677-PH-AKA-7700-squawk-2021-10-15/map" width="800" height="600" seamless="seamless"></iframe>

Where our data comes from

Plane Finder has a global network of data feeds and antenna radars that receive data broadcast directly from aircraft. The primary technologies used are ADS-B and MLAT. We also show feeds from the FAA and a FLARM glider feed.

Click here to find out more about the Plane Finder network.

How we collect our data